Donnes mto: Actuelle mardi, 23/07/2019 11:30
Date Horaire Temp. Ext. Temp. +10cm Temp. -10cm Temp. -30cm Temp. -50cm Hum. Ext. Hum.feuil. Hum.feuil. 2 Hum. -10cm Hum. -30cm Hum. -50cm Baro. Pluie Vent Direction Direction Ensoleilleme Ev.Tr. UV Solaire P. de rose Temp au vent Rafales
23/07/2019 11:30 30,2 C 27,8 C 20,0 C 18,9 C 18,3 C 45 % 0 lf 0 lf 200 cb 200 cb 84 cb 1019,1 hPa 0,0 mm 4,9 km/h (1 Bft) E 96 2 min 0,000 mm 3,0 UV-I 671 W/m 16,9 C 30,2 C 8,0 km/h (2 Bft)
23/07/2019 11:28 30,2 C 27,2 C 20,0 C 18,9 C 18,3 C 44 % 0 lf 0 lf 200 cb 200 cb 84 cb 1019,0 hPa 0,0 mm 6,3 km/h (2 Bft) E-SE 119 2 min 0,000 mm 3,0 UV-I 668 W/m 16,6 C 30,2 C 12,9 km/h (3 Bft)
23/07/2019 11:26 30,2 C 27,2 C 20,0 C 18,9 C 18,3 C 46 % 0 lf 0 lf 200 cb 200 cb 84 cb 1019,1 hPa 0,0 mm 2,7 km/h (1 Bft) E-SE 112 2 min 0,000 mm 2,9 UV-I 663 W/m 17,3 C 30,2 C 6,4 km/h (2 Bft)
23/07/2019 11:24 30,0 C 27,2 C 20,0 C 18,9 C 18,3 C 44 % 0 lf 0 lf 200 cb 200 cb 84 cb 1019,1 hPa 0,0 mm 3,5 km/h (1 Bft) E-SE 108 2 min 0,000 mm 2,9 UV-I 661 W/m 16,4 C 30,0 C 6,4 km/h (2 Bft)
23/07/2019 11:22 30,1 C 27,2 C 20,0 C 18,9 C 17,8 C 44 % 0 lf 0 lf 200 cb 200 cb 83 cb 1019,1 hPa 0,0 mm 2,8 km/h (1 Bft) SE 134 2 min 0,000 mm 2,9 UV-I 659 W/m 16,5 C 30,1 C 6,4 km/h (2 Bft)
23/07/2019 11:20 30,1 C 27,2 C 20,0 C 18,9 C 18,3 C 45 % 0 lf 0 lf 200 cb 200 cb 84 cb 1019,1 hPa 0,0 mm 4,8 km/h (1 Bft) S-SE 159 2 min 0,000 mm 2,8 UV-I 654 W/m 16,8 C 30,1 C 11,3 km/h (2 Bft)
23/07/2019 11:18 30,0 C 27,2 C 20,0 C 18,9 C 17,8 C 46 % 0 lf 0 lf 200 cb 200 cb 83 cb 1019,1 hPa 0,0 mm 4,8 km/h (1 Bft) S-SE 153 2 min 0,000 mm 2,8 UV-I 652 W/m 17,1 C 30,0 C 11,3 km/h (2 Bft)
23/07/2019 11:16 29,9 C 27,2 C 20,0 C 18,9 C 17,8 C 46 % 0 lf 0 lf 200 cb 200 cb 83 cb 1019,1 hPa 0,0 mm 2,6 km/h (1 Bft) S 175 2 min 0,000 mm 2,8 UV-I 649 W/m 17,0 C 29,9 C 6,4 km/h (2 Bft)
23/07/2019 11:14 29,8 C 27,2 C 20,0 C 18,9 C 17,8 C 46 % 0 lf 0 lf 200 cb 200 cb 83 cb 1019,1 hPa 0,0 mm 5,1 km/h (1 Bft) S 169 2 min 0,000 mm 2,8 UV-I 643 W/m 16,9 C 29,8 C 14,5 km/h (3 Bft)
23/07/2019 11:12 29,9 C 26,7 C 20,0 C 18,9 C 18,3 C 47 % 0 lf 0 lf 200 cb 200 cb 84 cb 1019,1 hPa 0,0 mm 4,1 km/h (1 Bft) SO 234 2 min 0,000 mm 2,7 UV-I 635 W/m 17,3 C 29,9 C 8,0 km/h (2 Bft)
23/07/2019 11:10 30,0 C 26,7 C 20,0 C 18,9 C 18,3 C 46 % 0 lf 0 lf 200 cb 200 cb 84 cb 1019,1 hPa 0,0 mm 3,5 km/h (1 Bft) SE 141 2 min 0,000 mm 2,7 UV-I 622 W/m 17,1 C 30,0 C 9,7 km/h (2 Bft)
23/07/2019 11:08 30,0 C 26,7 C 20,0 C 18,9 C 17,8 C 48 % 0 lf 0 lf 200 cb 200 cb 83 cb 1019,2 hPa 0,0 mm 1,9 km/h (1 Bft) S 190 2 min 0,000 mm 2,7 UV-I 610 W/m 17,8 C 30,0 C 6,4 km/h (2 Bft)
23/07/2019 11:06 29,8 C 26,7 C 20,0 C 18,9 C 17,8 C 48 % 0 lf 0 lf 200 cb 200 cb 83 cb 1019,1 hPa 0,0 mm 2,4 km/h (1 Bft) SE 146 2 min 0,000 mm 2,6 UV-I 599 W/m 17,6 C 29,8 C 8,0 km/h (2 Bft)
23/07/2019 11:04 29,6 C 26,7 C 20,0 C 18,9 C 17,8 C 49 % 0 lf 0 lf 200 cb 200 cb 83 cb 1019,1 hPa 0,0 mm 2,6 km/h (1 Bft) SE 128 2 min 0,000 mm 2,6 UV-I 584 W/m 17,7 C 29,6 C 9,7 km/h (2 Bft)
23/07/2019 11:02 29,3 C 26,1 C 20,0 C 18,9 C 17,8 C 50 % 0 lf 0 lf 200 cb 200 cb 83 cb 1019,1 hPa 0,0 mm 3,1 km/h (1 Bft) E-SE 118 2 min 0,000 mm 2,6 UV-I 575 W/m 17,8 C 29,3 C 9,7 km/h (2 Bft)
23/07/2019 11:00 29,1 C 26,1 C 20,0 C 18,9 C 17,8 C 50 % 0 lf 0 lf 200 cb 200 cb 83 cb 1019,1 hPa 0,0 mm 3,6 km/h (1 Bft) SE 124 2 min 0,330 mm 2,5 UV-I 554 W/m 17,6 C 29,1 C 9,7 km/h (2 Bft)
23/07/2019 10:58 29,2 C 26,1 C 20,0 C 18,9 C 17,8 C 49 % 0 lf 0 lf 200 cb 200 cb 83 cb 1019,1 hPa 0,0 mm 3,1 km/h (1 Bft) S-SE 148 2 min 0,000 mm 2,5 UV-I 540 W/m 17,4 C 29,2 C 8,0 km/h (2 Bft)
23/07/2019 10:56 29,2 C 26,1 C 20,0 C 18,9 C 17,8 C 50 % 0 lf 0 lf 200 cb 200 cb 83 cb 1019,2 hPa 0,0 mm 5,0 km/h (1 Bft) SE 131 2 min 0,000 mm 2,5 UV-I 527 W/m 17,7 C 29,2 C 9,7 km/h (2 Bft)
23/07/2019 10:54 29,1 C 26,1 C 20,0 C 18,9 C 17,8 C 49 % 0 lf 0 lf 200 cb 200 cb 83 cb 1019,2 hPa 0,0 mm 5,5 km/h (1 Bft) E-SE 119 2 min 0,000 mm 2,4 UV-I 512 W/m 17,3 C 29,1 C 12,9 km/h (3 Bft)
23/07/2019 10:52 29,1 C 25,6 C 20,0 C 18,9 C 17,8 C 50 % 0 lf 0 lf 200 cb 200 cb 83 cb 1019,2 hPa 0,0 mm 4,4 km/h (1 Bft) E-SE 121 2 min 0,000 mm 2,4 UV-I 501 W/m 17,6 C 29,1 C 12,9 km/h (3 Bft)
23/07/2019 10:50 29,0 C 25,6 C 20,0 C 18,9 C 17,8 C 51 % 0 lf 0 lf 200 cb 200 cb 83 cb 1019,2 hPa 0,0 mm 3,6 km/h (1 Bft) S 180 2 min 0,000 mm 2,4 UV-I 487 W/m 17,8 C 29,0 C 8,0 km/h (2 Bft)
23/07/2019 10:48 28,9 C 25,6 C 20,0 C 18,9 C 17,8 C 50 % 0 lf 0 lf 200 cb 200 cb 83 cb 1019,2 hPa 0,0 mm 5,4 km/h (1 Bft) S-SE 148 2 min 0,000 mm 2,3 UV-I 476 W/m 17,4 C 28,9 C 11,3 km/h (2 Bft)
23/07/2019 10:46 28,9 C 25,6 C 20,0 C 18,9 C 17,8 C 50 % 0 lf 0 lf 200 cb 200 cb 83 cb 1019,2 hPa 0,0 mm 3,1 km/h (1 Bft) SE 129 2 min 0,000 mm 2,3 UV-I 469 W/m 17,4 C 28,9 C 8,0 km/h (2 Bft)
23/07/2019 10:44 28,8 C 25,0 C 20,0 C 18,9 C 17,8 C 52 % 0 lf 0 lf 200 cb 200 cb 83 cb 1019,3 hPa 0,0 mm 2,1 km/h (1 Bft) S-SE 148 2 min 0,000 mm 2,3 UV-I 464 W/m 17,9 C 28,8 C 9,7 km/h (2 Bft)
23/07/2019 10:42 28,7 C 25,0 C 20,0 C 18,9 C 17,8 C 51 % 0 lf 0 lf 200 cb 200 cb 83 cb 1019,3 hPa 0,0 mm 5,6 km/h (1 Bft) SE 124 2 min 0,000 mm 2,3 UV-I 459 W/m 17,5 C 28,7 C 8,0 km/h (2 Bft)
23/07/2019 10:40 28,7 C 25,0 C 20,0 C 18,9 C 17,8 C 52 % 0 lf 0 lf 200 cb 200 cb 83 cb 1019,3 hPa 0,0 mm 5,4 km/h (1 Bft) SE 133 2 min 0,000 mm 2,2 UV-I 455 W/m 17,8 C 28,7 C 8,0 km/h (2 Bft)
23/07/2019 10:38 28,6 C 25,0 C 20,0 C 18,9 C 17,8 C 53 % 0 lf 0 lf 200 cb 200 cb 83 cb 1019,4 hPa 0,0 mm 3,4 km/h (1 Bft) E 91 2 min 0,000 mm 2,2 UV-I 454 W/m 18,1 C 28,6 C 6,4 km/h (2 Bft)
23/07/2019 10:36 28,3 C 24,4 C 20,0 C 18,9 C 17,8 C 52 % 0 lf 0 lf 200 cb 200 cb 83 cb 1019,4 hPa 0,0 mm 4,1 km/h (1 Bft) E-SE 114 2 min 0,000 mm 2,2 UV-I 452 W/m 17,5 C 28,3 C 8,0 km/h (2 Bft)
23/07/2019 10:34 28,4 C 24,4 C 20,0 C 18,9 C 17,8 C 52 % 0 lf 0 lf 200 cb 200 cb 83 cb 1019,4 hPa 0,0 mm 2,3 km/h (1 Bft) SE 129 2 min 0,000 mm 2,2 UV-I 450 W/m 17,6 C 28,4 C 4,8 km/h (1 Bft)
23/07/2019 10:32 28,2 C 24,4 C 20,0 C 18,9 C 17,8 C 52 % 0 lf 0 lf 200 cb 200 cb 83 cb 1019,5 hPa 0,0 mm 2,7 km/h (1 Bft) SE 131 2 min 0,000 mm 2,1 UV-I 454 W/m 17,4 C 28,2 C 6,4 km/h (2 Bft)
23/07/2019 10:30 28,0 C 24,4 C 20,0 C 18,9 C 17,8 C 54 % 0 lf 0 lf 200 cb 200 cb 83 cb 1019,5 hPa 0,0 mm 1,2 km/h (1 Bft) SE 140 2 min 0,000 mm 2,1 UV-I 455 W/m 17,8 C 28,0 C 4,8 km/h (1 Bft)
23/07/2019 10:28 27,8 C 24,4 C 20,0 C 18,9 C 17,8 C 54 % 0 lf 0 lf 200 cb 200 cb 83 cb 1019,5 hPa 0,0 mm 3,0 km/h (1 Bft) SE 133 2 min 0,000 mm 2,1 UV-I 459 W/m 17,6 C 27,8 C 6,4 km/h (2 Bft)
23/07/2019 10:26 27,8 C 24,4 C 20,0 C 18,9 C 17,8 C 53 % 0 lf 0 lf 200 cb 200 cb 83 cb 1019,5 hPa 0,0 mm 3,7 km/h (1 Bft) S-SE 167 2 min 0,000 mm 2,0 UV-I 462 W/m 17,3 C 27,8 C 8,0 km/h (2 Bft)
23/07/2019 10:24 27,7 C 24,4 C 20,0 C 18,9 C 17,8 C 56 % 0 lf 0 lf 200 cb 200 cb 83 cb 1019,5 hPa 0,0 mm 1,3 km/h (1 Bft) E-SE 110 2 min 0,000 mm 2,0 UV-I 466 W/m 18,1 C 27,7 C 4,8 km/h (1 Bft)
23/07/2019 10:22 27,5 C 23,9 C 20,0 C 18,9 C 17,8 C 56 % 0 lf 0 lf 200 cb 200 cb 83 cb 1019,5 hPa 0,0 mm 2,5 km/h (1 Bft) E 99 2 min 0,000 mm 2,0 UV-I 469 W/m 17,9 C 27,5 C 8,0 km/h (2 Bft)
23/07/2019 10:20 27,3 C 23,9 C 20,0 C 18,9 C 17,8 C 55 % 0 lf 0 lf 200 cb 200 cb 83 cb 1019,5 hPa 0,0 mm 4,1 km/h (1 Bft) E-SE 115 2 min 0,000 mm 1,9 UV-I 476 W/m 17,4 C 27,3 C 9,7 km/h (2 Bft)
23/07/2019 10:18 27,2 C 23,9 C 20,0 C 18,9 C 17,8 C 58 % 0 lf 0 lf 200 cb 200 cb 83 cb 1019,5 hPa 0,0 mm 1,8 km/h (1 Bft) SE 132 2 min 0,000 mm 1,9 UV-I 478 W/m 18,2 C 27,2 C 4,8 km/h (1 Bft)
23/07/2019 10:16 27,1 C 23,9 C 20,0 C 18,9 C 17,8 C 58 % 0 lf 0 lf 200 cb 200 cb 83 cb 1019,5 hPa 0,0 mm 2,2 km/h (1 Bft) S-SE 150 2 min 0,000 mm 1,9 UV-I 482 W/m 18,1 C 27,1 C 4,8 km/h (1 Bft)
23/07/2019 10:14 26,8 C 23,3 C 20,0 C 18,9 C 17,8 C 58 % 0 lf 0 lf 200 cb 200 cb 83 cb 1019,6 hPa 0,0 mm 1,1 km/h (1 Bft) S-SE 166 2 min 0,000 mm 1,9 UV-I 485 W/m 17,8 C 26,8 C 4,8 km/h (1 Bft)
23/07/2019 10:12 26,8 C 23,3 C 20,0 C 18,9 C 17,8 C 57 % 0 lf 0 lf 200 cb 200 cb 83 cb 1019,5 hPa 0,0 mm 2,1 km/h (1 Bft) S 180 2 min 0,000 mm 1,8 UV-I 487 W/m 17,6 C 26,8 C 4,8 km/h (1 Bft)
23/07/2019 10:10 26,8 C 23,3 C 20,0 C 18,9 C 17,8 C 58 % 0 lf 0 lf 200 cb 200 cb 83 cb 1019,6 hPa 0,0 mm 2,8 km/h (1 Bft) S 180 2 min 0,000 mm 1,8 UV-I 485 W/m 17,8 C 26,8 C 6,4 km/h (2 Bft)
23/07/2019 10:08 26,7 C 23,3 C 20,0 C 18,9 C 17,8 C 57 % 0 lf 0 lf 200 cb 200 cb 83 cb 1019,5 hPa 0,0 mm 2,5 km/h (1 Bft) SE 136 2 min 0,000 mm 1,8 UV-I 482 W/m 17,5 C 26,7 C 6,4 km/h (2 Bft)
23/07/2019 10:06 26,7 C 23,3 C 20,0 C 18,9 C 17,8 C 58 % 0 lf 0 lf 200 cb 200 cb 83 cb 1019,6 hPa 0,0 mm 4,1 km/h (1 Bft) SE 137 2 min 0,000 mm 1,7 UV-I 471 W/m 17,7 C 26,7 C 8,0 km/h (2 Bft)
23/07/2019 10:04 26,5 C 23,3 C 20,0 C 18,9 C 17,8 C 59 % 0 lf 0 lf 200 cb 200 cb 83 cb 1019,6 hPa 0,0 mm 1,9 km/h (1 Bft) E-SE 103 2 min 0,000 mm 1,7 UV-I 459 W/m 17,8 C 26,5 C 6,4 km/h (2 Bft)
23/07/2019 10:02 26,3 C 22,8 C 20,0 C 18,9 C 17,8 C 61 % 0 lf 0 lf 200 cb 200 cb 83 cb 1019,6 hPa 0,0 mm 0,8 km/h (0 Bft) E 84 2 min 0,000 mm 1,7 UV-I 448 W/m 18,2 C 26,3 C 4,8 km/h (1 Bft)
23/07/2019 10:00 26,3 C 22,8 C 20,0 C 18,9 C 17,8 C 61 % 0 lf 0 lf 200 cb 200 cb 83 cb 1019,6 hPa 0,0 mm 0,6 km/h (0 Bft) E 82 2 min 0,254 mm 1,6 UV-I 425 W/m 18,2 C 26,3 C 3,2 km/h (1 Bft)
23/07/2019 09:58 26,2 C 22,8 C 20,0 C 18,9 C 17,8 C 62 % 0 lf 0 lf 200 cb 200 cb 83 cb 1019,6 hPa 0,0 mm 1,5 km/h (1 Bft) E 81 2 min 0,000 mm 1,6 UV-I 413 W/m 18,3 C 26,2 C 4,8 km/h (1 Bft)
23/07/2019 09:56 26,2 C 22,8 C 20,0 C 18,9 C 17,8 C 62 % 0 lf 0 lf 200 cb 200 cb 83 cb 1019,7 hPa 0,0 mm 3,2 km/h (1 Bft) E 81 2 min 0,000 mm 1,6 UV-I 399 W/m 18,3 C 26,2 C 6,4 km/h (2 Bft)
23/07/2019 09:54 26,1 C 22,2 C 20,0 C 18,9 C 17,8 C 62 % 0 lf 0 lf 200 cb 200 cb 83 cb 1019,7 hPa 0,0 mm 2,1 km/h (1 Bft) E-NE 77 2 min 0,000 mm 1,6 UV-I 383 W/m 18,2 C 26,1 C 4,8 km/h (1 Bft)
23/07/2019 09:52 25,8 C 22,2 C 20,0 C 18,9 C 17,8 C 64 % 0 lf 0 lf 200 cb 200 cb 83 cb 1019,7 hPa 0,0 mm 2,1 km/h (1 Bft) E-NE 76 2 min 0,000 mm 1,5 UV-I 374 W/m 18,5 C 25,8 C 4,8 km/h (1 Bft)
23/07/2019 09:50 25,6 C 22,2 C 20,0 C 18,9 C 17,8 C 64 % 0 lf 0 lf 200 cb 200 cb 83 cb 1019,7 hPa 0,0 mm 1,2 km/h (1 Bft) E-NE 75 2 min 0,000 mm 1,5 UV-I 369 W/m 18,3 C 25,6 C 4,8 km/h (1 Bft)
23/07/2019 09:48 25,4 C 22,2 C 20,0 C 18,9 C 17,8 C 64 % 0 lf 0 lf 200 cb 200 cb 83 cb 1019,8 hPa 0,0 mm 2,9 km/h (1 Bft) E-NE 75 2 min 0,000 mm 1,5 UV-I 362 W/m 18,1 C 25,4 C 4,8 km/h (1 Bft)
23/07/2019 09:46 25,3 C 21,7 C 20,0 C 18,9 C 17,8 C 64 % 0 lf 0 lf 200 cb 200 cb 83 cb 1019,8 hPa 0,0 mm 0,8 km/h (0 Bft) E-NE 74 2 min 0,000 mm 1,5 UV-I 362 W/m 18,0 C 25,3 C 4,8 km/h (1 Bft)
23/07/2019 09:44 25,2 C 21,7 C 20,0 C 18,9 C 17,8 C 65 % 0 lf 0 lf 200 cb 200 cb 83 cb 1019,9 hPa 0,0 mm 1,8 km/h (1 Bft) E-NE 74 2 min 0,000 mm 1,4 UV-I 364 W/m 18,1 C 25,2 C 4,8 km/h (1 Bft)
23/07/2019 09:42 25,1 C 21,7 C 20,0 C 18,9 C 17,8 C 66 % 0 lf 0 lf 200 cb 200 cb 83 cb 1019,8 hPa 0,0 mm 1,6 km/h (1 Bft) E-NE 74 2 min 0,000 mm 1,4 UV-I 369 W/m 18,3 C 25,1 C 3,2 km/h (1 Bft)
23/07/2019 09:40 24,9 C 21,7 C 20,0 C 18,9 C 17,8 C 67 % 0 lf 0 lf 200 cb 200 cb 83 cb 1019,9 hPa 0,0 mm 1,9 km/h (1 Bft) E-NE 73 2 min 0,000 mm 1,4 UV-I 373 W/m 18,3 C 24,9 C 4,8 km/h (1 Bft)
23/07/2019 09:38 24,7 C 21,7 C 20,0 C 18,9 C 17,8 C 67 % 0 lf 0 lf 200 cb 200 cb 83 cb 1019,8 hPa 0,0 mm 1,0 km/h (0 Bft) E-NE 73 2 min 0,000 mm 1,3 UV-I 380 W/m 18,1 C 24,7 C 3,2 km/h (1 Bft)
23/07/2019 09:36 24,6 C 21,7 C 20,0 C 18,9 C 17,8 C 67 % 0 lf 0 lf 200 cb 200 cb 83 cb 1019,9 hPa 0,0 mm 0,7 km/h (0 Bft) E-NE 73 2 min 0,000 mm 1,3 UV-I 387 W/m 18,1 C 24,6 C 4,8 km/h (1 Bft)
23/07/2019 09:34 24,5 C 21,1 C 20,0 C 18,9 C 17,8 C 67 % 0 lf 0 lf 200 cb 200 cb 83 cb 1019,9 hPa 0,0 mm 1,7 km/h (1 Bft) E-NE 73 2 min 0,000 mm 1,3 UV-I 392 W/m 18,0 C 24,5 C 4,8 km/h (1 Bft)
23/07/2019 09:32 24,4 C 21,1 C 20,0 C 18,9 C 17,8 C 69 % 0 lf 0 lf 200 cb 200 cb 83 cb 1019,8 hPa 0,0 mm 2,5 km/h (1 Bft) E-NE 73 2 min 0,000 mm 1,3 UV-I 397 W/m 18,3 C 24,4 C 6,4 km/h (2 Bft)
23/07/2019 09:30 24,3 C 21,1 C 20,0 C 18,9 C 17,8 C 68 % 0 lf 0 lf 200 cb 200 cb 83 cb 1019,9 hPa 0,0 mm 1,6 km/h (1 Bft) E-NE 70 2 min 0,000 mm 1,2 UV-I 399 W/m 18,0 C 24,3 C 6,4 km/h (2 Bft)
23/07/2019 09:28 24,3 C 21,1 C 20,0 C 18,9 C 17,8 C 70 % 0 lf 0 lf 200 cb 200 cb 83 cb 1019,9 hPa 0,0 mm 0,8 km/h (0 Bft) E-NE 57 2 min 0,000 mm 1,2 UV-I 401 W/m 18,5 C 24,3 C 3,2 km/h (1 Bft)
23/07/2019 09:26 24,2 C 20,6 C 20,0 C 18,9 C 17,8 C 70 % 0 lf 0 lf 200 cb 200 cb 83 cb 1019,9 hPa 0,0 mm 1,8 km/h (1 Bft) E-NE 57 2 min 0,000 mm 1,2 UV-I 399 W/m 18,4 C 24,2 C 4,8 km/h (1 Bft)
23/07/2019 09:24 24,0 C 20,6 C 20,0 C 18,9 C 17,8 C 71 % 0 lf 0 lf 200 cb 200 cb 83 cb 1019,9 hPa 0,0 mm 1,1 km/h (1 Bft) E-SE 102 2 min 0,000 mm 1,2 UV-I 394 W/m 18,4 C 24,0 C 4,8 km/h (1 Bft)
23/07/2019 09:22 23,8 C 20,6 C 20,0 C 18,9 C 17,8 C 72 % 0 lf 0 lf 200 cb 200 cb 83 cb 1019,9 hPa 0,0 mm 0,0 km/h (0 Bft) E 86 2 min 0,000 mm 1,2 UV-I 390 W/m 18,4 C 23,8 C 1,6 km/h (1 Bft)
23/07/2019 09:20 23,7 C 20,6 C 20,0 C 18,9 C 17,8 C 71 % 0 lf 0 lf 200 cb 200 cb 83 cb 1019,9 hPa 0,0 mm 1,9 km/h (1 Bft) E 92 2 min 0,000 mm 1,1 UV-I 383 W/m 18,1 C 23,7 C 4,8 km/h (1 Bft)
23/07/2019 09:18 23,5 C 20,0 C 20,0 C 18,9 C 17,8 C 72 % 0 lf 0 lf 200 cb 200 cb 83 cb 1020,0 hPa 0,0 mm 1,7 km/h (1 Bft) E 88 2 min 0,000 mm 1,1 UV-I 380 W/m 18,2 C 23,5 C 4,8 km/h (1 Bft)
23/07/2019 09:16 23,4 C 20,0 C 20,0 C 18,9 C 17,8 C 72 % 0 lf 0 lf 200 cb 200 cb 83 cb 1020,0 hPa 0,0 mm 1,0 km/h (0 Bft) E-NE 73 2 min 0,000 mm 1,1 UV-I 374 W/m 18,1 C 23,4 C 3,2 km/h (1 Bft)
23/07/2019 09:14 23,2 C 20,0 C 20,0 C 18,9 C 17,8 C 73 % 0 lf 0 lf 200 cb 200 cb 83 cb 1020,0 hPa 0,0 mm 2,9 km/h (1 Bft) E-NE 57 2 min 0,000 mm 1,0 UV-I 367 W/m 18,1 C 23,2 C 4,8 km/h (1 Bft)
23/07/2019 09:12 23,1 C 19,4 C 20,0 C 18,9 C 17,8 C 74 % 0 lf 0 lf 200 cb 200 cb 83 cb 1020,1 hPa 0,0 mm 2,4 km/h (1 Bft) E-SE 104 2 min 0,000 mm 1,0 UV-I 360 W/m 18,2 C 23,1 C 4,8 km/h (1 Bft)
23/07/2019 09:10 22,9 C 19,4 C 20,0 C 18,9 C 17,8 C 74 % 0 lf 0 lf 200 cb 200 cb 83 cb 1020,1 hPa 0,0 mm 2,1 km/h (1 Bft) E-SE 105 2 min 0,000 mm 1,0 UV-I 357 W/m 18,0 C 22,9 C 4,8 km/h (1 Bft)
23/07/2019 09:08 22,7 C 19,4 C 20,0 C 18,9 C 17,8 C 75 % 0 lf 0 lf 200 cb 200 cb 83 cb 1020,1 hPa 0,0 mm 2,7 km/h (1 Bft) E-SE 105 2 min 0,000 mm 1,0 UV-I 348 W/m 18,0 C 22,7 C 4,8 km/h (1 Bft)
23/07/2019 09:06 22,6 C 19,4 C 20,0 C 18,9 C 17,8 C 76 % 0 lf 0 lf 200 cb 200 cb 83 cb 1020,1 hPa 0,0 mm 2,1 km/h (1 Bft) E-SE 105 2 min 0,000 mm 1,0 UV-I 345 W/m 18,1 C 22,6 C 4,8 km/h (1 Bft)
23/07/2019 09:04 22,3 C 19,4 C 20,0 C 18,9 C 17,8 C 77 % 0 lf 0 lf 200 cb 200 cb 83 cb 1020,1 hPa 0,0 mm 0,9 km/h (0 Bft) E-NE 75 2 min 0,000 mm 0,9 UV-I 341 W/m 18,1 C 22,3 C 4,8 km/h (1 Bft)
23/07/2019 09:02 22,1 C 18,9 C 20,0 C 18,9 C 17,8 C 77 % 0 lf 0 lf 200 cb 200 cb 83 cb 1020,2 hPa 0,0 mm 3,1 km/h (1 Bft) E 80 2 min 0,000 mm 0,9 UV-I 334 W/m 17,9 C 22,1 C 4,8 km/h (1 Bft)
23/07/2019 09:00 21,9 C 18,9 C 20,0 C 18,9 C 17,8 C 78 % 0 lf 0 lf 200 cb 200 cb 83 cb 1020,3 hPa 0,0 mm 2,2 km/h (1 Bft) E 80 2 min 0,102 mm 0,9 UV-I 329 W/m 17,9 C 21,9 C 6,4 km/h (2 Bft)
23/07/2019 08:58 21,8 C 18,9 C 20,0 C 18,9 C 17,8 C 77 % 0 lf 0 lf 200 cb 200 cb 83 cb 1020,3 hPa 0,0 mm 1,7 km/h (1 Bft) E-NE 69 2 min 0,000 mm 0,8 UV-I 255 W/m 17,6 C 21,8 C 3,2 km/h (1 Bft)
23/07/2019 08:56 21,7 C 18,9 C 20,0 C 18,9 C 17,8 C 79 % 0 lf 0 lf 200 cb 200 cb 83 cb 1020,3 hPa 0,0 mm 1,5 km/h (1 Bft) E-SE 121 2 min 0,000 mm 0,7 UV-I 264 W/m 17,9 C 21,7 C 4,8 km/h (1 Bft)
23/07/2019 08:54 21,6 C 18,3 C 20,0 C 18,9 C 17,8 C 80 % 0 lf 0 lf 200 cb 200 cb 83 cb 1020,3 hPa 0,0 mm 0,3 km/h (0 Bft) E-SE 122 2 min 0,000 mm 0,8 UV-I 311 W/m 18,0 C 21,6 C 3,2 km/h (1 Bft)
23/07/2019 08:52 21,4 C 18,3 C 20,0 C 18,9 C 17,8 C 80 % 0 lf 0 lf 200 cb 200 cb 83 cb 1020,3 hPa 0,0 mm 0,8 km/h (0 Bft) E-SE 122 2 min 0,000 mm 0,8 UV-I 308 W/m 17,8 C 21,4 C 4,8 km/h (1 Bft)
23/07/2019 08:50 21,2 C 18,3 C 20,0 C 18,9 C 17,8 C 80 % 0 lf 0 lf 200 cb 200 cb 83 cb 1020,3 hPa 0,0 mm 1,4 km/h (1 Bft) E-SE 123 2 min 0,000 mm 0,8 UV-I 301 W/m 17,6 C 21,2 C 4,8 km/h (1 Bft)
23/07/2019 08:48 21,1 C 18,3 C 20,0 C 18,9 C 17,8 C 81 % 0 lf 0 lf 200 cb 200 cb 83 cb 1020,4 hPa 0,0 mm 2,3 km/h (1 Bft) E 87 2 min 0,000 mm 0,7 UV-I 295 W/m 17,7 C 21,1 C 6,4 km/h (2 Bft)
23/07/2019 08:46 20,9 C 18,3 C 20,0 C 18,9 C 17,8 C 81 % 0 lf 0 lf 200 cb 200 cb 83 cb 1020,4 hPa 0,0 mm 2,0 km/h (1 Bft) E-NE 75 2 min 0,000 mm 0,7 UV-I 290 W/m 17,5 C 20,9 C 4,8 km/h (1 Bft)
23/07/2019 08:44 20,8 C 17,8 C 20,0 C 18,9 C 17,8 C 81 % 0 lf 0 lf 200 cb 200 cb 83 cb 1020,4 hPa 0,0 mm 1,1 km/h (1 Bft) E-NE 75 2 min 0,000 mm 0,7 UV-I 283 W/m 17,4 C 20,8 C 3,2 km/h (1 Bft)
23/07/2019 08:42 20,7 C 17,8 C 20,0 C 18,9 C 17,8 C 82 % 0 lf 0 lf 200 cb 200 cb 83 cb 1020,5 hPa 0,0 mm 0,7 km/h (0 Bft) E-NE 75 2 min 0,000 mm 0,6 UV-I 276 W/m 17,5 C 20,7 C 3,2 km/h (1 Bft)
23/07/2019 08:40 20,5 C 17,8 C 20,0 C 18,9 C 17,8 C 82 % 0 lf 0 lf 200 cb 200 cb 83 cb 1020,4 hPa 0,0 mm 1,4 km/h (1 Bft) E-NE 65 2 min 0,000 mm 0,6 UV-I 234 W/m 17,3 C 20,5 C 4,8 km/h (1 Bft)
23/07/2019 08:38 20,4 C 17,8 C 20,0 C 18,9 C 17,8 C 82 % 0 lf 0 lf 200 cb 200 cb 83 cb 1020,4 hPa 0,0 mm 0,2 km/h (0 Bft) N 355 2 min 0,000 mm 0,6 UV-I 258 W/m 17,2 C 20,4 C 1,6 km/h (1 Bft)
23/07/2019 08:36 20,2 C 17,8 C 20,0 C 18,9 C 17,8 C 83 % 0 lf 0 lf 200 cb 200 cb 83 cb 1020,4 hPa 0,0 mm 0,5 km/h (0 Bft) N-NO 346 2 min 0,000 mm 0,6 UV-I 255 W/m 17,2 C 20,2 C 3,2 km/h (1 Bft)
23/07/2019 08:34 20,1 C 17,2 C 20,0 C 18,9 C 17,8 C 83 % 0 lf 0 lf 200 cb 200 cb 83 cb 1020,4 hPa 0,0 mm 0,0 km/h (0 Bft) N-NO 346 2 min 0,000 mm 0,6 UV-I 251 W/m 17,1 C 20,1 C 0,0 km/h (0 Bft)
23/07/2019 08:32 19,9 C 17,2 C 20,0 C 18,9 C 17,8 C 84 % 1 lf 1 lf 200 cb 200 cb 83 cb 1020,4 hPa 0,0 mm 0,0 km/h (0 Bft) N-NO 346 2 min 0,000 mm 0,5 UV-I 246 W/m 17,1 C 19,9 C 0,0 km/h (0 Bft)
23/07/2019 08:30 19,9 C 17,2 C 20,0 C 18,9 C 17,8 C 84 % 0 lf 1 lf 200 cb 200 cb 83 cb 1020,4 hPa 0,0 mm 0,0 km/h (0 Bft) N-NO 346 2 min 0,000 mm 0,5 UV-I 241 W/m 17,1 C 19,9 C 0,0 km/h (0 Bft)
23/07/2019 08:28 19,8 C 17,2 C 20,0 C 18,9 C 17,8 C 84 % 1 lf 1 lf 200 cb 200 cb 83 cb 1020,4 hPa 0,0 mm 0,0 km/h (0 Bft) N-NO 346 2 min 0,000 mm 0,5 UV-I 239 W/m 17,0 C 19,8 C 0,0 km/h (0 Bft)
23/07/2019 08:26 19,6 C 17,2 C 20,0 C 18,9 C 17,8 C 84 % 0 lf 1 lf 200 cb 200 cb 83 cb 1020,4 hPa 0,0 mm 0,0 km/h (0 Bft) N-NO 346 2 min 0,000 mm 0,5 UV-I 232 W/m 16,8 C 19,6 C 0,0 km/h (0 Bft)
23/07/2019 08:24 19,5 C 17,2 C 20,0 C 18,9 C 17,8 C 84 % 1 lf 1 lf 200 cb 200 cb 83 cb 1020,5 hPa 0,0 mm 0,0 km/h (0 Bft) N-NO 346 2 min 0,000 mm 0,5 UV-I 227 W/m 16,7 C 19,5 C 0,0 km/h (0 Bft)
23/07/2019 08:22 19,4 C 17,2 C 20,0 C 18,9 C 17,8 C 85 % 1 lf 1 lf 200 cb 200 cb 83 cb 1020,4 hPa 0,0 mm 0,0 km/h (0 Bft) N-NO 346 0 min 0,000 mm 0,0 UV-I 163 W/m 16,8 C 19,4 C 0,0 km/h (0 Bft)
23/07/2019 08:20 19,3 C 16,7 C 20,0 C 18,9 C 17,8 C 85 % 1 lf 1 lf 200 cb 200 cb 83 cb 1020,5 hPa 0,0 mm 0,0 km/h (0 Bft) N-NO 346 0 min 0,000 mm 0,0 UV-I 47 W/m 16,7 C 19,3 C 0,0 km/h (0 Bft)
23/07/2019 08:18 19,2 C 16,7 C 20,0 C 18,9 C 17,8 C 85 % 1 lf 1 lf 200 cb 200 cb 83 cb 1020,6 hPa 0,0 mm 0,0 km/h (0 Bft) N-NO 346 0 min 0,000 mm 0,0 UV-I 47 W/m 16,6 C 19,2 C 0,0 km/h (0 Bft)
23/07/2019 08:16 19,1 C 16,7 C 20,0 C 18,9 C 17,8 C 85 % 1 lf 1 lf 200 cb 200 cb 83 cb 1020,5 hPa 0,0 mm 0,0 km/h (0 Bft) N-NO 346 0 min 0,000 mm 0,0 UV-I 46 W/m 16,5 C 19,1 C 0,0 km/h (0 Bft)
23/07/2019 08:14 19,0 C 16,7 C 20,0 C 18,9 C 17,8 C 86 % 1 lf 1 lf 200 cb 200 cb 83 cb 1020,5 hPa 0,0 mm 0,0 km/h (0 Bft) N-NO 346 0 min 0,000 mm 0,0 UV-I 46 W/m 16,6 C 19,0 C 0,0 km/h (0 Bft)
23/07/2019 08:12 18,9 C 16,7 C 20,0 C 18,9 C 17,8 C 86 % 1 lf 1 lf 200 cb 200 cb 83 cb 1020,5 hPa 0,0 mm 0,0 km/h (0 Bft) N-NO 346 0 min 0,000 mm 0,0 UV-I 44 W/m 16,5 C 18,9 C 0,0 km/h (0 Bft)
23/07/2019 08:10 18,7 C 16,7 C 20,0 C 18,9 C 17,8 C 87 % 1 lf 1 lf 200 cb 200 cb 83 cb 1020,5 hPa 0,0 mm 0,0 km/h (0 Bft) N-NO 346 0 min 0,000 mm 0,0 UV-I 44 W/m 16,5 C 18,7 C 0,0 km/h (0 Bft)
23/07/2019 08:08 18,6 C 16,7 C 20,0 C 18,9 C 17,8 C 87 % 1 lf 1 lf 200 cb 200 cb 83 cb 1020,5 hPa 0,0 mm 0,0 km/h (0 Bft) N-NO 346 0 min 0,000 mm 0,0 UV-I 44 W/m 16,4 C 18,6 C 0,0 km/h (0 Bft)
23/07/2019 08:06 18,5 C 16,1 C 20,0 C 18,9 C 17,8 C 87 % 1 lf 1 lf 200 cb 200 cb 83 cb 1020,5 hPa 0,0 mm 0,0 km/h (0 Bft) N-NO 346 0 min 0,000 mm 0,0 UV-I 42 W/m 16,3 C 18,5 C 0,0 km/h (0 Bft)
23/07/2019 08:04 18,4 C 16,1 C 20,0 C 18,9 C 17,8 C 87 % 2 lf 1 lf 200 cb 200 cb 83 cb 1020,5 hPa 0,0 mm 0,0 km/h (0 Bft) N-NO 346 0 min 0,000 mm 0,0 UV-I 39 W/m 16,2 C 18,4 C 0,0 km/h (0 Bft)
23/07/2019 08:02 18,3 C 16,1 C 20,0 C 18,9 C 17,8 C 87 % 2 lf 1 lf 200 cb 200 cb 83 cb 1020,5 hPa 0,0 mm 0,0 km/h (0 Bft) N-NO 346 0 min 0,000 mm 0,0 UV-I 37 W/m 16,1 C 18,3 C 0,0 km/h (0 Bft)
23/07/2019 08:00 18,3 C 16,1 C 20,0 C 18,9 C 17,8 C 87 % 2 lf 1 lf 200 cb 200 cb 83 cb 1020,5 hPa 0,0 mm 0,0 km/h (0 Bft) N-NO 346 0 min 0,025 mm 0,0 UV-I 37 W/m 16,1 C 18,3 C 0,0 km/h (0 Bft)
23/07/2019 07:58 18,2 C 16,1 C 20,0 C 18,9 C 17,8 C 88 % 2 lf 2 lf 200 cb 200 cb 83 cb 1020,5 hPa 0,0 mm 0,0 km/h (0 Bft) N-NO 346 0 min 0,000 mm 0,0 UV-I 37 W/m 16,2 C 18,2 C 0,0 km/h (0 Bft)
23/07/2019 07:56 18,2 C 16,1 C 20,0 C 18,9 C 17,8 C 88 % 3 lf 2 lf 200 cb 200 cb 83 cb 1020,6 hPa 0,0 mm 0,0 km/h (0 Bft) N-NO 346 0 min 0,000 mm 0,0 UV-I 37 W/m 16,2 C 18,2 C 0,0 km/h (0 Bft)
23/07/2019 07:54 18,1 C 16,1 C 20,0 C 18,9 C 17,8 C 88 % 4 lf 2 lf 200 cb 200 cb 83 cb 1020,6 hPa 0,0 mm 0,0 km/h (0 Bft) N-NO 346 0 min 0,000 mm 0,0 UV-I 37 W/m 16,1 C 18,1 C 0,0 km/h (0 Bft)
23/07/2019 07:52 18,0 C 16,1 C 20,0 C 18,9 C 17,8 C 88 % 5 lf 3 lf 200 cb 200 cb 83 cb 1020,6 hPa 0,0 mm 0,0 km/h (0 Bft) N-NO 346 0 min 0,000 mm 0,0 UV-I 37 W/m 16,0 C 18,0 C 0,0 km/h (0 Bft)
23/07/2019 07:50 17,9 C 16,1 C 20,0 C 18,9 C 17,8 C 88 % 8 lf 3 lf 200 cb 200 cb 83 cb 1020,6 hPa 0,0 mm 0,0 km/h (0 Bft) N-NO 346 0 min 0,000 mm 0,0 UV-I 39 W/m 15,9 C 17,9 C 0,0 km/h (0 Bft)
23/07/2019 07:48 17,9 C 16,1 C 20,0 C 18,9 C 17,8 C 88 % 10 lf 4 lf 200 cb 200 cb 83 cb 1020,5 hPa 0,0 mm 0,0 km/h (0 Bft) N-NO 346 0 min 0,000 mm 0,0 UV-I 39 W/m 15,9 C 17,9 C 0,0 km/h (0 Bft)
23/07/2019 07:46 17,8 C 16,1 C 20,0 C 18,9 C 17,8 C 88 % 12 lf 4 lf 200 cb 200 cb 83 cb 1020,6 hPa 0,0 mm 0,0 km/h (0 Bft) N-NO 346 0 min 0,000 mm 0,0 UV-I 39 W/m 15,8 C 17,8 C 0,0 km/h (0 Bft)
23/07/2019 07:44 17,8 C 16,1 C 20,0 C 18,9 C 17,8 C 89 % 12 lf 6 lf 200 cb 200 cb 83 cb 1020,6 hPa 0,0 mm 0,3 km/h (0 Bft) N-NO 346 0 min 0,000 mm 0,0 UV-I 39 W/m 16,0 C 17,8 C 3,2 km/h (1 Bft)
23/07/2019 07:42 17,7 C 16,1 C 20,6 C 18,9 C 17,8 C 89 % 13 lf 8 lf 200 cb 200 cb 83 cb 1020,6 hPa 0,0 mm 0,1 km/h (0 Bft) N-NO 346 0 min 0,000 mm 0,0 UV-I 37 W/m 15,9 C 17,7 C 1,6 km/h (1 Bft)
23/07/2019 07:40 17,6 C 16,1 C 20,6 C 18,9 C 17,8 C 89 % 14 lf 10 lf 200 cb 200 cb 83 cb 1020,6 hPa 0,0 mm 0,0 km/h (0 Bft) N-NO 346 0 min 0,000 mm 0,0 UV-I 37 W/m 15,8 C 17,6 C 0,0 km/h (0 Bft)
23/07/2019 07:38 17,5 C 15,6 C 20,6 C 18,9 C 17,8 C 89 % 14 lf 10 lf 200 cb 200 cb 83 cb 1020,5 hPa 0,0 mm 0,0 km/h (0 Bft) N-NO 346 0 min 0,000 mm 0,0 UV-I 39 W/m 15,7 C 17,5 C 0,0 km/h (0 Bft)
23/07/2019 07:36 17,4 C 15,6 C 20,6 C 18,9 C 17,8 C 89 % 14 lf 11 lf 200 cb 200 cb 83 cb 1020,5 hPa 0,0 mm 0,0 km/h (0 Bft) N-NO 346 0 min 0,000 mm 0,0 UV-I 39 W/m 15,6 C 17,4 C 0,0 km/h (0 Bft)
23/07/2019 07:34 17,4 C 15,6 C 20,6 C 18,9 C 17,8 C 90 % 14 lf 12 lf 200 cb 200 cb 83 cb 1020,6 hPa 0,0 mm 0,0 km/h (0 Bft) N-NO 346 0 min 0,000 mm 0,0 UV-I 39 W/m 15,7 C 17,4 C 0,0 km/h (0 Bft)
23/07/2019 07:32 17,3 C 15,6 C 20,6 C 18,9 C 17,8 C 90 % 14 lf 12 lf 200 cb 200 cb 83 cb 1020,5 hPa 0,0 mm 0,0 km/h (0 Bft) N-NO 346 0 min 0,000 mm 0,0 UV-I 39 W/m 15,6 C 17,3 C 0,0 km/h (0 Bft)
23/07/2019 07:30 17,3 C 15,6 C 20,6 C 18,9 C 17,8 C 90 % 15 lf 12 lf 200 cb 200 cb 83 cb 1020,5 hPa 0,0 mm 0,0 km/h (0 Bft) N-NO 346 0 min 0,000 mm 0,0 UV-I 37 W/m 15,6 C 17,3 C 0,0 km/h (0 Bft)
23/07/2019 07:28 17,2 C 15,6 C 20,6 C 18,9 C 17,8 C 90 % 15 lf 13 lf 200 cb 200 cb 83 cb 1020,5 hPa 0,0 mm 0,0 km/h (0 Bft) N-NO 346 0 min 0,000 mm 0,0 UV-I 37 W/m 15,5 C 17,2 C 0,0 km/h (0 Bft)
23/07/2019 07:26 17,2 C 15,6 C 20,6 C 18,9 C 17,8 C 90 % 15 lf 13 lf 200 cb 200 cb 83 cb 1020,5 hPa 0,0 mm 0,0 km/h (0 Bft) N-NO 346 0 min 0,000 mm 0,0 UV-I 35 W/m 15,5 C 17,2 C 0,0 km/h (0 Bft)
23/07/2019 07:24 17,1 C 15,6 C 20,6 C 18,9 C 17,8 C 90 % 15 lf 13 lf 200 cb 200 cb 83 cb 1020,5 hPa 0,0 mm 0,0 km/h (0 Bft) N-NO 346 0 min 0,000 mm 0,0 UV-I 37 W/m 15,4 C 17,1 C 0,0 km/h (0 Bft)
23/07/2019 07:22 17,1 C 15,6 C 20,6 C 18,9 C 17,8 C 91 % 15 lf 14 lf 200 cb 200 cb 83 cb 1020,5 hPa 0,0 mm 0,0 km/h (0 Bft) N-NO 346 0 min 0,000 mm 0,0 UV-I 37 W/m 15,6 C 17,1 C 0,0 km/h (0 Bft)
23/07/2019 07:20 16,9 C 15,6 C 20,6 C 18,9 C 17,8 C 91 % 15 lf 14 lf 200 cb 200 cb 83 cb 1020,5 hPa 0,0 mm 0,0 km/h (0 Bft) N-NO 346 0 min 0,000 mm 0,0 UV-I 35 W/m 15,4 C 16,9 C 0,0 km/h (0 Bft)
23/07/2019 07:18 16,9 C 15,6 C 20,6 C 18,9 C 17,8 C 91 % 15 lf 14 lf 200 cb 200 cb 83 cb 1020,5 hPa 0,0 mm 0,0 km/h (0 Bft) N-NO 346 0 min 0,000 mm 0,0 UV-I 35 W/m 15,4 C 16,9 C 0,0 km/h (0 Bft)
23/07/2019 07:16 16,8 C 15,6 C 20,6 C 18,9 C 17,8 C 91 % 15 lf 14 lf 200 cb 200 cb 83 cb 1020,5 hPa 0,0 mm 0,0 km/h (0 Bft) N-NO 346 0 min 0,000 mm 0,0 UV-I 35 W/m 15,3 C 16,8 C 0,0 km/h (0 Bft)
23/07/2019 07:14 16,8 C 15,6 C 20,6 C 18,9 C 17,8 C 91 % 15 lf 14 lf 200 cb 200 cb 83 cb 1020,5 hPa 0,0 mm 0,0 km/h (0 Bft) N-NO 346 0 min 0,000 mm 0,0 UV-I 35 W/m 15,3 C 16,8 C 0,0 km/h (0 Bft)
23/07/2019 07:12 16,8 C 15,6 C 20,6 C 18,9 C 17,8 C 91 % 15 lf 14 lf 200 cb 200 cb 83 cb 1020,6 hPa 0,0 mm 0,0 km/h (0 Bft) N-NO 346 0 min 0,000 mm 0,0 UV-I 35 W/m 15,3 C 16,8 C 0,0 km/h (0 Bft)
23/07/2019 07:10 16,8 C 15,0 C 20,6 C 18,9 C 17,8 C 91 % 15 lf 15 lf 200 cb 200 cb 83 cb 1020,6 hPa 0,0 mm 0,0 km/h (0 Bft) N-NO 346 0 min 0,000 mm 0,0 UV-I 33 W/m 15,3 C 16,8 C 0,0 km/h (0 Bft)
23/07/2019 07:08 16,7 C 15,0 C 20,6 C 18,9 C 17,8 C 91 % 15 lf 15 lf 200 cb 200 cb 83 cb 1020,6 hPa 0,0 mm 0,0 km/h (0 Bft) N-NO 346 0 min 0,000 mm 0,0 UV-I 33 W/m 15,2 C 16,7 C 0,0 km/h (0 Bft)
23/07/2019 07:06 16,6 C 15,0 C 20,6 C 18,9 C 17,8 C 91 % 15 lf 15 lf 200 cb 200 cb 83 cb 1020,6 hPa 0,0 mm 0,0 km/h (0 Bft) N-NO 346 0 min 0,000 mm 0,0 UV-I 32 W/m 15,1 C 16,6 C 0,0 km/h (0 Bft)
23/07/2019 07:04 16,6 C 15,0 C 20,6 C 18,9 C 17,8 C 92 % 15 lf 15 lf 200 cb 200 cb 83 cb 1020,6 hPa 0,0 mm 0,0 km/h (0 Bft) N-NO 346 0 min 0,000 mm 0,0 UV-I 32 W/m 15,3 C 16,6 C 0,0 km/h (0 Bft)
23/07/2019 07:02 16,5 C 15,0 C 20,6 C 18,9 C 17,8 C 92 % 15 lf 15 lf 200 cb 200 cb 83 cb 1020,6 hPa 0,0 mm 0,0 km/h (0 Bft) N-NO 346 0 min 0,000 mm 0,0 UV-I 32 W/m 15,2 C 16,5 C 0,0 km/h (0 Bft)
23/07/2019 07:00 16,4 C 15,0 C 20,6 C 18,9 C 17,8 C 92 % 15 lf 15 lf 200 cb 200 cb 83 cb 1020,6 hPa 0,0 mm 0,0 km/h (0 Bft) N-NO 346 0 min 0,000 mm 0,0 UV-I 30 W/m 15,1 C 16,4 C 0,0 km/h (0 Bft)
23/07/2019 06:58 16,3 C 15,0 C 20,6 C 18,9 C 17,8 C 91 % 15 lf 15 lf 200 cb 200 cb 83 cb 1020,6 hPa 0,0 mm 0,0 km/h (0 Bft) N-NO 346 0 min 0,000 mm 0,0 UV-I 30 W/m 14,8 C 16,3 C 0,0 km/h (0 Bft)
23/07/2019 06:56 16,3 C 15,0 C 20,6 C 18,9 C 17,8 C 91 % 15 lf 15 lf 200 cb 200 cb 83 cb 1020,6 hPa 0,0 mm 0,0 km/h (0 Bft) N-NO 346 0 min 0,000 mm 0,0 UV-I 28 W/m 14,8 C 16,3 C 0,0 km/h (0 Bft)
23/07/2019 06:54 16,3 C 15,0 C 20,6 C 18,9 C 17,8 C 91 % 15 lf 15 lf 200 cb 200 cb 83 cb 1020,6 hPa 0,0 mm 0,0 km/h (0 Bft) N-NO 346 0 min 0,000 mm 0,0 UV-I 28 W/m 14,8 C 16,3 C 0,0 km/h (0 Bft)
23/07/2019 06:52 16,3 C 15,0 C 20,6 C 18,9 C 17,8 C 91 % 15 lf 15 lf 200 cb 200 cb 83 cb 1020,6 hPa 0,0 mm 0,0 km/h (0 Bft) N-NO 346 0 min 0,000 mm 0,0 UV-I 26 W/m 14,8 C 16,3 C 0,0 km/h (0 Bft)
23/07/2019 06:50 16,3 C 15,0 C 20,6 C 18,9 C 17,8 C 91 % 15 lf 15 lf 200 cb 200 cb 83 cb 1020,5 hPa 0,0 mm 0,0 km/h (0 Bft) N-NO 346 0 min 0,000 mm 0,0 UV-I 26 W/m 14,8 C 16,3 C 0,0 km/h (0 Bft)
23/07/2019 06:48 16,2 C 15,0 C 20,6 C 18,9 C 17,8 C 91 % 15 lf 15 lf 200 cb 200 cb 83 cb 1020,6 hPa 0,0 mm 0,0 km/h (0 Bft) N-NO 346 0 min 0,000 mm 0,0 UV-I 25 W/m 14,7 C 16,2 C 0,0 km/h (0 Bft)
23/07/2019 06:46 16,2 C 15,0 C 20,6 C 18,9 C 17,8 C 91 % 15 lf 15 lf 200 cb 200 cb 83 cb 1020,6 hPa 0,0 mm 0,0 km/h (0 Bft) N-NO 346 0 min 0,000 mm 0,0 UV-I 23 W/m 14,7 C 16,2 C 0,0 km/h (0 Bft)
23/07/2019 06:44 16,2 C 15,0 C 20,6 C 18,9 C 17,8 C 92 % 15 lf 15 lf 200 cb 200 cb 83 cb 1020,6 hPa 0,0 mm 0,0 km/h (0 Bft) N-NO 346 0 min 0,000 mm 0,0 UV-I 23 W/m 14,9 C 16,2 C 0,0 km/h (0 Bft)
23/07/2019 06:42 16,2 C 15,0 C 20,6 C 18,9 C 17,8 C 92 % 15 lf 15 lf 200 cb 200 cb 83 cb 1020,6 hPa 0,0 mm 0,0 km/h (0 Bft) N-NO 346 0 min 0,000 mm 0,0 UV-I 21 W/m 14,9 C 16,2 C 0,0 km/h (0 Bft)
23/07/2019 06:40 16,1 C 15,0 C 20,6 C 18,9 C 17,8 C 92 % 15 lf 15 lf 200 cb 200 cb 83 cb 1020,6 hPa 0,0 mm 0,0 km/h (0 Bft) N-NO 346 0 min 0,000 mm 0,0 UV-I 21 W/m 14,8 C 16,1 C 0,0 km/h (0 Bft)
23/07/2019 06:38 16,1 C 15,0 C 20,6 C 18,9 C 17,8 C 92 % 15 lf 15 lf 200 cb 200 cb 83 cb 1020,6 hPa 0,0 mm 0,0 km/h (0 Bft) N-NO 346 0 min 0,000 mm 0,0 UV-I 19 W/m 14,8 C 16,1 C 0,0 km/h (0 Bft)
23/07/2019 06:36 16,0 C 15,0 C 20,6 C 18,9 C 17,8 C 92 % 15 lf 15 lf 200 cb 200 cb 83 cb 1020,7 hPa 0,0 mm 0,0 km/h (0 Bft) N-NO 346 0 min 0,000 mm 0,0 UV-I 19 W/m 14,7 C 16,0 C 0,0 km/h (0 Bft)
23/07/2019 06:34 15,9 C 15,0 C 20,6 C 18,9 C 17,8 C 92 % 15 lf 15 lf 200 cb 200 cb 83 cb 1020,6 hPa 0,0 mm 0,0 km/h (0 Bft) N-NO 346 0 min 0,000 mm 0,0 UV-I 18 W/m 14,6 C 15,9 C 0,0 km/h (0 Bft)
23/07/2019 06:32 15,8 C 15,0 C 20,6 C 18,9 C 17,8 C 92 % 15 lf 15 lf 200 cb 200 cb 83 cb 1020,6 hPa 0,0 mm 0,0 km/h (0 Bft) N-NO 346 0 min 0,000 mm 0,0 UV-I 18 W/m 14,5 C 15,8 C 0,0 km/h (0 Bft)
23/07/2019 06:30 15,8 C 15,0 C 20,6 C 18,9 C 17,8 C 92 % 15 lf 15 lf 200 cb 200 cb 83 cb 1020,6 hPa 0,0 mm 0,0 km/h (0 Bft) N-NO 346 0 min 0,000 mm 0,0 UV-I 16 W/m 14,5 C 15,8 C 0,0 km/h (0 Bft)
23/07/2019 06:28 15,9 C 15,0 C 20,6 C 18,9 C 17,8 C 92 % 15 lf 15 lf 200 cb 200 cb 83 cb 1020,6 hPa 0,0 mm 0,0 km/h (0 Bft) N-NO 346 0 min 0,000 mm 0,0 UV-I 14 W/m 14,6 C 15,9 C 0,0 km/h (0 Bft)
23/07/2019 06:26 15,9 C 15,0 C 20,6 C 18,9 C 17,8 C 92 % 15 lf 15 lf 200 cb 200 cb 83 cb 1020,6 hPa 0,0 mm 0,0 km/h (0 Bft) N-NO 346 0 min 0,000 mm 0,0 UV-I 14 W/m 14,6 C 15,9 C 0,0 km/h (0 Bft)
23/07/2019 06:24 15,9 C 15,0 C 20,6 C 18,9 C 17,8 C 92 % 15 lf 15 lf 200 cb 200 cb 83 cb 1020,7 hPa 0,0 mm 0,0 km/h (0 Bft) N-NO 346 0 min 0,000 mm 0,0 UV-I 14 W/m 14,6 C 15,9 C 0,0 km/h (0 Bft)
23/07/2019 06:22 15,9 C 15,0 C 20,6 C 18,9 C 17,8 C 92 % 15 lf 15 lf 200 cb 200 cb 83 cb 1020,6 hPa 0,0 mm 0,0 km/h (0 Bft) N-NO 346 0 min 0,000 mm 0,0 UV-I 12 W/m 14,6 C 15,9 C 0,0 km/h (0 Bft)
23/07/2019 06:20 15,8 C 15,0 C 20,6 C 18,9 C 17,8 C 92 % 15 lf 15 lf 200 cb 200 cb 83 cb 1020,6 hPa 0,0 mm 0,0 km/h (0 Bft) N-NO 346 0 min 0,000 mm 0,0 UV-I 12 W/m 14,5 C 15,8 C 0,0 km/h (0 Bft)
23/07/2019 06:18 15,8 C 15,0 C 20,6 C 18,9 C 17,8 C 92 % 15 lf 15 lf 200 cb 200 cb 83 cb 1020,6 hPa 0,0 mm 0,0 km/h (0 Bft) N-NO 346 0 min 0,000 mm 0,0 UV-I 11 W/m 14,5 C 15,8 C 0,0 km/h (0 Bft)
23/07/2019 06:16 15,8 C 14,4 C 20,6 C 18,9 C 17,8 C 92 % 15 lf 15 lf 200 cb 200 cb 83 cb 1020,7 hPa 0,0 mm 0,0 km/h (0 Bft) N-NO 346 2 min 0,000 mm 0,0 UV-I 11 W/m 14,5 C 15,8 C 0,0 km/h (0 Bft)
23/07/2019 06:14 15,8 C 14,4 C 20,6 C 18,9 C 17,8 C 92 % 15 lf 15 lf 200 cb 200 cb 83 cb 1020,6 hPa 0,0 mm 0,0 km/h (0 Bft) N-NO 346 0 min 0,000 mm 0,0 UV-I 9 W/m 14,5 C 15,8 C 0,0 km/h (0 Bft)
23/07/2019 06:12 15,8 C 14,4 C 20,6 C 18,9 C 17,8 C 92 % 15 lf 15 lf 200 cb 200 cb 83 cb 1020,7 hPa 0,0 mm 0,0 km/h (0 Bft) N-NO 346 0 min 0,000 mm 0,0 UV-I 9 W/m 14,5 C 15,8 C 0,0 km/h (0 Bft)
23/07/2019 06:10 15,9 C 14,4 C 20,6 C 18,9 C 17,8 C 92 % 15 lf 14 lf 200 cb 200 cb 83 cb 1020,7 hPa 0,0 mm 0,0 km/h (0 Bft) N-NO 346 0 min 0,000 mm 0,0 UV-I 7 W/m 14,6 C 15,9 C 0,0 km/h (0 Bft)
23/07/2019 06:08 15,9 C 14,4 C 20,6 C 18,9 C 17,8 C 92 % 15 lf 14 lf 200 cb 200 cb 83 cb 1020,6 hPa 0,0 mm 0,0 km/h (0 Bft) N-NO 346 0 min 0,000 mm 0,0 UV-I 7 W/m 14,6 C 15,9 C 0,0 km/h (0 Bft)
23/07/2019 06:06 15,9 C 14,4 C 20,6 C 18,9 C 17,8 C 92 % 15 lf 14 lf 200 cb 200 cb 83 cb 1020,7 hPa 0,0 mm 0,0 km/h (0 Bft) N-NO 346 0 min 0,000 mm 0,0 UV-I 5 W/m 14,6 C 15,9 C 0,0 km/h (0 Bft)
23/07/2019 06:04 16,0 C 14,4 C 20,6 C 18,9 C 17,8 C 92 % 15 lf 14 lf 200 cb 200 cb 83 cb 1020,7 hPa 0,0 mm 0,0 km/h (0 Bft) N-NO 346 0 min 0,000 mm 0,0 UV-I 5 W/m 14,7 C 16,0 C 0,0 km/h (0 Bft)
23/07/2019 06:02 16,0 C 14,4 C 20,6 C 18,9 C 17,8 C 92 % 15 lf 14 lf 200 cb 200 cb 83 cb 1020,8 hPa 0,0 mm 0,0 km/h (0 Bft) N-NO 346 0 min 0,000 mm 0,0 UV-I 5 W/m 14,7 C 16,0 C 0,0 km/h (0 Bft)
23/07/2019 06:00 16,0 C 14,4 C 20,6 C 18,9 C 17,8 C 91 % 15 lf 14 lf 200 cb 200 cb 83 cb 1020,8 hPa 0,0 mm 0,0 km/h (0 Bft) N-NO 346 0 min 0,000 mm 0,0 UV-I 0 W/m 14,5 C 16,0 C 0,0 km/h (0 Bft)
23/07/2019 05:58 16,0 C 14,4 C 20,6 C 18,9 C 17,8 C 91 % 15 lf 14 lf 200 cb 200 cb 83 cb 1020,7 hPa 0,0 mm 0,0 km/h (0 Bft) N-NO 346 0 min 0,000 mm 0,0 UV-I 0 W/m 14,5 C 16,0 C 0,0 km/h (0 Bft)
23/07/2019 05:56 16,0 C 14,4 C 20,6 C 18,9 C 17,8 C 91 % 15 lf 14 lf 200 cb 200 cb 83 cb 1020,8 hPa 0,0 mm 0,0 km/h (0 Bft) N-NO 346 0 min 0,000 mm 0,0 UV-I 0 W/m 14,5 C 16,0 C 0,0 km/h (0 Bft)
23/07/2019 05:54 16,0 C 14,4 C 20,6 C 18,9 C 17,8 C 91 % 15 lf 13 lf 200 cb 200 cb 83 cb 1020,7 hPa 0,0 mm 0,0 km/h (0 Bft) N-NO 346 0 min 0,000 mm 0,0 UV-I 0 W/m 14,5 C 16,0 C 0,0 km/h (0 Bft)
23/07/2019 05:52 16,0 C 14,4 C 20,6 C 18,9 C 17,8 C 91 % 15 lf 13 lf 200 cb 200 cb 83 cb 1020,8 hPa 0,0 mm 0,0 km/h (0 Bft) N-NO 346 0 min 0,000 mm 0,0 UV-I 0 W/m 14,5 C 16,0 C 0,0 km/h (0 Bft)
23/07/2019 05:50 16,0 C 14,4 C 20,6 C 18,9 C 17,8 C 91 % 15 lf 13 lf 200 cb 200 cb 83 cb 1020,8 hPa 0,0 mm 0,0 km/h (0 Bft) N-NO 346 0 min 0,000 mm 0,0 UV-I 0 W/m 14,5 C 16,0 C 0,0 km/h (0 Bft)
23/07/2019 05:48 16,0 C 14,4 C 20,6 C 18,9 C 17,8 C 91 % 15 lf 13 lf 200 cb 200 cb 83 cb 1020,7 hPa 0,0 mm 0,0 km/h (0 Bft) N-NO 346 0 min 0,000 mm 0,0 UV-I 0 W/m 14,5 C 16,0 C 0,0 km/h (0 Bft)
23/07/2019 05:46 16,0 C 14,4 C 20,6 C 18,9 C 17,8 C 91 % 14 lf 13 lf 200 cb 200 cb 83 cb 1020,8 hPa 0,0 mm 0,0 km/h (0 Bft) N-NO 346 0 min 0,000 mm 0,0 UV-I 0 W/m 14,5 C 16,0 C 0,0 km/h (0 Bft)
23/07/2019 05:44 16,0 C 14,4 C 20,6 C 18,9 C 17,8 C 91 % 14 lf 13 lf 200 cb 200 cb 83 cb 1020,8 hPa 0,0 mm 0,0 km/h (0 Bft) N-NO 346 0 min 0,000 mm 0,0 UV-I 0 W/m 14,5 C 16,0 C 0,0 km/h (0 Bft)
23/07/2019 05:42 16,0 C 15,0 C 20,6 C 18,9 C 17,8 C 91 % 14 lf 12 lf 200 cb 200 cb 83 cb 1020,9 hPa 0,0 mm 0,0 km/h (0 Bft) N-NO 346 0 min 0,000 mm 0,0 UV-I 0 W/m 14,5 C 16,0 C 0,0 km/h (0 Bft)
23/07/2019 05:40 16,0 C 15,0 C 20,6 C 18,9 C 17,8 C 91 % 14 lf 12 lf 200 cb 200 cb 83 cb 1020,8 hPa 0,0 mm 0,0 km/h (0 Bft) N-NO 346 0 min 0,000 mm 0,0 UV-I 0 W/m 14,5 C 16,0 C 0,0 km/h (0 Bft)
23/07/2019 05:38 16,1 C 15,0 C 20,6 C 18,9 C 17,8 C 91 % 14 lf 12 lf 200 cb 200 cb 83 cb 1020,8 hPa 0,0 mm 0,0 km/h (0 Bft) N-NO 346 0 min 0,000 mm 0,0 UV-I 0 W/m 14,6 C 16,1 C 0,0 km/h (0 Bft)
23/07/2019 05:36 16,0 C 15,0 C 20,6 C 18,9 C 17,8 C 91 % 14 lf 12 lf 200 cb 200 cb 83 cb 1020,9 hPa 0,0 mm 0,0 km/h (0 Bft) N-NO 346 0 min 0,000 mm 0,0 UV-I 0 W/m 14,5 C 16,0 C 0,0 km/h (0 Bft)
23/07/2019 05:34 16,1 C 15,0 C 20,6 C 18,9 C 17,8 C 91 % 14 lf 12 lf 200 cb 200 cb 83 cb 1020,9 hPa 0,0 mm 0,0 km/h (0 Bft) N-NO 346 0 min 0,000 mm 0,0 UV-I 0 W/m 14,6 C 16,1 C 0,0 km/h (0 Bft)
23/07/2019 05:32 16,1 C 15,0 C 20,6 C 18,9 C 17,8 C 91 % 14 lf 12 lf 200 cb 200 cb 83 cb 1020,9 hPa 0,0 mm 0,0 km/h (0 Bft) N-NO 346 0 min 0,000 mm 0,0 UV-I 0 W/m 14,6 C 16,1 C 0,0 km/h (0 Bft)
23/07/2019 05:30 16,1 C 15,0 C 20,6 C 18,9 C 17,8 C 90 % 14 lf 12 lf 200 cb 200 cb 83 cb 1020,9 hPa 0,0 mm 0,0 km/h (0 Bft) N-NO 346 0 min 0,000 mm 0,0 UV-I 0 W/m 14,5 C 16,1 C 0,0 km/h (0 Bft)
23/07/2019 05:28 16,2 C 15,0 C 20,6 C 18,9 C 17,8 C 90 % 14 lf 12 lf 200 cb 200 cb 83 cb 1020,9 hPa 0,0 mm 0,0 km/h (0 Bft) N-NO 346 0 min 0,000 mm 0,0 UV-I 0 W/m 14,6 C 16,2 C 0,0 km/h (0 Bft)
23/07/2019 05:26 16,2 C 15,0 C 20,6 C 18,9 C 17,8 C 90 % 14 lf 12 lf 200 cb 200 cb 83 cb 1020,9 hPa 0,0 mm 0,0 km/h (0 Bft) N-NO 346 0 min 0,000 mm 0,0 UV-I 0 W/m 14,6 C 16,2 C 0,0 km/h (0 Bft)
23/07/2019 05:24 16,2 C 15,0 C 20,6 C 18,9 C 17,8 C 90 % 14 lf 11 lf 200 cb 200 cb 83 cb 1020,9 hPa 0,0 mm 0,0 km/h (0 Bft) N-NO 346 0 min 0,000 mm 0,0 UV-I 0 W/m 14,6 C 16,2 C 0,0 km/h (0 Bft)
23/07/2019 05:22 16,2 C 15,0 C 20,6 C 18,9 C 17,8 C 91 % 14 lf 11 lf 200 cb 200 cb 83 cb 1020,9 hPa 0,0 mm 0,0 km/h (0 Bft) N-NO 346 0 min 0,000 mm 0,0 UV-I 0 W/m 14,7 C 16,2 C 0,0 km/h (0 Bft)
23/07/2019 05:20 16,2 C 15,0 C 20,6 C 18,9 C 17,8 C 91 % 13 lf 11 lf 200 cb 200 cb 83 cb 1020,9 hPa 0,0 mm 0,0 km/h (0 Bft) N-NO 345 0 min 0,000 mm 0,0 UV-I 0 W/m 14,7 C 16,2 C 0,0 km/h (0 Bft)
23/07/2019 05:18 16,2 C 15,0 C 20,6 C 18,9 C 17,8 C 90 % 13 lf 11 lf 200 cb 200 cb 83 cb 1020,9 hPa 0,0 mm 0,0 km/h (0 Bft) N-NO 346 0 min 0,000 mm 0,0 UV-I 0 W/m 14,6 C 16,2 C 0,0 km/h (0 Bft)
23/07/2019 05:16 16,2 C 15,0 C 20,6 C 18,9 C 17,8 C 91 % 13 lf 11 lf 200 cb 200 cb 83 cb 1020,9 hPa 0,0 mm 0,0 km/h (0 Bft) N-NO 346 0 min 0,000 mm 0,0 UV-I 0 W/m 14,7 C 16,2 C 0,0 km/h (0 Bft)
23/07/2019 05:14 16,2 C 15,0 C 20,6 C 18,9 C 17,8 C 90 % 13 lf 11 lf 200 cb 200 cb 83 cb 1020,9 hPa 0,0 mm 0,0 km/h (0 Bft) N-NO 346 0 min 0,000 mm 0,0 UV-I 0 W/m 14,6 C 16,2 C 0,0 km/h (0 Bft)
23/07/2019 05:12 16,2 C 15,0 C 20,6 C 18,9 C 17,8 C 91 % 13 lf 10 lf 200 cb 200 cb 83 cb 1020,9 hPa 0,0 mm 0,0 km/h (0 Bft) N-NO 346 0 min 0,000 mm 0,0 UV-I 0 W/m 14,7 C 16,2 C 0,0 km/h (0 Bft)
23/07/2019 05:10 16,2 C 15,0 C 20,6 C 18,9 C 17,8 C 91 % 13 lf 10 lf 200 cb 200 cb 83 cb 1020,9 hPa 0,0 mm 0,0 km/h (0 Bft) N-NO 346 0 min 0,000 mm 0,0 UV-I 0 W/m 14,7 C 16,2 C 0,0 km/h (0 Bft)
23/07/2019 05:08 16,2 C 15,0 C 20,6 C 18,9 C 17,8 C 91 % 13 lf 10 lf 200 cb 200 cb 83 cb 1020,9 hPa 0,0 mm 0,0 km/h (0 Bft) N-NO 346 0 min 0,000 mm 0,0 UV-I 0 W/m 14,7 C 16,2 C 0,0 km/h (0 Bft)
23/07/2019 05:06 16,2 C 15,0 C 20,6 C 18,9 C 17,8 C 91 % 13 lf 10 lf 200 cb 200 cb 83 cb 1020,9 hPa 0,0 mm 0,0 km/h (0 Bft) N-NO 346 0 min 0,000 mm 0,0 UV-I 0 W/m 14,7 C 16,2 C 0,0 km/h (0 Bft)
23/07/2019 05:04 16,2 C 15,0 C 20,6 C 18,9 C 17,8 C 91 % 13 lf 10 lf 200 cb 200 cb 83 cb 1020,9 hPa 0,0 mm 0,0 km/h (0 Bft) N-NO 346 0 min 0,000 mm 0,0 UV-I 0 W/m 14,7 C 16,2 C 0,0 km/h (0 Bft)
23/07/2019 05:02 16,2 C 15,0 C 20,6 C 18,9 C 17,8 C 91 % 12 lf 9 lf 200 cb 200 cb 83 cb 1020,9 hPa 0,0 mm 0,0 km/h (0 Bft) N-NO 346 0 min 0,000 mm 0,0 UV-I 0 W/m 14,7 C 16,2 C 0,0 km/h (0 Bft)
23/07/2019 05:00 16,2 C 15,0 C 20,6 C 18,9 C 17,8 C 91 % 12 lf 9 lf 200 cb 200 cb 83 cb 1020,9 hPa 0,0 mm 0,0 km/h (0 Bft) N-NO 346 0 min 0,000 mm 0,0 UV-I 0 W/m 14,7 C 16,2 C 0,0 km/h (0 Bft)
23/07/2019 04:58 16,2 C 15,0 C 20,6 C 18,9 C 17,8 C 91 % 12 lf 9 lf 200 cb 200 cb 83 cb 1020,9 hPa 0,0 mm 0,0 km/h (0 Bft) N-NO 346 0 min 0,000 mm 0,0 UV-I 0 W/m 14,7 C 16,2 C 0,0 km/h (0 Bft)
23/07/2019 04:56 16,2 C 15,0 C 20,6 C 18,9 C 17,8 C 91 % 12 lf 9 lf 200 cb 200 cb 83 cb 1021,0 hPa 0,0 mm 0,0 km/h (0 Bft) N-NO 346 0 min 0,000 mm 0,0 UV-I 0 W/m 14,7 C 16,2 C 0,0 km/h (0 Bft)
23/07/2019 04:54 16,2 C 15,0 C 20,6 C 18,9 C 17,8 C 91 % 12 lf 9 lf 200 cb 200 cb 83 cb 1021,0 hPa 0,0 mm 0,0 km/h (0 Bft) N-NO 346 0 min 0,000 mm 0,0 UV-I 0 W/m 14,7 C 16,2 C 0,0 km/h (0 Bft)
23/07/2019 04:52 16,2 C 15,0 C 20,6 C 18,9 C 17,8 C 90 % 12 lf 9 lf 200 cb 200 cb 83 cb 1021,0 hPa 0,0 mm 0,0 km/h (0 Bft) N-NO 346 0 min 0,000 mm 0,0 UV-I 0 W/m 14,6 C 16,2 C 0,0 km/h (0 Bft)
23/07/2019 04:50 16,2 C 15,0 C 20,6 C 18,9 C 17,8 C 90 % 12 lf 8 lf 200 cb 200 cb 83 cb 1021,0 hPa 0,0 mm 0,0 km/h (0 Bft) N-NO 346 0 min 0,000 mm 0,0 UV-I 0 W/m 14,6 C 16,2 C 0,0 km/h (0 Bft)
23/07/2019 04:48 16,2 C 15,0 C 20,6 C 18,9 C 17,8 C 90 % 12 lf 8 lf 200 cb 200 cb 83 cb 1021,0 hPa 0,0 mm 0,0 km/h (0 Bft) N-NO 346 0 min 0,000 mm 0,0 UV-I 0 W/m 14,6 C 16,2 C 0,0 km/h (0 Bft)
23/07/2019 04:46 16,2 C 15,0 C 20,6 C 18,9 C 17,8 C 90 % 12 lf 8 lf 200 cb 200 cb 83 cb 1021,0 hPa 0,0 mm 0,0 km/h (0 Bft) N-NO 346 0 min 0,000 mm 0,0 UV-I 0 W/m 14,6 C 16,2 C 0,0 km/h (0 Bft)
23/07/2019 04:44 16,2 C 15,0 C 20,6 C 18,9 C 17,8 C 90 % 12 lf 8 lf 200 cb 200 cb 83 cb 1021,0 hPa 0,0 mm 0,0 km/h (0 Bft) N-NO 346 0 min 0,000 mm 0,0 UV-I 0 W/m 14,6 C 16,2 C 0,0 km/h (0 Bft)
23/07/2019 04:42 16,2 C 15,0 C 20,6 C 18,9 C 17,8 C 90 % 11 lf 7 lf 200 cb 200 cb 83 cb 1021,0 hPa 0,0 mm 0,0 km/h (0 Bft) N-NO 346 0 min 0,000 mm 0,0 UV-I 0 W/m 14,6 C 16,2 C 0,0 km/h (0 Bft)
23/07/2019 04:40 16,3 C 15,0 C 20,6 C 18,9 C 17,8 C 91 % 11 lf 7 lf 200 cb 200 cb 83 cb 1021,0 hPa 0,0 mm 0,0 km/h (0 Bft) N-NO 345 0 min 0,000 mm 0,0 UV-I 0 W/m 14,8 C 16,3 C 0,0 km/h (0 Bft)
23/07/2019 04:38 16,3 C 15,0 C 20,6 C 18,9 C 17,8 C 90 % 11 lf 6 lf 200 cb 200 cb 83 cb 1021,1 hPa 0,0 mm 0,0 km/h (0 Bft) N-NO 346 0 min 0,000 mm 0,0 UV-I 0 W/m 14,7 C 16,3 C 0,0 km/h (0 Bft)
23/07/2019 04:36 16,3 C 15,0 C 20,6 C 18,9 C 17,8 C 90 % 10 lf 6 lf 200 cb 200 cb 83 cb 1021,1 hPa 0,0 mm 0,0 km/h (0 Bft) N-NO 346 0 min 0,000 mm 0,0 UV-I 0 W/m 14,7 C 16,3 C 0,0 km/h (0 Bft)
23/07/2019 04:34 16,3 C 15,0 C 20,6 C 18,9 C 17,8 C 90 % 10 lf 5 lf 200 cb 200 cb 83 cb 1021,0 hPa 0,0 mm 0,0 km/h (0 Bft) N-NO 346 0 min 0,000 mm 0,0 UV-I 0 W/m 14,7 C 16,3 C 0,0 km/h (0 Bft)
23/07/2019 04:32 16,3 C 15,0 C 20,6 C 18,9 C 17,8 C 90 % 10 lf 5 lf 200 cb 200 cb 83 cb 1021,0 hPa 0,0 mm 0,0 km/h (0 Bft) N-NO 346 0 min 0,000 mm 0,0 UV-I 0 W/m 14,7 C 16,3 C 0,0 km/h (0 Bft)
23/07/2019 04:30 16,3 C 15,0 C 20,6 C 18,9 C 17,8 C 90 % 10 lf 4 lf 200 cb 200 cb 83 cb 1021,1 hPa 0,0 mm 0,0 km/h (0 Bft) N-NO 346 0 min 0,000 mm 0,0 UV-I 0 W/m 14,7 C 16,3 C 0,0 km/h (0 Bft)
23/07/2019 04:28 16,4 C 15,0 C 20,6 C 18,9 C 17,8 C 90 % 9 lf 4 lf 200 cb 200 cb 83 cb 1021,1 hPa 0,0 mm 0,0 km/h (0 Bft) N-NO 346 0 min 0,000 mm 0,0 UV-I 0 W/m 14,8 C 16,4 C 0,0 km/h (0 Bft)
23/07/2019 04:26 16,4 C 15,0 C 20,6 C 18,9 C 17,8 C 90 % 9 lf 4 lf 200 cb 200 cb 83 cb 1021,1 hPa 0,0 mm 0,0 km/h (0 Bft) N-NO 346 0 min 0,000 mm 0,0 UV-I 0 W/m 14,8 C 16,4 C 0,0 km/h (0 Bft)
23/07/2019 04:24 16,5 C 15,0 C 20,6 C 18,9 C 17,8 C 90 % 9 lf 4 lf 200 cb 200 cb 83 cb 1021,0 hPa 0,0 mm 0,0 km/h (0 Bft) N-NO 346 0 min 0,000 mm 0,0 UV-I 0 W/m 14,9 C 16,5 C 0,0 km/h (0 Bft)
23/07/2019 04:22 16,5 C 15,0 C 20,6 C 18,9 C 17,8 C 90 % 8 lf 4 lf 200 cb 200 cb 83 cb 1021,1 hPa 0,0 mm 0,0 km/h (0 Bft) N-NO 346 0 min 0,000 mm 0,0 UV-I 0 W/m 14,9 C 16,5 C 0,0 km/h (0 Bft)
23/07/2019 04:20 16,4 C 15,0 C 20,6 C 18,9 C 17,8 C 90 % 8 lf 4 lf 200 cb 200 cb 83 cb 1021,1 hPa 0,0 mm 0,0 km/h (0 Bft) N-NO 346 0 min 0,000 mm 0,0 UV-I 0 W/m 14,8 C 16,4 C 0,0 km/h (0 Bft)
23/07/2019 04:18 16,5 C 15,0 C 20,6 C 18,9 C 17,8 C 90 % 7 lf 4 lf 200 cb 200 cb 83 cb 1021,1 hPa 0,0 mm 0,0 km/h (0 Bft) N-NO 346 0 min 0,000 mm 0,0 UV-I 0 W/m 14,9 C 16,5 C 0,0 km/h (0 Bft)
23/07/2019 04:16 16,5 C 15,0 C 20,6 C 18,9 C 17,8 C 90 % 7 lf 4 lf 200 cb 200 cb 83 cb 1021,1 hPa 0,0 mm 0,0 km/h (0 Bft) N-NO 346 0 min 0,000 mm 0,0 UV-I 0 W/m 14,9 C 16,5 C 0,0 km/h (0 Bft)
23/07/2019 04:14 16,5 C 15,0 C 20,6 C 18,9 C 17,8 C 90 % 6 lf 4 lf 200 cb 200 cb 83 cb 1021,1 hPa 0,0 mm 0,0 km/h (0 Bft) N-NO 346 0 min 0,000 mm 0,0 UV-I 0 W/m 14,9 C 16,5 C 0,0 km/h (0 Bft)
23/07/2019 04:12 16,5 C 15,0 C 20,6 C 18,9 C 17,8 C 90 % 6 lf 3 lf 200 cb 200 cb 83 cb 1021,1 hPa 0,0 mm 0,0 km/h (0 Bft) N-NO 346 0 min 0,000 mm 0,0 UV-I 0 W/m 14,9 C 16,5 C 0,0 km/h (0 Bft)
23/07/2019 04:10 16,6 C 15,6 C 20,6 C 18,9 C 17,8 C 90 % 6 lf 3 lf 200 cb 200 cb 83 cb 1021,1 hPa 0,0 mm 0,0 km/h (0 Bft) N-NO 346 0 min 0,000 mm 0,0 UV-I 0 W/m 15,0 C 16,6 C 0,0 km/h (0 Bft)
23/07/2019 04:08 16,6 C 15,6 C 20,6 C 18,9 C 17,8 C 90 % 5 lf 3 lf 200 cb 200 cb 83 cb 1021,1 hPa 0,0 mm 0,0 km/h (0 Bft) N-NO 346 0 min 0,000 mm 0,0 UV-I 0 W/m 15,0 C 16,6 C 0,0 km/h (0 Bft)
23/07/2019 04:06 16,6 C 15,6 C 20,6 C 18,9 C 17,8 C 90 % 4 lf 3 lf 200 cb 200 cb 83 cb 1021,2 hPa 0,0 mm 0,0 km/h (0 Bft) N-NO 346 0 min 0,000 mm 0,0 UV-I 0 W/m 15,0 C 16,6 C 0,0 km/h (0 Bft)
23/07/2019 04:04 16,6 C 15,6 C 20,6 C 18,9 C 17,8 C 90 % 4 lf 3 lf 200 cb 200 cb 83 cb 1021,2 hPa 0,0 mm 0,0 km/h (0 Bft) N-NO 346 0 min 0,000 mm 0,0 UV-I 0 W/m 15,0 C 16,6 C 0,0 km/h (0 Bft)
23/07/2019 04:02 16,6 C 15,6 C 20,6 C 18,9 C 17,8 C 90 % 4 lf 3 lf 200 cb 200 cb 83 cb 1021,2 hPa 0,0 mm 0,0 km/h (0 Bft) N-NO 346 0 min 0,000 mm 0,0 UV-I 0 W/m 15,0 C 16,6 C 0,0 km/h (0 Bft)
23/07/2019 04:00 16,6 C 15,6 C 20,6 C 18,9 C 17,8 C 90 % 4 lf 3 lf 200 cb 200 cb 83 cb 1021,3 hPa 0,0 mm 0,0 km/h (0 Bft) N-NO 346 0 min 0,000 mm 0,0 UV-I 0 W/m 15,0 C 16,6 C 0,0 km/h (0 Bft)
23/07/2019 03:58 16,7 C 15,6 C 20,6 C 18,9 C 17,8 C 90 % 4 lf 3 lf 200 cb 200 cb 83 cb 1021,3 hPa 0,0 mm 0,0 km/h (0 Bft) N-NO 346 0 min 0,000 mm 0,0 UV-I 0 W/m 15,0 C 16,7 C 0,0 km/h (0 Bft)
23/07/2019 03:56 16,7 C 15,6 C 20,6 C 18,9 C 17,8 C 90 % 4 lf 3 lf 200 cb 200 cb 83 cb 1021,3 hPa 0,0 mm 0,0 km/h (0 Bft) N-NO 346 0 min 0,000 mm 0,0 UV-I 0 W/m 15,0 C 16,7 C 0,0 km/h (0 Bft)
23/07/2019 03:54 16,7 C 15,6 C 20,6 C 18,9 C 17,8 C 89 % 4 lf 3 lf 200 cb 200 cb 83 cb 1021,2 hPa 0,0 mm 0,0 km/h (0 Bft) N-NO 346 0 min 0,000 mm 0,0 UV-I 0 W/m 14,9 C 16,7 C 0,0 km/h (0 Bft)
23/07/2019 03:52 16,7 C 15,6 C 20,6 C 18,9 C 17,8 C 89 % 4 lf 3 lf 200 cb 200 cb 83 cb 1021,2 hPa 0,0 mm 0,0 km/h (0 Bft) N-NO 346 0 min 0,000 mm 0,0 UV-I 0 W/m 14,9 C 16,7 C 0,0 km/h (0 Bft)
23/07/2019 03:50 16,8 C 15,6 C 20,6 C 18,9 C 17,8 C 89 % 4 lf 3 lf 200 cb 200 cb 83 cb 1021,2 hPa 0,0 mm 0,0 km/h (0 Bft) N-NO 346 0 min 0,000 mm 0,0 UV-I 0 W/m 15,0 C 16,8 C 0,0 km/h (0 Bft)
23/07/2019 03:48 16,8 C 15,6 C 20,6 C 18,9 C 17,8 C 89 % 3 lf 3 lf 200 cb 200 cb 83 cb 1021,2 hPa 0,0 mm 0,0 km/h (0 Bft) N-NO 345 0 min 0,000 mm 0,0 UV-I 0 W/m 15,0 C 16,8 C 0,0 km/h (0 Bft)
23/07/2019 03:46 16,8 C 15,6 C 20,6 C 18,9 C 17,8 C 89 % 3 lf 3 lf 200 cb 200 cb 83 cb 1021,3 hPa 0,0 mm 0,0 km/h (0 Bft) N-NO 346 0 min 0,000 mm 0,0 UV-I 0 W/m 15,0 C 16,8 C 0,0 km/h (0 Bft)
23/07/2019 03:44 16,8 C 15,6 C 20,6 C 18,9 C 17,8 C 89 % 3 lf 3 lf 200 cb 200 cb 83 cb 1021,3 hPa 0,0 mm 0,0 km/h (0 Bft) N-NO 346 0 min 0,000 mm 0,0 UV-I 0 W/m 15,0 C 16,8 C 0,0 km/h (0 Bft)
23/07/2019 03:42 16,8 C 15,6 C 20,6 C 18,9 C 17,8 C 89 % 3 lf 3 lf 200 cb 200 cb 83 cb 1021,3 hPa 0,0 mm 0,0 km/h (0 Bft) N-NO 346 0 min 0,000 mm 0,0 UV-I 0 W/m 15,0 C 16,8 C 0,0 km/h (0 Bft)
23/07/2019 03:40 16,9 C 15,6 C 20,6 C 18,9 C 17,8 C 89 % 3 lf 3 lf 200 cb 200 cb 83 cb 1021,3 hPa 0,0 mm 0,0 km/h (0 Bft) N-NO 346 0 min 0,000 mm 0,0 UV-I 0 W/m 15,1 C 16,9 C 0,0 km/h (0 Bft)
23/07/2019 03:38 16,8 C 15,6 C 20,6 C 18,9 C 17,8 C 89 % 3 lf 2 lf 200 cb 200 cb 83 cb 1021,3 hPa 0,0 mm 0,0 km/h (0 Bft) N-NO 346 0 min 0,000 mm 0,0 UV-I 0 W/m 15,0 C 16,8 C 0,0 km/h (0 Bft)
23/07/2019 03:36 16,9 C 15,6 C 20,6 C 18,9 C 17,8 C 89 % 3 lf 2 lf 200 cb 200 cb 83 cb 1021,3 hPa 0,0 mm 0,0 km/h (0 Bft) N-NO 346 0 min 0,000 mm 0,0 UV-I 0 W/m 15,1 C 16,9 C 0,0 km/h (0 Bft)
23/07/2019 03:34 16,9 C 15,6 C 20,6 C 18,9 C 17,8 C 89 % 3 lf 2 lf 200 cb 200 cb 83 cb 1021,3 hPa 0,0 mm 0,0 km/h (0 Bft) N-NO 346 0 min 0,000 mm 0,0 UV-I 0 W/m 15,1 C 16,9 C 0,0 km/h (0 Bft)
23/07/2019 03:32 16,9 C 15,6 C 20,6 C 18,9 C 17,8 C 89 % 3 lf 2 lf 200 cb 200 cb 83 cb 1021,3 hPa 0,0 mm 0,0 km/h (0 Bft) N-NO 346 0 min 0,000 mm 0,0 UV-I 0 W/m 15,1 C 16,9 C 0,0 km/h (0 Bft)
23/07/2019 03:30 16,9 C 15,6 C 20,6 C 18,9 C 17,8 C 89 % 3 lf 2 lf 200 cb 200 cb 83 cb 1021,3 hPa 0,0 mm 0,0 km/h (0 Bft) N-NO 346 0 min 0,000 mm 0,0 UV-I 0 W/m 15,1 C 16,9 C 0,0 km/h (0 Bft)
23/07/2019 03:28 16,9 C 15,6 C 20,6 C 18,9 C 17,8 C 89 % 3 lf 2 lf 200 cb 200 cb 83 cb 1021,2 hPa 0,0 mm 0,0 km/h (0 Bft) N-NO 346 0 min 0,000 mm 0,0 UV-I 0 W/m 15,1 C 16,9 C 0,0 km/h (0 Bft)
23/07/2019 03:26 17,0 C 15,6 C 20,6 C 18,9 C 17,8 C 89 % 3 lf 2 lf 200 cb 200 cb 83 cb 1021,3 hPa 0,0 mm 0,0 km/h (0 Bft) N-NO 346 0 min 0,000 mm 0,0 UV-I 0 W/m 15,2 C 17,0 C 0,0 km/h (0 Bft)
23/07/2019 03:24 17,1 C 15,6 C 20,6 C 18,9 C 17,8 C 89 % 3 lf 2 lf 200 cb 200 cb 83 cb 1021,3 hPa 0,0 mm 0,0 km/h (0 Bft) N-NO 346 0 min 0,000 mm 0,0 UV-I 0 W/m 15,3 C 17,1 C 0,0 km/h (0 Bft)
23/07/2019 03:22 17,1 C 15,6 C 20,6 C 18,9 C 17,8 C 89 % 3 lf 2 lf 200 cb 200 cb 83 cb 1021,3 hPa 0,0 mm 0,0 km/h (0 Bft) N-NO 346 0 min 0,000 mm 0,0 UV-I 0 W/m 15,3 C 17,1 C 0,0 km/h (0 Bft)
23/07/2019 03:20 17,1 C 15,6 C 20,6 C 18,9 C 17,8 C 89 % 3 lf 2 lf 200 cb 200 cb 83 cb 1021,3 hPa 0,0 mm 0,0 km/h (0 Bft) N-NO 346 0 min 0,000 mm 0,0 UV-I 0 W/m 15,3 C 17,1 C 0,0 km/h (0 Bft)
23/07/2019 03:18 17,1 C 16,1 C 20,6 C 18,9 C 17,8 C 89 % 2 lf 2 lf 200 cb 200 cb 83 cb 1021,3 hPa 0,0 mm 0,0 km/h (0 Bft) N-NO 346 0 min 0,000 mm 0,0 UV-I 0 W/m 15,3 C 17,1 C 0,0 km/h (0 Bft)
23/07/2019 03:16 17,1 C 16,1 C 20,6 C 18,9 C 17,8 C 88 % 2 lf 2 lf 200 cb 200 cb 83 cb 1021,3 hPa 0,0 mm 0,0 km/h (0 Bft) N-NO 346 0 min 0,000 mm 0,0 UV-I 0 W/m 15,1 C 17,1 C 0,0 km/h (0 Bft)
23/07/2019 03:14 17,1 C 16,1 C 20,6 C 18,9 C 17,8 C 88 % 2 lf 2 lf 200 cb 200 cb 83 cb 1021,4 hPa 0,0 mm 0,0 km/h (0 Bft) N-NO 346 0 min 0,000 mm 0,0 UV-I 0 W/m 15,1 C 17,1 C 0,0 km/h (0 Bft)
23/07/2019 03:12 17,1 C 16,1 C 20,6 C 18,9 C 17,8 C 88 % 2 lf 2 lf 200 cb 200 cb 83 cb 1021,3 hPa 0,0 mm 0,0 km/h (0 Bft) N-NO 346 0 min 0,000 mm 0,0 UV-I 0 W/m 15,1 C 17,1 C 0,0 km/h (0 Bft)
23/07/2019 03:10 17,1 C 16,1 C 20,6 C 18,9 C 17,8 C 88 % 2 lf 2 lf 200 cb 200 cb 83 cb 1021,3 hPa 0,0 mm 0,0 km/h (0 Bft) N-NO 346 0 min 0,000 mm 0,0 UV-I 0 W/m 15,1 C 17,1 C 0,0 km/h (0 Bft)
23/07/2019 03:08 17,1 C 16,1 C 20,6 C 18,9 C 17,8 C 88 % 2 lf 1 lf 200 cb 200 cb 83 cb 1021,4 hPa 0,0 mm 0,0 km/h (0 Bft) N-NO 346 0 min 0,000 mm 0,0 UV-I 0 W/m 15,1 C 17,1 C 0,0 km/h (0 Bft)
23/07/2019 03:06 17,1 C 16,1 C 20,6 C 18,9 C 17,8 C 88 % 2 lf 1 lf 200 cb 200 cb 83 cb 1021,3 hPa 0,0 mm 0,0 km/h (0 Bft) N-NO 346 0 min 0,000 mm 0,0 UV-I 0 W/m 15,1 C 17,1 C 0,0 km/h (0 Bft)
23/07/2019 03:04 17,1 C 16,1 C 20,6 C 18,9 C 17,8 C 88 % 2 lf 1 lf 200 cb 200 cb 83 cb 1021,3 hPa 0,0 mm 0,0 km/h (0 Bft) N-NO 346 0 min 0,000 mm 0,0 UV-I 0 W/m 15,1 C 17,1 C 0,0 km/h (0 Bft)
23/07/2019 03:02 17,1 C 16,1 C 20,6 C 18,9 C 17,8 C 88 % 2 lf 1 lf 200 cb 200 cb 83 cb 1021,3 hPa 0,0 mm 0,0 km/h (0 Bft) N-NO 345 0 min 0,000 mm 0,0 UV-I 0 W/m 15,1 C 17,1 C 0,0 km/h (0 Bft)
23/07/2019 03:00 17,1 C 16,1 C 20,6 C 18,9 C 17,8 C 88 % 2 lf 1 lf 200 cb 200 cb 83 cb 1021,4 hPa 0,0 mm 0,0 km/h (0 Bft) N-NO 346 0 min 0,000 mm 0,0 UV-I 0 W/m 15,1 C 17,1 C 0,0 km/h (0 Bft)
23/07/2019 02:58 17,1 C 16,1 C 20,6 C 18,9 C 17,8 C 88 % 2 lf 1 lf 200 cb 200 cb 83 cb 1021,3 hPa 0,0 mm 0,0 km/h (0 Bft) N-NO 346 0 min 0,000 mm 0,0 UV-I 0 W/m 15,1 C 17,1 C 0,0 km/h (0 Bft)
23/07/2019 02:56 17,1 C 16,1 C 20,6 C 18,9 C 17,8 C 88 % 2 lf 1 lf 200 cb 200 cb 83 cb 1021,4 hPa 0,0 mm 0,0 km/h (0 Bft) N-NO 346 0 min 0,000 mm 0,0 UV-I 0 W/m 15,1 C 17,1 C 0,0 km/h (0 Bft)
23/07/2019 02:54 17,2 C 16,1 C 20,6 C 18,9 C 17,8 C 88 % 2 lf 1 lf 200 cb 200 cb 83 cb 1021,3 hPa 0,0 mm 0,0 km/h (0 Bft) N-NO 346 0 min 0,000 mm 0,0 UV-I 0 W/m 15,2 C 17,2 C 0,0 km/h (0 Bft)
23/07/2019 02:52 17,2 C 16,1 C 20,6 C 18,9 C 17,8 C 88 % 2 lf 1 lf 200 cb 200 cb 83 cb 1021,3 hPa 0,0 mm 0,0 km/h (0 Bft) N-NO 346 0 min 0,000 mm 0,0 UV-I 0 W/m 15,2 C 17,2 C 0,0 km/h (0 Bft)
23/07/2019 02:50 17,2 C 16,1 C 20,6 C 18,9 C 17,8 C 88 % 2 lf 1 lf 200 cb 200 cb 83 cb 1021,3 hPa 0,0 mm 0,0 km/h (0 Bft) N-NO 346 0 min 0,000 mm 0,0 UV-I 0 W/m 15,2 C 17,2 C 0,0 km/h (0 Bft)
23/07/2019 02:48 17,2 C 16,1 C 20,6 C 18,9 C 17,8 C 88 % 2 lf 1 lf 200 cb 200 cb 83 cb 1021,3 hPa 0,0 mm 0,0 km/h (0 Bft) N-NO 346 0 min 0,000 mm 0,0 UV-I 0 W/m 15,2 C 17,2 C 0,0 km/h (0 Bft)
23/07/2019 02:46 17,2 C 16,1 C 20,6 C 18,9 C 17,8 C 88 % 2 lf 1 lf 200 cb 200 cb 83 cb 1021,4 hPa 0,0 mm 0,0 km/h (0 Bft) N-NO 346 0 min 0,000 mm 0,0 UV-I 0 W/m 15,2 C 17,2 C 0,0 km/h (0 Bft)
23/07/2019 02:44 17,3 C 16,1 C 20,6 C 18,9 C 17,8 C 88 % 1 lf 1 lf 200 cb 200 cb 83 cb 1021,3 hPa 0,0 mm 0,0 km/h (0 Bft) N-NO 346 0 min 0,000 mm 0,0 UV-I 0 W/m 15,3 C 17,3 C 0,0 km/h (0 Bft)
23/07/2019 02:42 17,3 C 16,1 C 20,6 C 18,9 C 17,8 C 88 % 1 lf 1 lf 200 cb 200 cb 83 cb 1021,3 hPa 0,0 mm 0,0 km/h (0 Bft) N-NO 346 0 min 0,000 mm 0,0 UV-I 0 W/m 15,3 C 17,3 C 0,0 km/h (0 Bft)
23/07/2019 02:40 17,3 C 16,1 C 20,6 C 18,9 C 17,8 C 88 % 1 lf 1 lf 200 cb 200 cb 83 cb 1021,3 hPa 0,0 mm 0,0 km/h (0 Bft) N-NO 346 0 min 0,000 mm 0,0 UV-I 0 W/m 15,3 C 17,3 C 0,0 km/h (0 Bft)
23/07/2019 02:38 17,3 C 16,1 C 20,6 C 18,9 C 17,8 C 88 % 1 lf 1 lf 200 cb 200 cb 83 cb 1021,3 hPa 0,0 mm 0,0 km/h (0 Bft) N-NO 345 0 min 0,000 mm 0,0 UV-I 0 W/m 15,3 C 17,3 C 0,0 km/h (0 Bft)
23/07/2019 02:36 17,3 C 16,1 C 20,6 C 18,9 C 17,8 C 88 % 1 lf 1 lf 200 cb 200 cb 83 cb 1021,3 hPa 0,0 mm 0,0 km/h (0 Bft) N-NO 346 0 min 0,000 mm 0,0 UV-I 0 W/m 15,3 C 17,3 C 0,0 km/h (0 Bft)
23/07/2019 02:34 17,3 C 16,1 C 20,6 C 18,9 C 17,8 C 88 % 1 lf 1 lf 200 cb 200 cb 83 cb 1021,3 hPa 0,0 mm 0,0 km/h (0 Bft) N-NO 346 0 min 0,000 mm 0,0 UV-I 0 W/m 15,3 C 17,3 C 0,0 km/h (0 Bft)
23/07/2019 02:32 17,3 C 16,1 C 20,6 C 18,9 C 17,8 C 88 % 1 lf 1 lf 200 cb 200 cb 83 cb 1021,2 hPa 0,0 mm 0,0 km/h (0 Bft) N-NO 346 0 min 0,000 mm 0,0 UV-I 0 W/m 15,3 C 17,3 C 0,0 km/h (0 Bft)
23/07/2019 02:30 17,4 C 16,1 C 20,6 C 18,9 C 17,8 C 88 % 1 lf 1 lf 200 cb 200 cb 83 cb 1021,2 hPa 0,0 mm 0,0 km/h (0 Bft) N-NO 346 0 min 0,000 mm 0,0 UV-I 0 W/m 15,4 C 17,4 C 0,0 km/h (0 Bft)
23/07/2019 02:28 17,4 C 16,1 C 20,6 C 18,9 C 17,8 C 88 % 1 lf 1 lf 200 cb 200 cb 83 cb 1021,3 hPa 0,0 mm 0,0 km/h (0 Bft) N-NO 346 0 min 0,000 mm 0,0 UV-I 0 W/m 15,4 C 17,4 C 0,0 km/h (0 Bft)
23/07/2019 02:26 17,4 C 16,1 C 20,6 C 18,9 C 17,8 C 87 % 1 lf 1 lf 200 cb 200 cb 83 cb 1021,3 hPa 0,0 mm 0,0 km/h (0 Bft) N-NO 346 0 min 0,000 mm 0,0 UV-I 0 W/m 15,2 C 17,4 C 0,0 km/h (0 Bft)
23/07/2019 02:24 17,5 C 16,1 C 20,6 C 18,9 C 17,8 C 87 % 1 lf 1 lf 200 cb 200 cb 83 cb 1021,2 hPa 0,0 mm 0,0 km/h (0 Bft) N-NO 346 0 min 0,000 mm 0,0 UV-I 0 W/m 15,3 C 17,5 C 0,0 km/h (0 Bft)
23/07/2019 02:22 17,6 C 16,7 C 20,6 C 18,9 C 17,8 C 87 % 1 lf 1 lf 200 cb 200 cb 83 cb 1021,3 hPa 0,0 mm 0,0 km/h (0 Bft) N-NO 346 0 min 0,000 mm 0,0 UV-I 0 W/m 15,4 C 17,6 C 0,0 km/h (0 Bft)
23/07/2019 02:20 17,6 C 16,7 C 20,6 C 18,9 C 17,8 C 87 % 1 lf 1 lf 200 cb 200 cb 83 cb 1021,3 hPa 0,0 mm 0,0 km/h (0 Bft) N-NO 346 0 min 0,000 mm 0,0 UV-I 0 W/m 15,4 C 17,6 C 0,0 km/h (0 Bft)
23/07/2019 02:18 17,6 C 16,7 C 20,6 C 18,9 C 17,8 C 87 % 1 lf 1 lf 200 cb 200 cb 83 cb 1021,3 hPa 0,0 mm 0,0 km/h (0 Bft) N-NO 346 0 min 0,000 mm 0,0 UV-I 0 W/m 15,4 C 17,6 C 0,0 km/h (0 Bft)
23/07/2019 02:16 17,6 C 16,7 C 21,1 C 18,9 C 17,8 C 87 % 1 lf 1 lf 200 cb 200 cb 83 cb 1021,3 hPa 0,0 mm 0,0 km/h (0 Bft) N-NO 346 0 min 0,000 mm 0,0 UV-I 0 W/m 15,4 C 17,6 C 0,0 km/h (0 Bft)
23/07/2019 02:14 17,6 C 16,7 C 21,1 C 18,9 C 17,8 C 87 % 1 lf 1 lf 200 cb 200 cb 83 cb 1021,3 hPa 0,0 mm 0,0 km/h (0 Bft) N-NO 346 0 min 0,000 mm 0,0 UV-I 0 W/m 15,4 C 17,6 C 0,0 km/h (0 Bft)
23/07/2019 02:12 17,7 C 16,7 C 21,1 C 18,9 C 17,8 C 87 % 1 lf 1 lf 200 cb 200 cb 83 cb 1021,3 hPa 0,0 mm 0,0 km/h (0 Bft) N-NO 346 0 min 0,000 mm 0,0 UV-I 0 W/m 15,5 C 17,7 C 0,0 km/h (0 Bft)
23/07/2019 02:10 17,7 C 16,7 C 21,1 C 18,9 C 17,8 C 87 % 1 lf 1 lf 200 cb 200 cb 83 cb 1021,3 hPa 0,0 mm 0,0 km/h (0 Bft) N-NO 346 0 min 0,000 mm 0,0 UV-I 0 W/m 15,5 C 17,7 C 0,0 km/h (0 Bft)
23/07/2019 02:08 17,7 C 16,7 C 21,1 C 18,9 C 17,8 C 86 % 1 lf 1 lf 200 cb 200 cb 83 cb 1021,3 hPa 0,0 mm 0,0 km/h (0 Bft) N-NO 346 0 min 0,000 mm 0,0 UV-I 0 W/m 15,3 C 17,7 C 0,0 km/h (0 Bft)
23/07/2019 02:06 17,7 C 16,7 C 21,1 C 18,9 C 17,8 C 86 % 1 lf 1 lf 200 cb 200 cb 83 cb 1021,3 hPa 0,0 mm 0,0 km/h (0 Bft) N-NO 346 0 min 0,000 mm 0,0 UV-I 0 W/m 15,3 C 17,7 C 0,0 km/h (0 Bft)
23/07/2019 02:04 17,7 C 16,7 C 21,1 C 18,9 C 17,8 C 86 % 1 lf 1 lf 200 cb 200 cb 83 cb 1021,3 hPa 0,0 mm 0,0 km/h (0 Bft) N-NO 346 0 min 0,000 mm 0,0 UV-I 0 W/m 15,3 C 17,7 C 0,0 km/h (0 Bft)
23/07/2019 02:02 17,8 C 16,7 C 21,1 C 18,9 C 17,8 C 86 % 1 lf 1 lf 200 cb 200 cb 83 cb 1021,3 hPa 0,0 mm 0,0 km/h (0 Bft) N-NO 346 0 min 0,000 mm 0,0 UV-I 0 W/m 15,4 C 17,8 C 0,0 km/h (0 Bft)
23/07/2019 02:00 17,8 C 16,7 C 21,1 C 18,9 C 17,8 C 86 % 1 lf 1 lf 200 cb 200 cb 83 cb 1021,3 hPa 0,0 mm 0,0 km/h (0 Bft) N-NO 346 0 min 0,026 mm 0,0 UV-I 0 W/m 15,4 C 17,8 C 0,0 km/h (0 Bft)
23/07/2019 01:58 17,8 C 16,7 C 21,1 C 18,9 C 17,8 C 86 % 1 lf 1 lf 200 cb 200 cb 83 cb 1021,3 hPa 0,0 mm 0,0 km/h (0 Bft) N-NO 346 0 min 0,000 mm 0,0 UV-I 0 W/m 15,4 C 17,8 C 0,0 km/h (0 Bft)
23/07/2019 01:56 17,9 C 16,7 C 21,1 C 18,9 C 17,8 C 86 % 1 lf 1 lf 200 cb 200 cb 83 cb 1021,3 hPa 0,0 mm 0,0 km/h (0 Bft) N-NO 346 0 min 0,000 mm 0,0 UV-I 0 W/m 15,5 C 17,9 C 0,0 km/h (0 Bft)
23/07/2019 01:54 17,9 C 16,7 C 21,1 C 18,9 C 17,8 C 86 % 1 lf 1 lf 200 cb 200 cb 83 cb 1021,4 hPa 0,0 mm 0,0 km/h (0 Bft) N-NO 346 0 min 0,000 mm 0,0 UV-I 0 W/m 15,5 C 17,9 C 0,0 km/h (0 Bft)
23/07/2019 01:52 17,9 C 16,7 C 21,1 C 18,9 C 17,8 C 85 % 1 lf 1 lf 200 cb 200 cb 83 cb 1021,4 hPa 0,0 mm 0,0 km/h (0 Bft) N-NO 346 0 min 0,000 mm 0,0 UV-I 0 W/m 15,3 C 17,9 C 0,0 km/h (0 Bft)
23/07/2019 01:50 17,9 C 16,7 C 21,1 C 18,9 C 17,8 C 85 % 1 lf 1 lf 200 cb 200 cb 83 cb 1021,4 hPa 0,0 mm 0,0 km/h (0 Bft) N-NO 346 0 min 0,000 mm 0,0 UV-I 0 W/m 15,3 C 17,9 C 0,0 km/h (0 Bft)
23/07/2019 01:48 17,9 C 16,7 C 21,1 C 18,9 C 17,8 C 85 % 1 lf 1 lf 200 cb 200 cb 83 cb 1021,4 hPa 0,0 mm 0,0 km/h (0 Bft) N-NO 346 0 min 0,000 mm 0,0 UV-I 0 W/m 15,3 C 17,9 C 0,0 km/h (0 Bft)
23/07/2019 01:46 17,9 C 16,7 C 21,1 C 18,9 C 17,8 C 85 % 1 lf 1 lf 200 cb 200 cb 83 cb 1021,4 hPa 0,0 mm 0,0 km/h (0 Bft) N-NO 345 0 min 0,000 mm 0,0 UV-I 0 W/m 15,3 C 17,9 C 0,0 km/h (0 Bft)
23/07/2019 01:44 17,9 C 16,7 C 21,1 C 18,9 C 17,8 C 85 % 1 lf 1 lf 200 cb 200 cb 83 cb 1021,4 hPa 0,0 mm 0,0 km/h (0 Bft) N-NO 346 0 min 0,000 mm 0,0 UV-I 0 W/m 15,3 C 17,9 C 0,0 km/h (0 Bft)
23/07/2019 01:42 18,0 C 16,7 C 21,1 C 18,9 C 17,8 C 85 % 1 lf 1 lf 200 cb 200 cb 83 cb 1021,4 hPa 0,0 mm 0,0 km/h (0 Bft) N-NO 346 0 min 0,000 mm 0,0 UV-I 0 W/m 15,4 C 18,0 C 0,0 km/h (0 Bft)
23/07/2019 01:40 18,0 C 16,7 C 21,1 C 18,9 C 17,8 C 84 % 1 lf 1 lf 200 cb 200 cb 83 cb 1021,5 hPa 0,0 mm 0,0 km/h (0 Bft) N-NO 346 0 min 0,000 mm 0,0 UV-I 0 W/m 15,3 C 18,0 C 0,0 km/h (0 Bft)
23/07/2019 01:38 18,1 C 16,7 C 21,1 C 18,9 C 17,8 C 84 % 1 lf 1 lf 200 cb 200 cb 83 cb 1021,5 hPa 0,0 mm 0,0 km/h (0 Bft) N-NO 346 0 min 0,000 mm 0,0 UV-I 0 W/m 15,4 C 18,1 C 0,0 km/h (0 Bft)
23/07/2019 01:36 18,1 C 16,7 C 21,1 C 18,9 C 17,8 C 84 % 1 lf 1 lf 200 cb 200 cb 83 cb 1021,5 hPa 0,0 mm 0,0 km/h (0 Bft) N-NO 346 0 min 0,000 mm 0,0 UV-I 0 W/m 15,4 C 18,1 C 0,0 km/h (0 Bft)
23/07/2019 01:34 18,1 C 16,7 C 21,1 C 18,9 C 17,8 C 84 % 1 lf 1 lf 200 cb 200 cb 83 cb 1021,6 hPa 0,0 mm 0,0 km/h (0 Bft) N-NO 346 0 min 0,000 mm 0,0 UV-I 0 W/m 15,4 C 18,1 C 0,0 km/h (0 Bft)
23/07/2019 01:32 18,1 C 17,2 C 21,1 C 18,9 C 17,8 C 84 % 1 lf 1 lf 200 cb 200 cb 83 cb 1021,6 hPa 0,0 mm 0,0 km/h (0 Bft) N-NO 346 0 min 0,000 mm 0,0 UV-I 0 W/m 15,4 C 18,1 C 0,0 km/h (0 Bft)
23/07/2019 01:30 18,2 C 17,2 C 21,1 C 18,9 C 17,8 C 84 % 1 lf 1 lf 200 cb 200 cb 83 cb 1021,6 hPa 0,0 mm 0,0 km/h (0 Bft) N-NO 346 0 min 0,000 mm 0,0 UV-I 0 W/m 15,4 C 18,2 C 0,0 km/h (0 Bft)
23/07/2019 01:28 18,2 C 17,2 C 21,1 C 18,9 C 17,8 C 83 % 1 lf 1 lf 200 cb 200 cb 83 cb 1021,6 hPa 0,0 mm 0,0 km/h (0 Bft) N-NO 345 0 min 0,000 mm 0,0 UV-I 0 W/m 15,3 C 18,2 C 0,0 km/h (0 Bft)
23/07/2019 01:26 18,3 C 17,2 C 21,1 C 18,9 C 17,8 C 83 % 1 lf 1 lf 200 cb 200 cb 83 cb 1021,6 hPa 0,0 mm 0,0 km/h (0 Bft) N-NO 346 0 min 0,000 mm 0,0 UV-I 0 W/m 15,4 C 18,3 C 0,0 km/h (0 Bft)
23/07/2019 01:24 18,3 C 17,2 C 21,1 C 18,9 C 17,8 C 83 % 1 lf 1 lf 200 cb 200 cb 83 cb 1021,6 hPa 0,0 mm 0,0 km/h (0 Bft) N-NO 346 0 min 0,000 mm 0,0 UV-I 0 W/m 15,4 C 18,3 C 0,0 km/h (0 Bft)
23/07/2019 01:22 18,4 C 17,2 C 21,1 C 18,9 C 17,8 C 83 % 1 lf 1 lf 200 cb 200 cb 83 cb 1021,6 hPa 0,0 mm 0,0 km/h (0 Bft) N-NO 346 0 min 0,000 mm 0,0 UV-I 0 W/m 15,5 C 18,4 C 0,0 km/h (0 Bft)
23/07/2019 01:20 18,4 C 17,2 C 21,1 C 18,9 C 17,8 C 84 % 1 lf 1 lf 200 cb 200 cb 83 cb 1021,6 hPa 0,0 mm 0,0 km/h (0 Bft) N-NO 345 0 min 0,000 mm 0,0 UV-I 0 W/m 15,6 C 18,4 C 0,0 km/h (0 Bft)
23/07/2019 01:18 18,4 C 17,2 C 21,1 C 18,9 C 17,8 C 83 % 1 lf 1 lf 200 cb 200 cb 83 cb 1021,6 hPa 0,0 mm 0,0 km/h (0 Bft) N-NO 346 0 min 0,000 mm 0,0 UV-I 0 W/m 15,5 C 18,4 C 0,0 km/h (0 Bft)
23/07/2019 01:16 18,4 C 17,2 C 21,1 C 18,9 C 17,8 C 84 % 1 lf 1 lf 200 cb 200 cb 83 cb 1021,6 hPa 0,0 mm 0,0 km/h (0 Bft) N-NO 345 0 min 0,000 mm 0,0 UV-I 0 W/m 15,6 C 18,4 C 0,0 km/h (0 Bft)
23/07/2019 01:14 18,4 C 17,2 C 21,1 C 18,9 C 17,8 C 84 % 1 lf 1 lf 200 cb 200 cb 83 cb 1021,6 hPa 0,0 mm 0,0 km/h (0 Bft) N-NO 346 0 min 0,000 mm 0,0 UV-I 0 W/m 15,6 C 18,4 C 0,0 km/h (0 Bft)
23/07/2019 01:12 18,4 C 17,2 C 21,1 C 18,9 C 17,8 C 84 % 1 lf 1 lf 200 cb 200 cb 83 cb 1021,6 hPa 0,0 mm 0,0 km/h (0 Bft) N-NO 346 0 min 0,000 mm 0,0 UV-I 0 W/m 15,6 C 18,4 C 0,0 km/h (0 Bft)
23/07/2019 01:10 18,4 C 17,2 C 21,1 C 18,9 C 17,8 C 84 % 1 lf 1 lf 200 cb 200 cb 83 cb 1021,6 hPa 0,0 mm 0,0 km/h (0 Bft) N-NO 346 0 min 0,000 mm 0,0 UV-I 0 W/m 15,6 C 18,4 C 0,0 km/h (0 Bft)
23/07/2019 01:08 18,4 C 17,2 C 21,1 C 18,9 C 17,8 C 84 % 1 lf 1 lf 200 cb 200 cb 83 cb 1021,6 hPa 0,0 mm 0,0 km/h (0 Bft) N-NO 346 0 min 0,000 mm 0,0 UV-I 0 W/m 15,6 C 18,4 C 0,0 km/h (0 Bft)
23/07/2019 01:06 18,4 C 17,2 C 21,1 C 18,9 C 17,8 C 84 % 1 lf 1 lf 200 cb 200 cb 83 cb 1021,6 hPa 0,0 mm 0,0 km/h (0 Bft) N-NO 345 0 min 0,000 mm 0,0 UV-I 0 W/m 15,6 C 18,4 C 0,0 km/h (0 Bft)
23/07/2019 01:04 18,4 C 17,2 C 21,1 C 18,9 C 17,8 C 84 % 1 lf 1 lf 200 cb 200 cb 83 cb 1021,6 hPa 0,0 mm 0,0 km/h (0 Bft) N-NO 345 0 min 0,000 mm 0,0 UV-I 0 W/m 15,6 C 18,4 C 0,0 km/h (0 Bft)
23/07/2019 01:02 18,5 C 17,2 C 21,1 C 18,9 C 17,8 C 83 % 1 lf 1 lf 200 cb 200 cb 83 cb 1021,6 hPa 0,0 mm 0,0 km/h (0 Bft) N-NO 346 0 min 0,000 mm 0,0 UV-I 0 W/m 15,6 C 18,5 C 0,0 km/h (0 Bft)
23/07/2019 01:00 18,6 C 17,2 C 21,1 C 18,9 C 17,8 C 83 % 1 lf 1 lf 200 cb 200 cb 83 cb 1021,6 hPa 0,0 mm 0,0 km/h (0 Bft) N-NO 346 0 min 0,025 mm 0,0 UV-I 0 W/m 15,7 C 18,6 C 0,0 km/h (0 Bft)
23/07/2019 00:58 18,6 C 17,8 C 21,1 C 18,9 C 17,8 C 83 % 1 lf 1 lf 200 cb 200 cb 83 cb 1021,6 hPa 0,0 mm 0,0 km/h (0 Bft) N-NO 346 0 min 0,000 mm 0,0 UV-I 0 W/m 15,7 C 18,6 C 0,0 km/h (0 Bft)
23/07/2019 00:56 18,6 C 17,8 C 21,1 C 18,9 C 17,8 C 83 % 1 lf 1 lf 200 cb 200 cb 83 cb 1021,7 hPa 0,0 mm 0,0 km/h (0 Bft) N-NO 345 0 min 0,000 mm 0,0 UV-I 0 W/m 15,7 C 18,6 C 0,0 km/h (0 Bft)
23/07/2019 00:54 18,7 C 17,8 C 21,1 C 18,9 C 17,8 C 82 % 1 lf 1 lf 200 cb 200 cb 83 cb 1021,7 hPa 0,0 mm 0,0 km/h (0 Bft) N-NO 346 0 min 0,000 mm 0,0 UV-I 0 W/m 15,6 C 18,7 C 0,0 km/h (0 Bft)
23/07/2019 00:52 18,7 C 17,8 C 21,1 C 18,9 C 17,8 C 82 % 1 lf 1 lf 200 cb 200 cb 83 cb 1021,7 hPa 0,0 mm 0,0 km/h (0 Bft) N-NO 346 0 min 0,000 mm 0,0 UV-I 0 W/m 15,6 C 18,7 C 0,0 km/h (0 Bft)
23/07/2019 00:50 18,7 C 17,8 C 21,1 C 18,9 C 17,8 C 82 % 1 lf 1 lf 200 cb 200 cb 83 cb 1021,7 hPa 0,0 mm 0,0 km/h (0 Bft) N-NO 346 0 min 0,000 mm 0,0 UV-I 0 W/m 15,6 C 18,7 C 0,0 km/h (0 Bft)
23/07/2019 00:48 18,8 C 17,8 C 21,1 C 18,9 C 17,8 C 82 % 1 lf 0 lf 200 cb 200 cb 83 cb 1021,7 hPa 0,0 mm 0,0 km/h (0 Bft) N-NO 346 0 min 0,000 mm 0,0 UV-I 0 W/m 15,7 C 18,8 C 0,0 km/h (0 Bft)
23/07/2019 00:46 18,8 C 17,8 C 21,1 C 18,9 C 17,8 C 82 % 1 lf 0 lf 200 cb 200 cb 83 cb 1021,7 hPa 0,0 mm 0,0 km/h (0 Bft) N-NO 346 0 min 0,000 mm 0,0 UV-I 0 W/m 15,7 C 18,8 C 0,0 km/h (0 Bft)
23/07/2019 00:44 18,8 C 17,8 C 21,1 C 18,9 C 17,8 C 82 % 1 lf 0 lf 200 cb 200 cb 83 cb 1021,7 hPa 0,0 mm 0,0 km/h (0 Bft) N-NO 346 0 min 0,000 mm 0,0 UV-I 0 W/m 15,7 C 18,8 C 0,0 km/h (0 Bft)
23/07/2019 00:42 18,9 C 17,8 C 21,1 C 18,9 C 17,8 C 82 % 1 lf 0 lf 200 cb 200 cb 83 cb 1021,7 hPa 0,0 mm 0,0 km/h (0 Bft) N-NO 346 0 min 0,000 mm 0,0 UV-I 0 W/m 15,8 C 18,9 C 0,0 km/h (0 Bft)
23/07/2019 00:40 18,9 C 17,8 C 21,1 C 18,9 C 17,8 C 81 % 1 lf 0 lf 200 cb 200 cb 83 cb 1021,6 hPa 0,0 mm 0,0 km/h (0 Bft) N-NO 345 0 min 0,000 mm 0,0 UV-I 0 W/m 15,6 C 18,9 C 0,0 km/h (0 Bft)
23/07/2019 00:38 19,0 C 17,8 C 21,1 C 18,9 C 17,8 C 81 % 1 lf 0 lf 200 cb 200 cb 83 cb 1021,6 hPa 0,0 mm 0,0 km/h (0 Bft) N-NO 346 0 min 0,000 mm 0,0 UV-I 0 W/m 15,7 C 19,0 C 0,0 km/h (0 Bft)
23/07/2019 00:36 19,0 C 17,8 C 21,1 C 18,3 C 17,8 C 82 % 1 lf 0 lf 200 cb 200 cb 83 cb 1021,6 hPa 0,0 mm 0,0 km/h (0 Bft) N-NO 346 0 min 0,000 mm 0,0 UV-I 0 W/m 15,9 C 19,0 C 0,0 km/h (0 Bft)
23/07/2019 00:34 18,9 C 18,3 C 21,1 C 18,3 C 17,8 C 82 % 1 lf 0 lf 200 cb 200 cb 83 cb 1021,6 hPa 0,0 mm 0,0 km/h (0 Bft) N-NO 346 0 min 0,000 mm 0,0 UV-I 0 W/m 15,8 C 18,9 C 0,0 km/h (0 Bft)
23/07/2019 00:32 19,0 C 18,3 C 21,1 C 18,3 C 17,8 C 81 % 1 lf 0 lf 200 cb 200 cb 83 cb 1021,6 hPa 0,0 mm 0,0 km/h (0 Bft) N-NO 345 0 min 0,000 mm 0,0 UV-I 0 W/m 15,7 C 19,0 C 0,0 km/h (0 Bft)
23/07/2019 00:30 19,1 C 18,3 C 21,1 C 18,3 C 17,8 C 81 % 0 lf 0 lf 200 cb 200 cb 83 cb 1021,6 hPa 0,0 mm 0,0 km/h (0 Bft) N-NO 346 0 min 0,000 mm 0,0 UV-I 0 W/m 15,8 C 19,1 C 0,0 km/h (0 Bft)
23/07/2019 00:28 19,2 C 18,3 C 21,1 C 18,3 C 17,8 C 81 % 1 lf 0 lf 200 cb 200 cb 83 cb 1021,6 hPa 0,0 mm 0,0 km/h (0 Bft) N-NO 346 0 min 0,000 mm 0,0 UV-I 0 W/m 15,9 C 19,2 C 0,0 km/h (0 Bft)
23/07/2019 00:26 19,2 C 18,3 C 21,1 C 18,3 C 17,8 C 81 % 1 lf 0 lf 200 cb 200 cb 83 cb 1021,6 hPa 0,0 mm 0,0 km/h (0 Bft) N-NO 346 0 min 0,000 mm 0,0 UV-I 0 W/m 15,9 C 19,2 C 0,0 km/h (0 Bft)
23/07/2019 00:24 19,2 C 18,3 C 21,1 C 18,3 C 17,8 C 81 % 1 lf 0 lf 200 cb 200 cb 83 cb 1021,6 hPa 0,0 mm 0,0 km/h (0 Bft) N-NO 345 0 min 0,000 mm 0,0 UV-I 0 W/m 15,9 C 19,2 C 0,0 km/h (0 Bft)
23/07/2019 00:22 19,2 C 18,3 C 21,1 C 18,3 C 17,8 C 81 % 1 lf 0 lf 200 cb 200 cb 83 cb 1021,6 hPa 0,0 mm 0,0 km/h (0 Bft) N-NO 346 0 min 0,000 mm 0,0 UV-I 0 W/m 15,9 C 19,2 C 0,0 km/h (0 Bft)
23/07/2019 00:20 19,3 C 18,3 C 21,1 C 18,3 C 17,8 C 81 % 1 lf 0 lf 200 cb 200 cb 83 cb 1021,5 hPa 0,0 mm 0,0 km/h (0 Bft) N-NO 346 0 min 0,000 mm 0,0 UV-I 0 W/m 16,0 C 19,3 C 0,0 km/h (0 Bft)
23/07/2019 00:18 19,3 C 18,3 C 21,1 C 18,3 C 17,8 C 81 % 0 lf 0 lf 200 cb 200 cb 83 cb 1021,5 hPa 0,0 mm 0,0 km/h (0 Bft) N-NO 346 0 min 0,000 mm 0,0 UV-I 0 W/m 16,0 C 19,3 C 0,0 km/h (0 Bft)
23/07/2019 00:16 19,4 C 18,3 C 21,1 C 18,3 C 17,8 C 80 % 0 lf 0 lf 200 cb 200 cb 83 cb 1021,5 hPa 0,0 mm 0,0 km/h (0 Bft) N-NO 345 0 min 0,000 mm 0,0 UV-I 0 W/m 15,9 C 19,4 C 0,0 km/h (0 Bft)
23/07/2019 00:14 19,4 C 18,3 C 21,1 C 18,3 C 17,8 C 80 % 0 lf 0 lf 200 cb 200 cb 83 cb 1021,5 hPa 0,0 mm 0,0 km/h (0 Bft) N-NO 346 0 min 0,000 mm 0,0 UV-I 0 W/m 15,9 C 19,4 C 0,0 km/h (0 Bft)
23/07/2019 00:12 19,4 C 18,3 C 21,1 C 18,3 C 17,8 C 81 % 0 lf 0 lf 200 cb 200 cb 83 cb 1021,5 hPa 0,0 mm 0,0 km/h (0 Bft) N-NO 345 0 min 0,000 mm 0,0 UV-I 0 W/m 16,1 C 19,4 C 0,0 km/h (0 Bft)
23/07/2019 00:10 19,4 C 18,3 C 21,1 C 18,3 C 17,8 C 80 % 0 lf 0 lf 200 cb 200 cb 83 cb 1021,5 hPa 0,0 mm 0,0 km/h (0 Bft) N-NO 346 0 min 0,000 mm 0,0 UV-I 0 W/m 15,9 C 19,4 C 0,0 km/h (0 Bft)
23/07/2019 00:08 19,5 C 18,9 C 21,1 C 18,3 C 17,8 C 80 % 0 lf 0 lf 200 cb 200 cb 83 cb 1021,5 hPa 0,0 mm 0,0 km/h (0 Bft) N-NO 346 0 min 0,000 mm 0,0 UV-I 0 W/m 16,0 C 19,5 C 0,0 km/h (0 Bft)
23/07/2019 00:06 19,5 C 18,9 C 21,1 C 18,3 C 17,8 C 80 % 0 lf 0 lf 200 cb 200 cb 83 cb 1021,5 hPa 0,0 mm 0,0 km/h (0 Bft) N-NO 346 0 min 0,000 mm 0,0 UV-I 0 W/m 16,0 C 19,5 C 0,0 km/h (0 Bft)
23/07/2019 00:04 19,6 C 18,9 C 21,1 C 18,3 C 17,8 C 80 % 0 lf 0 lf 200 cb 200 cb 83 cb 1021,5 hPa 0,0 mm 0,0 km/h (0 Bft) N-NO 346 0 min 0,000 mm 0,0 UV-I 0 W/m 16,1 C 19,6 C 0,0 km/h (0 Bft)
23/07/2019 00:02 19,7 C 18,9 C 21,1 C 18,3 C 17,8 C 80 % 0 lf 0 lf 200 cb 200 cb 83 cb 1021,5 hPa 0,0 mm 0,0 km/h (0 Bft) N-NO 346 0 min 0,000 mm 0,0 UV-I 0 W/m 16,1 C 19,7 C 0,0 km/h (0 Bft)
23/07/2019 00:00 19,7 C 18,9 C 21,1 C 18,3 C 17,8 C 79 % 0 lf 0 lf 200 cb 200 cb 83 cb 1021,6 hPa 0,0 mm 0,0 km/h (0 Bft) N-NO 346 0 min 0,000 mm 0,0 UV-I 0 W/m 16,0 C 19,7 C 0,0 km/h (0 Bft)
22/07/2019 23:58 19,8 C 18,9 C 21,1 C 18,3 C 17,8 C 79 % 0 lf 0 lf 200 cb 200 cb 83 cb 1021,5 hPa 0,0 mm 0,0 km/h (0 Bft) N-NO 346 0 min 0,000 mm 0,0 UV-I 0 W/m 16,0 C 19,8 C 0,0 km/h (0 Bft)
22/07/2019 23:56 19,8 C 18,9 C 21,1 C 18,3 C 17,8 C 79 % 0 lf 0 lf 200 cb 200 cb 83 cb 1021,6 hPa 0,0 mm 0,0 km/h (0 Bft) N-NO 346 0 min 0,000 mm 0,0 UV-I 0 W/m 16,0 C 19,8 C 0,0 km/h (0 Bft)
22/07/2019 23:54 19,8 C 18,9 C 21,1 C 18,3 C 17,8 C 79 % 0 lf 0 lf 200 cb 200 cb 83 cb 1021,5 hPa 0,0 mm 0,0 km/h (0 Bft) N-NO 345 0 min 0,000 mm 0,0 UV-I 0 W/m 16,0 C 19,8 C 0,0 km/h (0 Bft)
22/07/2019 23:52 19,8 C 18,9 C 21,1 C 18,3 C 17,8 C 79 % 0 lf 0 lf 200 cb 200 cb 83 cb 1021,6 hPa 0,0 mm 0,0 km/h (0 Bft) N-NO 346 0 min 0,000 mm 0,0 UV-I 0 W/m 16,0 C 19,8 C 0,0 km/h (0 Bft)
22/07/2019 23:50 19,9 C 19,4 C 21,1 C 18,3 C 17,8 C 79 % 0 lf 0 lf 200 cb 200 cb 83 cb 1021,6 hPa 0,0 mm 0,0 km/h (0 Bft) N-NO 346 0 min 0,000 mm 0,0 UV-I 0 W/m 16,1 C 19,9 C 0,0 km/h (0 Bft)
22/07/2019 23:48 19,9 C 19,4 C 21,1 C 18,3 C 17,8 C 79 % 0 lf 0 lf 200 cb 200 cb 83 cb 1021,6 hPa 0,0 mm 0,0 km/h (0 Bft) N-NO 346 0 min 0,000 mm 0,0 UV-I 0 W/m 16,1 C 19,9 C 0,0 km/h (0 Bft)
22/07/2019 23:46 20,0 C 19,4 C 21,1 C 18,3 C 17,8 C 78 % 0 lf 0 lf 200 cb 200 cb 83 cb 1021,6 hPa 0,0 mm 0,0 km/h (0 Bft) N-NO 346 0 min 0,000 mm 0,0 UV-I 0 W/m 16,0 C 20,0 C 0,0 km/h (0 Bft)
22/07/2019 23:44 20,1 C 19,4 C 21,1 C 18,3 C 17,8 C 78 % 0 lf 0 lf 200 cb 200 cb 83 cb 1021,7 hPa 0,0 mm 0,0 km/h (0 Bft) N-NO 345 0 min 0,000 mm 0,0 UV-I 0 W/m 16,1 C 20,1 C 0,0 km/h (0 Bft)
22/07/2019 23:42 20,2 C 19,4 C 21,1 C 18,3 C 17,8 C 78 % 0 lf 0 lf 200 cb 200 cb 83 cb 1021,6 hPa 0,0 mm 0,0 km/h (0 Bft) N-NO 345 0 min 0,000 mm 0,0 UV-I 0 W/m 16,2 C 20,2 C 0,0 km/h (0 Bft)
22/07/2019 23:40 20,2 C 19,4 C 21,1 C 18,3 C 17,8 C 78 % 0 lf 0 lf 200 cb 200 cb 83 cb 1021,6 hPa 0,0 mm 0,0 km/h (0 Bft) N-NO 346 0 min 0,000 mm 0,0 UV-I 0 W/m 16,2 C 20,2 C 0,0 km/h (0 Bft)
22/07/2019 23:38 20,2 C 19,4 C 21,1 C 18,3 C 17,8 C 78 % 0 lf 0 lf 200 cb 200 cb 83 cb 1021,7 hPa 0,0 mm 0,0 km/h (0 Bft) N-NO 345 0 min 0,000 mm 0,0 UV-I 0 W/m 16,2 C 20,2 C 0,0 km/h (0 Bft)
22/07/2019 23:36 20,3 C 20,0 C 21,1 C 18,3 C 17,8 C 77 % 0 lf 0 lf 200 cb 200 cb 83 cb 1021,6 hPa 0,0 mm 0,0 km/h (0 Bft) N-NO 346 0 min 0,000 mm 0,0 UV-I 0 W/m 16,1 C 20,3 C 0,0 km/h (0 Bft)
22/07/2019 23:34 20,3 C 20,0 C 21,1 C 18,3 C 17,8 C 77 % 0 lf 0 lf 200 cb 200 cb 83 cb 1021,6 hPa 0,0 mm 0,0 km/h (0 Bft) N-NO 346 0 min 0,000 mm 0,0 UV-I 0 W/m 16,1 C 20,3 C 0,0 km/h (0 Bft)
22/07/2019 23:32 20,4 C 20,0 C 21,1 C 18,3 C 17,8 C 77 % 0 lf 0 lf 200 cb 200 cb 83 cb 1021,6 hPa 0,0 mm 0,0 km/h (0 Bft) N-NO 346 0 min 0,000 mm 0,0 UV-I 0 W/m 16,2 C 20,4 C 0,0 km/h (0 Bft)
22/07/2019 23:30 20,4 C 20,0 C 21,1 C 18,3 C 17,8 C 77 % 0 lf 0 lf 200 cb 200 cb 83 cb 1021,6 hPa 0,0 mm 0,0 km/h (0 Bft) N-NO 345 0 min 0,000 mm 0,0 UV-I 0 W/m 16,2 C 20,4 C 0,0 km/h (0 Bft)
22/07/2019 23:28 20,5 C 20,0 C 21,1 C 18,3 C 17,8 C 77 % 0 lf 0 lf 200 cb 200 cb 83 cb 1021,6 hPa 0,0 mm 0,0 km/h (0 Bft) N-NO 345 0 min 0,000 mm 0,0 UV-I 0 W/m 16,3 C 20,5 C 0,0 km/h (0 Bft)
22/07/2019 23:26 20,6 C 20,0 C 21,1 C 18,3 C 17,8 C 77 % 0 lf 0 lf 200 cb 200 cb 83 cb 1021,7 hPa 0,0 mm 0,0 km/h (0 Bft) N-NO 345 0 min 0,000 mm 0,0 UV-I 0 W/m 16,4 C 20,6 C 0,0 km/h (0 Bft)
22/07/2019 23:24 20,6 C 20,0 C 21,1 C 18,3 C 17,8 C 77 % 0 lf 0 lf 200 cb 200 cb 83 cb 1021,7 hPa 0,0 mm 0,0 km/h (0 Bft) N-NO 345 0 min 0,000 mm 0,0 UV-I 0 W/m 16,4 C 20,6 C 0,0 km/h (0 Bft)
22/07/2019 23:22 20,7 C 20,0 C 21,1 C 18,3 C 17,8 C 76 % 0 lf 0 lf 200 cb 200 cb 83 cb 1021,6 hPa 0,0 mm 0,0 km/h (0 Bft) N-NO 346 0 min 0,000 mm 0,0 UV-I 0 W/m 16,3 C 20,7 C 0,0 km/h (0 Bft)
22/07/2019 23:20 20,7 C 20,6 C 21,1 C 18,3 C 17,8 C 76 % 0 lf 0 lf 200 cb 200 cb 83 cb 1021,6 hPa 0,0 mm 0,0 km/h (0 Bft) N-NO 346 0 min 0,000 mm 0,0 UV-I 0 W/m 16,3 C 20,7 C 0,0 km/h (0 Bft)
22/07/2019 23:18 20,8 C 20,6 C 21,1 C 18,3 C 17,8 C 76 % 0 lf 0 lf 200 cb 200 cb 83 cb 1021,6 hPa 0,0 mm 0,0 km/h (0 Bft) N-NO 346 0 min 0,000 mm 0,0 UV-I 0 W/m 16,4 C 20,8 C 0,0 km/h (0 Bft)
22/07/2019 23:16 20,8 C 20,6 C 21,1 C 18,3 C 17,8 C 75 % 0 lf 0 lf 200 cb 200 cb 83 cb 1021,6 hPa 0,0 mm 0,0 km/h (0 Bft) N-NO 346 0 min 0,000 mm 0,0 UV-I 0 W/m 16,2 C 20,8 C 0,0 km/h (0 Bft)
22/07/2019 23:14 20,9 C 20,6 C 21,1 C 18,3 C 17,8 C 75 % 0 lf 0 lf 200 cb 200 cb 83 cb 1021,6 hPa 0,0 mm 0,0 km/h (0 Bft) N-NO 345 0 min 0,000 mm 0,0 UV-I 0 W/m 16,3 C 20,9 C 0,0 km/h (0 Bft)
22/07/2019 23:12 21,0 C 20,6 C 21,1 C 18,3 C 17,8 C 75 % 0 lf 0 lf 200 cb 200 cb 83 cb 1021,6 hPa 0,0 mm 0,0 km/h (0 Bft) N-NO 345 0 min 0,000 mm 0,0 UV-I 0 W/m 16,4 C 21,0 C 0,0 km/h (0 Bft)
22/07/2019 23:10 21,1 C 21,1 C 21,1 C 18,3 C 17,8 C 75 % 0 lf 0 lf 200 cb 200 cb 83 cb 1021,6 hPa 0,0 mm 0,0 km/h (0 Bft) N-NO 346 0 min 0,000 mm 0,0 UV-I 0 W/m 16,5 C 21,1 C 0,0 km/h (0 Bft)
22/07/2019 23:08 21,2 C 21,1 C 21,1 C 18,3 C 17,8 C 74 % 0 lf 0 lf 200 cb 200 cb 83 cb 1021,6 hPa 0,0 mm 0,0 km/h (0 Bft) N-NO 346 0 min 0,000 mm 0,0 UV-I 0 W/m 16,4 C 21,2 C 0,0 km/h (0 Bft)
22/07/2019 23:06 21,2 C 21,1 C 21,1 C 18,3 C 17,8 C 74 % 0 lf 0 lf 200 cb 200 cb 83 cb 1021,6 hPa 0,0 mm 0,0 km/h (0 Bft) N-NO 346 0 min 0,000 mm 0,0 UV-I 0 W/m 16,4 C 21,2 C 0,0 km/h (0 Bft)
22/07/2019 23:04 21,3 C 21,1 C 21,1 C 18,3 C 17,8 C 74 % 0 lf 0 lf 200 cb 200 cb 83 cb 1021,6 hPa 0,0 mm 0,0 km/h (0 Bft) N-NO 346 0 min 0,000 mm 0,0 UV-I 0 W/m 16,5 C 21,3 C 0,0 km/h (0 Bft)
22/07/2019 23:02 21,3 C 21,1 C 21,1 C 18,3 C 17,8 C 74 % 0 lf 0 lf 200 cb 200 cb 83 cb 1021,6 hPa 0,0 mm 0,1 km/h (0 Bft) N-NO 346 0 min 0,000 mm 0,0 UV-I 0 W/m 16,5 C 21,3 C 1,6 km/h (1 Bft)
22/07/2019 23:00 21,4 C 21,1 C 21,1 C 18,3 C 17,8 C 74 % 0 lf 0 lf 200 cb 200 cb 83 cb 1021,6 hPa 0,0 mm 0,0 km/h (0 Bft) N-NO 346 0 min 0,000 mm 0,0 UV-I 0 W/m 16,6 C 21,4 C 0,0 km/h (0 Bft)
22/07/2019 22:58 21,4 C 21,1 C 21,1 C 18,3 C 17,8 C 74 % 0 lf 0 lf 200 cb 200 cb 83 cb 1021,6 hPa 0,0 mm 0,0 km/h (0 Bft) N-NO 346 0 min 0,000 mm 0,0 UV-I 0 W/m 16,6 C 21,4 C 0,0 km/h (0 Bft)
22/07/2019 22:56 21,5 C 21,1 C 21,1 C 18,3 C 17,8 C 73 % 0 lf 0 lf 200 cb 200 cb 83 cb 1021,6 hPa 0,0 mm 0,7 km/h (0 Bft) N-NO 345 0 min 0,000 mm 0,0 UV-I 0 W/m 16,4 C 21,5 C 4,8 km/h (1 Bft)
22/07/2019 22:54 21,6 C 21,1 C 21,1 C 18,3 C 17,8 C 73 % 0 lf 0 lf 200 cb 200 cb 83 cb 1021,5 hPa 0,0 mm 0,0 km/h (0 Bft) N-NO 345 0 min 0,000 mm 0,0 UV-I 0 W/m 16,5 C 21,6 C 0,0 km/h (0 Bft)
22/07/2019 22:52 21,6 C 21,7 C 21,1 C 18,3 C 17,8 C 73 % 0 lf 0 lf 200 cb 200 cb 83 cb 1021,5 hPa 0,0 mm 0,0 km/h (0 Bft) N-NO 345 0 min 0,000 mm 0,0 UV-I 0 W/m 16,5 C 21,6 C 0,0 km/h (0 Bft)
22/07/2019 22:50 21,7 C 21,7 C 21,1 C 18,3 C 17,8 C 72 % 0 lf 0 lf 200 cb 200 cb 83 cb 1021,5 hPa 0,0 mm 1,3 km/h (1 Bft) N-NO 345 0 min 0,000 mm 0,0 UV-I 0 W/m 16,4 C 21,7 C 6,4 km/h (2 Bft)
22/07/2019 22:48 21,7 C 21,7 C 21,1 C 18,3 C 17,8 C 72 % 0 lf 0 lf 200 cb 200 cb 82 cb 1021,5 hPa 0,0 mm 1,3 km/h (1 Bft) N-NO 345 0 min 0,000 mm 0,0 UV-I 0 W/m 16,4 C 21,7 C 4,8 km/h (1 Bft)
22/07/2019 22:46 21,7 C 21,7 C 21,1 C 18,3 C 17,8 C 72 % 0 lf 0 lf 200 cb 200 cb 82 cb 1021,5 hPa 0,0 mm 1,0 km/h (0 Bft) N-NO 345 0 min 0,000 mm 0,0 UV-I 0 W/m 16,4 C 21,7 C 6,4 km/h (2 Bft)
22/07/2019 22:44 21,8 C 21,7 C 21,1 C 18,3 C 17,8 C 72 % 0 lf 0 lf 200 cb 200 cb 82 cb 1021,5 hPa 0,0 mm 0,1 km/h (0 Bft) N-NO 345 0 min 0,000 mm 0,0 UV-I 0 W/m 16,5 C 21,8 C 1,6 km/h (1 Bft)
22/07/2019 22:42 21,8 C 21,7 C 21,1 C 18,3 C 17,8 C 71 % 0 lf 0 lf 200 cb 200 cb 82 cb 1021,5 hPa 0,0 mm 0,9 km/h (0 Bft) N-NO 345 0 min 0,000 mm 0,0 UV-I 0 W/m 16,3 C 21,8 C 3,2 km/h (1 Bft)
22/07/2019 22:40 21,9 C 21,7 C 21,1 C 18,3 C 17,8 C 71 % 0 lf 0 lf 200 cb 200 cb 82 cb 1021,5 hPa 0,0 mm 0,0 km/h (0 Bft) N-NO 345 0 min 0,000 mm 0,0 UV-I 0 W/m 16,4 C 21,9 C 0,0 km/h (0 Bft)
22/07/2019 22:38 22,1 C 21,7 C 21,1 C 18,3 C 17,8 C 70 % 0 lf 0 lf 200 cb 200 cb 82 cb 1021,5 hPa 0,0 mm 0,0 km/h (0 Bft) N-NO 345 0 min 0,000 mm 0,0 UV-I 0 W/m 16,4 C 22,1 C 0,0 km/h (0 Bft)
22/07/2019 22:36 22,1 C 21,7 C 21,1 C 18,3 C 17,8 C 70 % 0 lf 0 lf 200 cb 200 cb 82 cb 1021,4 hPa 0,0 mm 0,1 km/h (0 Bft) N-NO 345 0 min 0,000 mm 0,0 UV-I 0 W/m 16,4 C 22,1 C 1,6 km/h (1 Bft)
22/07/2019 22:34 22,2 C 21,7 C 21,1 C 18,3 C 17,8 C 69 % 0 lf 0 lf 200 cb 200 cb 82 cb 1021,5 hPa 0,0 mm 0,9 km/h (0 Bft) N-NO 345 0 min 0,000 mm 0,0 UV-I 0 W/m 16,2 C 22,2 C 3,2 km/h (1 Bft)
22/07/2019 22:32 22,3 C 22,2 C 21,1 C 18,3 C 17,8 C 68 % 0 lf 0 lf 200 cb 200 cb 82 cb 1021,5 hPa 0,0 mm 0,0 km/h (0 Bft) N-NO 345 0 min 0,000 mm 0,0 UV-I 0 W/m 16,1 C 22,3 C 0,0 km/h (0 Bft)
22/07/2019 22:30 22,4 C 22,2 C 21,1 C 18,3 C 17,8 C 68 % 0 lf 0 lf 200 cb 200 cb 82 cb 1021,4 hPa 0,0 mm 0,3 km/h (0 Bft) N-NO 345 0 min 0,000 mm 0,0 UV-I 0 W/m 16,2 C 22,4 C 1,6 km/h (1 Bft)
22/07/2019 22:28 22,4 C 22,2 C 21,1 C 18,3 C 17,8 C 67 % 0 lf 0 lf 200 cb 200 cb 82 cb 1021,4 hPa 0,0 mm 0,0 km/h (0 Bft) N-NO 345 0 min 0,000 mm 0,0 UV-I 0 W/m 16,0 C 22,4 C 0,0 km/h (0 Bft)
22/07/2019 22:26 22,5 C 22,2 C 21,1 C 18,3 C 17,8 C 66 % 0 lf 0 lf 200 cb 200 cb 82 cb 1021,5 hPa 0,0 mm 0,3 km/h (0 Bft) N-NO 345 0 min 0,000 mm 0,0 UV-I 0 W/m 15,8 C 22,5 C 4,8 km/h (1 Bft)
22/07/2019 22:24 22,6 C 22,2 C 21,1 C 18,3 C 17,8 C 65 % 0 lf 0 lf 200 cb 200 cb 82 cb 1021,5 hPa 0,0 mm 0,5 km/h (0 Bft) N-NO 345 0 min 0,000 mm 0,0 UV-I 0 W/m 15,7 C 22,6 C 6,4 km/h (2 Bft)
22/07/2019 22:22 22,7 C 22,2 C 21,1 C 18,3 C 17,8 C 65 % 0 lf 0 lf 200 cb 200 cb 82 cb 1021,4 hPa 0,0 mm 0,0 km/h (0 Bft) N-NO 345 0 min 0,000 mm 0,0 UV-I 0 W/m 15,8 C 22,7 C 0,0 km/h (0 Bft)
22/07/2019 22:20 22,8 C 22,2 C 21,1 C 18,3 C 17,8 C 64 % 0 lf 0 lf 200 cb 200 cb 82 cb 1021,4 hPa 0,0 mm 1,1 km/h (1 Bft) N-NO 345 0 min 0,000 mm 0,0 UV-I 0 W/m 15,6 C 22,8 C 4,8 km/h (1 Bft)
22/07/2019 22:18 22,9 C 22,8 C 21,1 C 18,3 C 17,8 C 64 % 0 lf 0 lf 200 cb 200 cb 82 cb 1021,4 hPa 0,0 mm 0,7 km/h (0 Bft) N-NO 345 0 min 0,000 mm 0,0 UV-I 0 W/m 15,7 C 22,9 C 3,2 km/h (1 Bft)
22/07/2019 22:16 23,1 C 22,8 C 21,1 C 18,3 C 17,8 C 63 % 0 lf 0 lf 200 cb 200 cb 82 cb 1021,3 hPa 0,0 mm 0,0 km/h (0 Bft) N-NO 345 0 min 0,000 mm 0,0 UV-I 0 W/m 15,7 C 23,1 C 0,0 km/h (0 Bft)
22/07/2019 22:14 23,2 C 22,8 C 21,1 C 18,3 C 17,8 C 63 % 0 lf 0 lf 200 cb 200 cb 82 cb 1021,3 hPa 0,0 mm 0,0 km/h (0 Bft) N-NO 345 0 min 0,000 mm 0,0 UV-I 0 W/m 15,8 C 23,2 C 0,0 km/h (0 Bft)
22/07/2019 22:12 23,2 C 22,8 C 21,1 C 18,3 C 17,8 C 63 % 0 lf 0 lf 200 cb 200 cb 82 cb 1021,3 hPa 0,0 mm 0,7 km/h (0 Bft) N-NO 345 0 min 0,000 mm 0,0 UV-I 0 W/m 15,8 C 23,2 C 3,2 km/h (1 Bft)
22/07/2019 22:10 23,4 C 23,3 C 21,1 C 18,3 C 17,8 C 62 % 0 lf 0 lf 200 cb 200 cb 82 cb 1021,3 hPa 0,0 mm 1,1 km/h (1 Bft) N-NO 345 0 min 0,000 mm 0,0 UV-I 0 W/m 15,7 C 23,4 C 3,2 km/h (1 Bft)
22/07/2019 22:08 23,6 C 23,3 C 21,1 C 18,3 C 17,8 C 61 % 0 lf 0 lf 200 cb 200 cb 82 cb 1021,4 hPa 0,0 mm 0,0 km/h (0 Bft) N-NO 345 0 min 0,000 mm 0,0 UV-I 0 W/m 15,6 C 23,6 C 1,6 km/h (1 Bft)
22/07/2019 22:06 23,6 C 23,3 C 21,1 C 18,3 C 17,8 C 61 % 0 lf 0 lf 200 cb 200 cb 82 cb 1021,3 hPa 0,0 mm 0,4 km/h (0 Bft) N-NO 345 0 min 0,000 mm 0,0 UV-I 0 W/m 15,6 C 23,6 C 4,8 km/h (1 Bft)
22/07/2019 22:04 23,7 C 23,3 C 21,1 C 18,3 C 17,8 C 61 % 0 lf 0 lf 200 cb 200 cb 82 cb 1021,3 hPa 0,0 mm 0,0 km/h (0 Bft) N-NO 345 0 min 0,000 mm 0,0 UV-I 0 W/m 15,7 C 23,7 C 0,0 km/h (0 Bft)
22/07/2019 22:02 23,7 C 23,3 C 21,1 C 18,3 C 17,8 C 61 % 0 lf 0 lf 200 cb 200 cb 82 cb 1021,4 hPa 0,0 mm 0,8 km/h (0 Bft) N-NO 345 0 min 0,000 mm 0,0 UV-I 0 W/m 15,7 C 23,7 C 6,4 km/h (2 Bft)
22/07/2019 22:00 23,7 C 23,3 C 21,1 C 18,3 C 17,8 C 61 % 0 lf 0 lf 200 cb 200 cb 82 cb 1021,4 hPa 0,0 mm 0,2 km/h (0 Bft) N-NO 345 0 min 0,025 mm 0,0 UV-I 0 W/m 15,7 C 23,7 C 1,6 km/h (1 Bft)
22/07/2019 21:58 23,8 C 23,3 C 21,1 C 18,3 C 17,8 C 60 % 0 lf 0 lf 200 cb 200 cb 82 cb 1021,3 hPa 0,0 mm 0,0 km/h (0 Bft) N-NO 345 0 min 0,000 mm 0,0 UV-I 0 W/m 15,6 C 23,8 C 0,0 km/h (0 Bft)
22/07/2019 21:56 23,9 C 23,9 C 21,1 C 18,3 C 17,8 C 60 % 0 lf 0 lf 200 cb 200 cb 82 cb 1021,3 hPa 0,0 mm 0,9 km/h (0 Bft) N-NO 345 0 min 0,000 mm 0,0 UV-I 0 W/m 15,7 C 23,9 C 3,2 km/h (1 Bft)
22/07/2019 21:54 24,1 C 23,9 C 21,1 C 18,3 C 17,8 C 59 % 0 lf 0 lf 200 cb 200 cb 82 cb 1021,3 hPa 0,0 mm 0,7 km/h (0 Bft) N-NO 345 0 min 0,000 mm 0,0 UV-I 0 W/m 15,6 C 24,1 C 4,8 km/h (1 Bft)
22/07/2019 21:52 24,3 C 23,9 C 21,1 C 18,3 C 17,8 C 58 % 0 lf 0 lf 200 cb 200 cb 82 cb 1021,3 hPa 0,0 mm 0,0 km/h (0 Bft) N-NO 345 0 min 0,000 mm 0,0 UV-I 0 W/m 15,5 C 24,3 C 0,0 km/h (0 Bft)
22/07/2019 21:50 24,4 C 23,9 C 21,1 C 18,3 C 17,8 C 58 % 0 lf 0 lf 200 cb 200 cb 82 cb 1021,3 hPa 0,0 mm 0,6 km/h (0 Bft) N-NO 345 0 min 0,000 mm 0,0 UV-I 0 W/m 15,6 C 24,4 C 3,2 km/h (1 Bft)
22/07/2019 21:48 24,5 C 23,9 C 21,1 C 18,3 C 17,8 C 58 % 0 lf 0 lf 200 cb 200 cb 82 cb 1021,3 hPa 0,0 mm 0,8 km/h (0 Bft) N-NO 345 0 min 0,000 mm 0,0 UV-I 0 W/m 15,7 C 24,5 C 4,8 km/h (1 Bft)
22/07/2019 21:46 24,6 C 23,9 C 21,1 C 18,3 C 17,8 C 57 % 0 lf 0 lf 200 cb 200 cb 82 cb 1021,3 hPa 0,0 mm 0,7 km/h (0 Bft) N-NO 346 0 min 0,000 mm 0,0 UV-I 5 W/m 15,5 C 24,6 C 4,8 km/h (1 Bft)
22/07/2019 21:44 24,6 C 23,9 C 21,1 C 18,3 C 17,8 C 57 % 0 lf 0 lf 200 cb 200 cb 82 cb 1021,3 hPa 0,0 mm 1,0 km/h (0 Bft) N-NO 346 0 min 0,000 mm 0,0 UV-I 5 W/m 15,5 C 24,6 C 4,8 km/h (1 Bft)
22/07/2019 21:42 24,7 C 23,9 C 21,1 C 18,3 C 17,8 C 56 % 0 lf 0 lf 200 cb 200 cb 82 cb 1021,2 hPa 0,0 mm 0,2 km/h (0 Bft) N-NO 347 0 min 0,000 mm 0,0 UV-I 7 W/m 15,3 C 24,7 C 1,6 km/h (1 Bft)
22/07/2019 21:40 24,7 C 24,4 C 21,1 C 18,3 C 17,8 C 56 % 0 lf 0 lf 200 cb 200 cb 82 cb 1021,3 hPa 0,0 mm 0,4 km/h (0 Bft) N-NO 347 0 min 0,000 mm 0,0 UV-I 7 W/m 15,3 C 24,7 C 3,2 km/h (1 Bft)
22/07/2019 21:38 24,7 C 24,4 C 21,1 C 18,3 C 17,8 C 56 % 0 lf 0 lf 200 cb 200 cb 82 cb 1021,3 hPa 0,0 mm 0,5 km/h (0 Bft) N-NO 347 0 min 0,000 mm 0,0 UV-I 7 W/m 15,3 C 24,7 C 3,2 km/h (1 Bft)
22/07/2019 21:36 24,8 C 24,4 C 21,1 C 18,3 C 17,8 C 55 % 0 lf 0 lf 200 cb 200 cb 82 cb 1021,2 hPa 0,0 mm 1,0 km/h (0 Bft) N 349 0 min 0,000 mm 0,0 UV-I 9 W/m 15,1 C 24,8 C 4,8 km/h (1 Bft)
22/07/2019 21:34 24,8 C 24,4 C 20,6 C 18,3 C 17,8 C 55 % 0 lf 0 lf 200 cb 200 cb 82 cb 1021,2 hPa 0,0 mm 1,4 km/h (1 Bft) N 349 2 min 0,000 mm 0,0 UV-I 11 W/m 15,1 C 24,8 C 4,8 km/h (1 Bft)
22/07/2019 21:32 24,9 C 24,4 C 20,6 C 18,3 C 17,8 C 55 % 0 lf 0 lf 200 cb 200 cb 82 cb 1021,2 hPa 0,0 mm 0,2 km/h (0 Bft) N 349 0 min 0,000 mm 0,0 UV-I 11 W/m 15,2 C 24,9 C 3,2 km/h (1 Bft)
22/07/2019 21:30 25,0 C 24,4 C 20,6 C 18,3 C 17,8 C 54 % 0 lf 0 lf 200 cb 200 cb 82 cb 1021,2 hPa 0,0 mm 1,1 km/h (1 Bft) N 349 0 min 0,000 mm 0,0 UV-I 12 W/m 15,0 C 25,0 C 3,2 km/h (1 Bft)
22/07/2019 21:28 25,1 C 24,4 C 20,6 C 18,3 C 17,8 C 54 % 0 lf 0 lf 200 cb 200 cb 82 cb 1021,2 hPa 0,0 mm 1,0 km/h (0 Bft) N 349 0 min 0,000 mm 0,0 UV-I 12 W/m 15,1 C 25,1 C 4,8 km/h (1 Bft)
22/07/2019 21:26 25,1 C 25,0 C 20,6 C 18,3 C 17,8 C 54 % 0 lf 0 lf 200 cb 200 cb 82 cb 1021,2 hPa 0,0 mm 0,3 km/h (0 Bft) N 349 0 min 0,000 mm 0,0 UV-I 12 W/m 15,1 C 25,1 C 3,2 km/h (1 Bft)
22/07/2019 21:24 25,2 C 25,0 C 20,6 C 18,3 C 17,8 C 54 % 0 lf 0 lf 200 cb 200 cb 82 cb 1021,2 hPa 0,0 mm 0,0 km/h (0 Bft) N 349 0 min 0,000 mm 0,0 UV-I 14 W/m 15,2 C 25,2 C 0,0 km/h (0 Bft)
22/07/2019 21:22 25,2 C 25,0 C 20,6 C 18,3 C 17,8 C 53 % 0 lf 0 lf 200 cb 200 cb 82 cb 1021,3 hPa 0,0 mm 0,0 km/h (0 Bft) N 349 0 min 0,000 mm 0,0 UV-I 14 W/m 14,9 C 25,2 C 0,0 km/h (0 Bft)
22/07/2019 21:20 25,2 C 25,0 C 20,6 C 18,3 C 17,8 C 54 % 0 lf 0 lf 200 cb 200 cb 82 cb 1021,3 hPa 0,0 mm 0,1 km/h (0 Bft) N 349 0 min 0,000 mm 0,0 UV-I 16 W/m 15,2 C 25,2 C 1,6 km/h (1 Bft)
22/07/2019 21:18 25,3 C 25,0 C 20,6 C 18,3 C 17,8 C 53 % 0 lf 0 lf 200 cb 200 cb 82 cb 1021,2 hPa 0,0 mm 0,1 km/h (0 Bft) N 349 0 min 0,000 mm 0,0 UV-I 16 W/m 15,0 C 25,3 C 1,6 km/h (1 Bft)
22/07/2019 21:16 25,3 C 25,6 C 20,6 C 18,3 C 17,8 C 53 % 0 lf 0 lf 200 cb 200 cb 82 cb 1021,2 hPa 0,0 mm 0,3 km/h (0 Bft) N 349 0 min 0,000 mm 0,0 UV-I 18 W/m 15,0 C 25,3 C 3,2 km/h (1 Bft)
22/07/2019 21:14 25,4 C 25,6 C 20,6 C 18,3 C 17,8 C 53 % 0 lf 0 lf 200 cb 200 cb 82 cb 1021,2 hPa 0,0 mm 0,0 km/h (0 Bft) N 349 0 min 0,000 mm 0,0 UV-I 18 W/m 15,1 C 25,4 C 0,0 km/h (0 Bft)
22/07/2019 21:12 25,6 C 25,6 C 20,6 C 18,3 C 17,8 C 52 % 0 lf 0 lf 200 cb 200 cb 82 cb 1021,2 hPa 0,0 mm 0,0 km/h (0 Bft) N 349 0 min 0,000 mm 0,0 UV-I 18 W/m 15,0 C 25,6 C 0,0 km/h (0 Bft)
22/07/2019 21:10 25,7 C 25,6 C 20,6 C 18,3 C 17,8 C 52 % 0 lf 0 lf 200 cb 200 cb 82 cb 1021,2 hPa 0,0 mm 0,0 km/h (0 Bft) N 349 0 min 0,000 mm 0,0 UV-I 19 W/m 15,1 C 25,7 C 0,0 km/h (0 Bft)
22/07/2019 21:08 25,8 C 26,1 C 20,6 C 18,3 C 17,8 C 52 % 0 lf 0 lf 200 cb 200 cb 82 cb 1021,2 hPa 0,0 mm 0,4 km/h (0 Bft) N 349 0 min 0,000 mm 0,0 UV-I 19 W/m 15,2 C 25,8 C 3,2 km/h (1 Bft)
22/07/2019 21:06 25,9 C 26,1 C 20,6 C 18,3 C 17,8 C 51 % 0 lf 0 lf 200 cb 200 cb 82 cb 1021,1 hPa 0,0 mm 0,4 km/h (0 Bft) N 349 0 min 0,000 mm 0,0 UV-I 21 W/m 15,0 C 25,9 C 4,8 km/h (1 Bft)
22/07/2019 21:04 26,1 C 26,1 C 20,6 C 18,3 C 17,8 C 51 % 0 lf 0 lf 200 cb 200 cb 82 cb 1021,1 hPa 0,0 mm 0,7 km/h (0 Bft) N 349 0 min 0,000 mm 0,0 UV-I 21 W/m 15,2 C 26,1 C 4,8 km/h (1 Bft)
22/07/2019 21:02 26,1 C 26,1 C 20,6 C 18,3 C 17,8 C 51 % 0 lf 0 lf 200 cb 200 cb 82 cb 1021,1 hPa 0,0 mm 0,4 km/h (0 Bft) N 349 0 min 0,000 mm 0,0 UV-I 23 W/m 15,2 C 26,1 C 3,2 km/h (1 Bft)
22/07/2019 21:00 26,2 C 26,7 C 20,6 C 18,3 C 17,8 C 51 % 0 lf 0 lf 200 cb 200 cb 82 cb 1021,1 hPa 0,0 mm 0,2 km/h (0 Bft) N 349 0 min 0,051 mm 0,0 UV-I 25 W/m 15,2 C 26,2 C 3,2 km/h (1 Bft)
22/07/2019 20:58 26,3 C 26,7 C 20,6 C 18,3 C 17,8 C 50 % 0 lf 0 lf 200 cb 200 cb 82 cb 1021,1 hPa 0,0 mm 0,1 km/h (0 Bft) N 349 0 min 0,000 mm 0,0 UV-I 25 W/m 15,0 C 26,3 C 1,6 km/h (1 Bft)
22/07/2019 20:56 26,4 C 26,7 C 20,6 C 18,3 C 17,8 C 50 % 0 lf 0 lf 200 cb 200 cb 82 cb 1021,1 hPa 0,0 mm 0,0 km/h (0 Bft) N 349 0 min 0,000 mm 0,0 UV-I 25 W/m 15,1 C 26,4 C 0,0 km/h (0 Bft)
22/07/2019 20:54 26,3 C 26,7 C 20,6 C 18,3 C 17,8 C 50 % 0 lf 0 lf 200 cb 200 cb 82 cb 1021,1 hPa 0,0 mm 0,2 km/h (0 Bft) N 349 0 min 0,000 mm 0,0 UV-I 25 W/m 15,0 C 26,3 C 1,6 km/h (1 Bft)
22/07/2019 20:52 26,4 C 26,7 C 20,6 C 18,3 C 17,8 C 50 % 0 lf 0 lf 200 cb 200 cb 82 cb 1021,1 hPa 0,0 mm 0,6 km/h (0 Bft) N 350 0 min 0,000 mm 0,0 UV-I 26 W/m 15,1 C 26,4 C 4,8 km/h (1 Bft)
22/07/2019 20:50 26,4 C 27,2 C 20,6 C 18,3 C 17,8 C 50 % 0 lf 0 lf 200 cb 200 cb 82 cb 1021,1 hPa 0,0 mm 0,3 km/h (0 Bft) N 350 0 min 0,000 mm 0,0 UV-I 28 W/m 15,1 C 26,4 C 3,2 km/h (1 Bft)
22/07/2019 20:48 26,4 C 27,2 C 20,6 C 18,3 C 17,8 C 49 % 0 lf 0 lf 200 cb 200 cb 82 cb 1021,1 hPa 0,0 mm 0,1 km/h (0 Bft) N 354 0 min 0,000 mm 0,0 UV-I 28 W/m 14,8 C 26,4 C 1,6 km/h (1 Bft)
22/07/2019 20:46 26,6 C 27,2 C 20,6 C 18,3 C 17,8 C 49 % 0 lf 0 lf 200 cb 200 cb 82 cb 1021,1 hPa 0,0 mm 0,0 km/h (0 Bft) N 354 0 min 0,000 mm 0,0 UV-I 30 W/m 15,0 C 26,6 C 1,6 km/h (1 Bft)
22/07/2019 20:44 26,6 C 27,2 C 20,6 C 18,3 C 17,8 C 49 % 0 lf 0 lf 200 cb 200 cb 82 cb 1021,1 hPa 0,0 mm 0,1 km/h (0 Bft) N 356 0 min 0,000 mm 0,0 UV-I 32 W/m 15,0 C 26,6 C 1,6 km/h (1 Bft)
22/07/2019 20:42 26,7 C 27,8 C 20,6 C 18,3 C 17,8 C 48 % 0 lf 0 lf 200 cb 200 cb 82 cb 1021,1 hPa 0,0 mm 0,4 km/h (0 Bft) N 356 0 min 0,000 mm 0,0 UV-I 32 W/m 14,8 C 26,7 C 4,8 km/h (1 Bft)
22/07/2019 20:40 26,8 C 27,8 C 20,6 C 18,3 C 17,8 C 49 % 0 lf 0 lf 200 cb 200 cb 82 cb 1021,1 hPa 0,0 mm 0,7 km/h (0 Bft) N 356 0 min 0,000 mm 0,0 UV-I 32 W/m 15,2 C 26,8 C 4,8 km/h (1 Bft)
22/07/2019 20:38 26,9 C 27,8 C 20,6 C 18,3 C 17,8 C 48 % 0 lf 0 lf 200 cb 200 cb 82 cb 1021,1 hPa 0,0 mm 1,5 km/h (1 Bft) N 349 0 min 0,000 mm 0,0 UV-I 33 W/m 14,9 C 26,9 C 4,8 km/h (1 Bft)
22/07/2019 20:36 27,1 C 28,3 C 20,6 C 18,3 C 17,8 C 47 % 0 lf 0 lf 200 cb 200 cb 82 cb 1021,1 hPa 0,0 mm 0,4 km/h (0 Bft) N-NO 342 0 min 0,000 mm 0,0 UV-I 33 W/m 14,8 C 27,1 C 4,8 km/h (1 Bft)
22/07/2019 20:34 27,2 C 28,3 C 20,6 C 18,3 C 17,8 C 47 % 0 lf 0 lf 200 cb 200 cb 82 cb 1021,1 hPa 0,0 mm 1,3 km/h (1 Bft) N-NO 342 0 min 0,000 mm 0,0 UV-I 35 W/m 14,9 C 27,2 C 6,4 km/h (2 Bft)
22/07/2019 20:32 27,3 C 28,3 C 20,6 C 18,3 C 17,8 C 47 % 0 lf 0 lf 200 cb 200 cb 82 cb 1021,1 hPa 0,0 mm 1,7 km/h (1 Bft) NO 309 0 min 0,000 mm 0,0 UV-I 35 W/m 15,0 C 27,3 C 4,8 km/h (1 Bft)
22/07/2019 20:30 27,3 C 28,3 C 20,6 C 18,3 C 17,8 C 47 % 0 lf 0 lf 200 cb 200 cb 82 cb 1021,1 hPa 0,0 mm 1,4 km/h (1 Bft) NO 311 0 min 0,000 mm 0,0 UV-I 35 W/m 15,0 C 27,3 C 4,8 km/h (1 Bft)
22/07/2019 20:28 27,3 C 28,9 C 20,6 C 18,3 C 17,8 C 46 % 0 lf 0 lf 200 cb 200 cb 82 cb 1021,1 hPa 0,0 mm 2,7 km/h (1 Bft) NO 321 0 min 0,000 mm 0,0 UV-I 37 W/m 14,6 C 27,3 C 6,4 km/h (2 Bft)
22/07/2019 20:26 27,3 C 28,9 C 20,6 C 18,3 C 17,8 C 46 % 0 lf 0 lf 200 cb 200 cb 82 cb 1021,1 hPa 0,0 mm 3,5 km/h (1 Bft) NO 319 0 min 0,000 mm 0,0 UV-I 37 W/m 14,6 C 27,3 C 6,4 km/h (2 Bft)
22/07/2019 20:24 27,3 C 28,9 C 20,6 C 18,3 C 17,8 C 46 % 0 lf 0 lf 200 cb 200 cb 82 cb 1021,1 hPa 0,0 mm 4,0 km/h (1 Bft) NO 311 0 min 0,000 mm 0,0 UV-I 37 W/m 14,6 C 27,3 C 8,0 km/h (2 Bft)
22/07/2019 20:22 27,4 C 29,4 C 20,6 C 18,3 C 17,8 C 46 % 0 lf 0 lf 200 cb 200 cb 82 cb 1021,1 hPa 0,0 mm 1,1 km/h (1 Bft) NO 311 0 min 0,000 mm 0,0 UV-I 37 W/m 14,7 C 27,4 C 4,8 km/h (1 Bft)
22/07/2019 20:20 27,4 C 29,4 C 20,6 C 18,3 C 17,8 C 46 % 0 lf 0 lf 200 cb 200 cb 82 cb 1021,1 hPa 0,0 mm 0,8 km/h (0 Bft) N-NO 335 0 min 0,000 mm 0,0 UV-I 39 W/m 14,7 C 27,4 C 4,8 km/h (1 Bft)
22/07/2019 20:18 27,6 C 30,0 C 20,6 C 18,3 C 17,8 C 47 % 0 lf 0 lf 200 cb 200 cb 82 cb 1021,1 hPa 0,0 mm 0,7 km/h (0 Bft) NO 319 0 min 0,000 mm 0,0 UV-I 40 W/m 15,3 C 27,6 C 6,4 km/h (2 Bft)
22/07/2019 20:16 27,6 C 30,0 C 20,6 C 18,3 C 17,8 C 46 % 0 lf 0 lf 200 cb 200 cb 82 cb 1021,1 hPa 0,0 mm 1,7 km/h (1 Bft) NO 304 0 min 0,000 mm 0,0 UV-I 40 W/m 14,9 C 27,6 C 4,8 km/h (1 Bft)
22/07/2019 20:14 27,5 C 30,6 C 20,6 C 18,3 C 17,8 C 46 % 0 lf 0 lf 200 cb 200 cb 82 cb 1021,1 hPa 0,0 mm 2,3 km/h (1 Bft) NO 304 0 min 0,000 mm 0,0 UV-I 40 W/m 14,8 C 27,5 C 8,0 km/h (2 Bft)
22/07/2019 20:12 27,4 C 30,6 C 20,6 C 18,3 C 17,8 C 46 % 0 lf 0 lf 200 cb 200 cb 82 cb 1021,1 hPa 0,0 mm 3,2 km/h (1 Bft) NO 306 0 min 0,000 mm 0,0 UV-I 42 W/m 14,7 C 27,4 C 8,0 km/h (2 Bft)
22/07/2019 20:10 27,4 C 30,6 C 20,6 C 18,3 C 17,8 C 47 % 0 lf 0 lf 200 cb 200 cb 82 cb 1021,0 hPa 0,0 mm 2,7 km/h (1 Bft) N 355 0 min 0,000 mm 0,0 UV-I 42 W/m 15,1 C 27,4 C 6,4 km/h (2 Bft)
22/07/2019 20:08 27,6 C 31,1 C 20,6 C 18,3 C 17,8 C 47 % 0 lf 0 lf 200 cb 200 cb 82 cb 1021,1 hPa 0,0 mm 3,9 km/h (1 Bft) N 6 0 min 0,000 mm 0,0 UV-I 42 W/m 15,3 C 27,6 C 9,7 km/h (2 Bft)
22/07/2019 20:06 27,8 C 31,1 C 20,6 C 18,3 C 17,8 C 46 % 0 lf 0 lf 200 cb 200 cb 82 cb 1021,1 hPa 0,0 mm 2,4 km/h (1 Bft) N-NE 25 0 min 0,000 mm 0,0 UV-I 44 W/m 15,1 C 27,8 C 8,0 km/h (2 Bft)
22/07/2019 20:04 27,8 C 31,7 C 20,6 C 18,3 C 17,8 C 46 % 0 lf 0 lf 200 cb 200 cb 82 cb 1021,0 hPa 0,0 mm 0,7 km/h (0 Bft) N 350 0 min 0,000 mm 0,0 UV-I 46 W/m 15,1 C 27,8 C 4,8 km/h (1 Bft)
22/07/2019 20:02 27,8 C 32,2 C 20,6 C 18,3 C 17,8 C 46 % 0 lf 0 lf 200 cb 200 cb 82 cb 1021,0 hPa 0,0 mm 0,6 km/h (0 Bft) N 350 0 min 0,000 mm 0,0 UV-I 49 W/m 15,1 C 27,8 C 3,2 km/h (1 Bft)
22/07/2019 20:00 27,9 C 32,8 C 20,6 C 18,3 C 17,8 C 46 % 0 lf 0 lf 200 cb 200 cb 82 cb 1021,0 hPa 0,0 mm 1,9 km/h (1 Bft) N 350 0 min 0,203 mm 0,0 UV-I 54 W/m 15,2 C 27,9 C 6,4 km/h (2 Bft)
22/07/2019 19:58 27,9 C 32,8 C 20,6 C 18,3 C 17,8 C 46 % 0 lf 0 lf 200 cb 200 cb 82 cb 1021,0 hPa 0,0 mm 3,5 km/h (1 Bft) N-NE 26 0 min 0,000 mm 0,0 UV-I 104 W/m 15,2 C 27,9 C 9,7 km/h (2 Bft)
22/07/2019 19:56 28,1 C 33,9 C 20,6 C 18,3 C 17,8 C 46 % 0 lf 0 lf 200 cb 200 cb 82 cb 1021,0 hPa 0,0 mm 2,3 km/h (1 Bft) N 7 0 min 0,000 mm 0,0 UV-I 104 W/m 15,4 C 28,1 C 9,7 km/h (2 Bft)
22/07/2019 19:54 28,2 C 33,9 C 20,6 C 18,3 C 17,8 C 46 % 0 lf 0 lf 200 cb 200 cb 82 cb 1021,1 hPa 0,0 mm 3,4 km/h (1 Bft) N 4 0 min 0,000 mm 0,0 UV-I 123 W/m 15,5 C 28,2 C 8,0 km/h (2 Bft)
22/07/2019 19:52 28,3 C 34,4 C 20,6 C 18,3 C 17,8 C 46 % 0 lf 0 lf 200 cb 200 cb 82 cb 1021,1 hPa 0,0 mm 3,9 km/h (1 Bft) N 356 2 min 0,000 mm 0,0 UV-I 188 W/m 15,6 C 28,3 C 11,3 km/h (2 Bft)
22/07/2019 19:50 28,3 C 34,4 C 20,6 C 18,3 C 17,8 C 45 % 0 lf 0 lf 200 cb 200 cb 82 cb 1021,1 hPa 0,0 mm 1,9 km/h (1 Bft) N 3 2 min 0,000 mm 0,0 UV-I 236 W/m 15,2 C 28,3 C 8,0 km/h (2 Bft)
22/07/2019 19:48 28,3 C 35,6 C 20,6 C 18,3 C 17,8 C 44 % 0 lf 0 lf 200 cb 200 cb 82 cb 1021,1 hPa 0,0 mm 0,4 km/h (0 Bft) NO 312 2 min 0,000 mm 0,0 UV-I 248 W/m 14,9 C 28,3 C 3,2 km/h (1 Bft)
22/07/2019 19:46 28,4 C 36,7 C 20,6 C 18,3 C 17,8 C 46 % 0 lf 0 lf 200 cb 200 cb 82 cb 1021,1 hPa 0,0 mm 1,0 km/h (0 Bft) NO 307 2 min 0,000 mm 0,0 UV-I 255 W/m 15,6 C 28,4 C 6,4 km/h (2 Bft)
22/07/2019 19:44 28,3 C 36,7 C 20,6 C 18,3 C 17,8 C 45 % 0 lf 0 lf 200 cb 200 cb 82 cb 1021,1 hPa 0,0 mm 0,1 km/h (0 Bft) O-NO 300 2 min 0,000 mm 0,0 UV-I 255 W/m 15,2 C 28,3 C 1,6 km/h (1 Bft)
22/07/2019 19:42 28,4 C 36,1 C 20,6 C 18,3 C 17,8 C 45 % 0 lf 0 lf 200 cb 200 cb 82 cb 1021,2 hPa 0,0 mm 0,6 km/h (0 Bft) O-NO 300 2 min 0,000 mm 0,5 UV-I 262 W/m 15,3 C 28,4 C 1,6 km/h (1 Bft)
22/07/2019 19:40 28,6 C 36,1 C 20,6 C 18,3 C 17,8 C 45 % 0 lf 0 lf 200 cb 200 cb 82 cb 1021,2 hPa 0,0 mm 4,0 km/h (1 Bft) O-NO 298 2 min 0,000 mm 0,5 UV-I 269 W/m 15,5 C 28,6 C 9,7 km/h (2 Bft)
22/07/2019 19:38 28,7 C 35,6 C 20,6 C 18,3 C 17,8 C 44 % 0 lf 0 lf 200 cb 200 cb 82 cb 1021,2 hPa 0,0 mm 0,5 km/h (0 Bft) N 4 2 min 0,000 mm 0,5 UV-I 274 W/m 15,2 C 28,7 C 6,4 km/h (2 Bft)
22/07/2019 19:36 28,7 C 34,4 C 20,6 C 18,3 C 17,8 C 44 % 0 lf 0 lf 200 cb 200 cb 82 cb 1021,2 hPa 0,0 mm 0,0 km/h (0 Bft) O 271 2 min 0,000 mm 0,5 UV-I 276 W/m 15,2 C 28,7 C 0,0 km/h (0 Bft)
22/07/2019 19:34 28,8 C 34,4 C 20,6 C 18,3 C 17,8 C 45 % 0 lf 0 lf 200 cb 200 cb 82 cb 1021,2 hPa 0,0 mm 0,3 km/h (0 Bft) O 271 2 min 0,000 mm 0,5 UV-I 283 W/m 15,7 C 28,8 C 3,2 km/h (1 Bft)
22/07/2019 19:32 28,7 C 34,4 C 20,6 C 18,3 C 17,8 C 44 % 0 lf 0 lf 200 cb 200 cb 82 cb 1021,2 hPa 0,0 mm 2,4 km/h (1 Bft) O 271 2 min 0,000 mm 0,5 UV-I 272 W/m 15,2 C 28,7 C 8,0 km/h (2 Bft)
22/07/2019 19:30 28,8 C 34,4 C 20,6 C 18,3 C 17,8 C 46 % 0 lf 0 lf 200 cb 200 cb 82 cb 1021,2 hPa 0,0 mm 0,9 km/h (0 Bft) O 273 2 min 0,000 mm 0,5 UV-I 258 W/m 16,0 C 28,8 C 4,8 km/h (1 Bft)
22/07/2019 19:28 28,7 C 33,9 C 20,6 C 18,3 C 17,8 C 45 % 0 lf 0 lf 200 cb 200 cb 82 cb 1021,2 hPa 0,0 mm 1,1 km/h (1 Bft) O 279 2 min 0,000 mm 0,6 UV-I 304 W/m 15,6 C 28,7 C 3,2 km/h (1 Bft)
22/07/2019 19:26 28,6 C 34,4 C 20,6 C 18,3 C 17,8 C 45 % 0 lf 0 lf 200 cb 200 cb 82 cb 1021,2 hPa 0,0 mm 3,7 km/h (1 Bft) O 277 2 min 0,000 mm 0,6 UV-I 315 W/m 15,5 C 28,6 C 9,7 km/h (2 Bft)
22/07/2019 19:24 28,7 C 34,4 C 20,6 C 18,3 C 17,8 C 45 % 0 lf 0 lf 200 cb 200 cb 82 cb 1021,2 hPa 0,0 mm 1,3 km/h (1 Bft) NO 315 2 min 0,000 mm 0,6 UV-I 318 W/m 15,6 C 28,7 C 6,4 km/h (2 Bft)
22/07/2019 19:22 28,7 C 34,4 C 20,6 C 18,3 C 17,8 C 45 % 0 lf 0 lf 200 cb 200 cb 82 cb 1021,2 hPa 0,0 mm 3,7 km/h (1 Bft) NO 309 2 min 0,000 mm 0,6 UV-I 325 W/m 15,6 C 28,7 C 9,7 km/h (2 Bft)
22/07/2019 19:20 28,7 C 34,4 C 20,6 C 18,3 C 17,8 C 45 % 0 lf 0 lf 200 cb 200 cb 82 cb 1021,2 hPa 0,0 mm 3,2 km/h (1 Bft) NO 318 2 min 0,000 mm 0,6 UV-I 330 W/m 15,6 C 28,7 C 6,4 km/h (2 Bft)
22/07/2019 19:18 28,8 C 34,4 C 20,6 C 18,3 C 17,8 C 45 % 0 lf 0 lf 200 cb 200 cb 82 cb 1021,1 hPa 0,0 mm 1,1 km/h (1 Bft) N 349 2 min 0,000 mm 0,7 UV-I 334 W/m 15,7 C 28,8 C 4,8 km/h (1 Bft)
22/07/2019 19:16 28,9 C 34,4 C 20,6 C 18,3 C 17,8 C 44 % 0 lf 0 lf 200 cb 200 cb 82 cb 1021,1 hPa 0,0 mm 1,7 km/h (1 Bft) N-NO 327 2 min 0,000 mm 0,7 UV-I 339 W/m 15,4 C 28,9 C 6,4 km/h (2 Bft)
22/07/2019 19:14 28,9 C 34,4 C 20,6 C 18,3 C 17,8 C 45 % 0 lf 0 lf 200 cb 200 cb 82 cb 1021,1 hPa 0,0 mm 1,4 km/h (1 Bft) N 350 2 min 0,000 mm 0,7 UV-I 343 W/m 15,8 C 28,9 C 9,7 km/h (2 Bft)
22/07/2019 19:12 28,8 C 34,4 C 20,6 C 18,3 C 17,8 C 45 % 0 lf 0 lf 200 cb 200 cb 82 cb 1021,1 hPa 0,0 mm 2,7 km/h (1 Bft) O-NO 297 2 min 0,000 mm 0,8 UV-I 348 W/m 15,7 C 28,8 C 6,4 km/h (2 Bft)
22/07/2019 19:10 28,7 C 34,4 C 20,6 C 18,3 C 17,8 C 45 % 0 lf 0 lf 200 cb 200 cb 82 cb 1021,1 hPa 0,0 mm 0,6 km/h (0 Bft) O-NO 294 2 min 0,000 mm 0,8 UV-I 345 W/m 15,6 C 28,7 C 4,8 km/h (1 Bft)
22/07/2019 19:08 28,8 C 34,4 C 20,6 C 18,3 C 17,8 C 44 % 0 lf 0 lf 200 cb 200 cb 82 cb 1021,2 hPa 0,0 mm 4,0 km/h (1 Bft) O-NO 292 2 min 0,000 mm 0,8 UV-I 353 W/m 15,3 C 28,8 C 11,3 km/h (2 Bft)
22/07/2019 19:06 28,9 C 34,4 C 20,6 C 18,3 C 17,8 C 44 % 0 lf 0 lf 200 cb 200 cb 82 cb 1021,2 hPa 0,0 mm 2,8 km/h (1 Bft) NO 305 2 min 0,000 mm 0,8 UV-I 362 W/m 15,4 C 28,9 C 8,0 km/h (2 Bft)
22/07/2019 19:04 29,1 C 35,0 C 20,6 C 18,3 C 17,8 C 43 % 0 lf 0 lf 200 cb 200 cb 82 cb 1021,2 hPa 0,0 mm 0,3 km/h (0 Bft) NO 306 2 min 0,000 mm 0,8 UV-I 369 W/m 15,2 C 29,1 C 3,2 km/h (1 Bft)
22/07/2019 19:02 29,1 C 35,0 C 20,6 C 18,3 C 17,8 C 44 % 0 lf 0 lf 200 cb 200 cb 82 cb 1021,2 hPa 0,0 mm 2,4 km/h (1 Bft) NO 306 2 min 0,000 mm 0,9 UV-I 371 W/m 15,6 C 29,1 C 8,0 km/h (2 Bft)
22/07/2019 19:00 28,9 C 35,6 C 20,6 C 18,3 C 17,8 C 45 % 0 lf 0 lf 200 cb 200 cb 82 cb 1021,2 hPa 0,0 mm 1,8 km/h (1 Bft) O-NO 298 2 min 0,330 mm 0,9 UV-I 367 W/m 15,8 C 28,9 C 8,0 km/h (2 Bft)
22/07/2019 18:58 28,7 C 35,6 C 20,6 C 18,3 C 17,8 C 45 % 0 lf 0 lf 200 cb 200 cb 82 cb 1021,2 hPa 0,0 mm 3,1 km/h (1 Bft) O 268 2 min 0,000 mm 0,9 UV-I 371 W/m 15,6 C 28,7 C 9,7 km/h (2 Bft)
22/07/2019 18:56 28,7 C 35,6 C 20,6 C 18,3 C 17,8 C 44 % 0 lf 0 lf 200 cb 200 cb 82 cb 1021,2 hPa 0,0 mm 0,5 km/h (0 Bft) O 273 2 min 0,000 mm 0,9 UV-I 381 W/m 15,2 C 28,7 C 3,2 km/h (1 Bft)
22/07/2019 18:54 28,6 C 36,1 C 20,6 C 18,3 C 17,8 C 44 % 0 lf 0 lf 200 cb 200 cb 82 cb 1021,2 hPa 0,0 mm 0,0 km/h (0 Bft) O 273 2 min 0,000 mm 0,9 UV-I 381 W/m 15,1 C 28,6 C 0,0 km/h (0 Bft)
22/07/2019 18:52 28,8 C 36,7 C 20,6 C 18,3 C 17,8 C 44 % 0 lf 0 lf 200 cb 200 cb 82 cb 1021,2 hPa 0,0 mm 0,0 km/h (0 Bft) O 272 2 min 0,000 mm 1,0 UV-I 383 W/m 15,3 C 28,8 C 1,6 km/h (1 Bft)
22/07/2019 18:50 29,0 C 36,7 C 20,6 C 18,3 C 17,8 C 43 % 0 lf 0 lf 200 cb 200 cb 82 cb 1021,2 hPa 0,0 mm 3,8 km/h (1 Bft) O 272 2 min 0,000 mm 1,0 UV-I 383 W/m 15,1 C 29,0 C 8,0 km/h (2 Bft)
22/07/2019 18:48 29,2 C 37,2 C 20,6 C 18,3 C 17,8 C 44 % 0 lf 0 lf 200 cb 200 cb 82 cb 1021,2 hPa 0,0 mm 1,5 km/h (1 Bft) NO 308 2 min 0,000 mm 1,0 UV-I 360 W/m 15,7 C 29,2 C 8,0 km/h (2 Bft)
22/07/2019 18:46 29,3 C 37,2 C 20,6 C 18,3 C 17,8 C 44 % 0 lf 0 lf 200 cb 200 cb 82 cb 1021,2 hPa 0,0 mm 1,8 km/h (1 Bft) O 267 2 min 0,000 mm 1,1 UV-I 413 W/m 15,8 C 29,3 C 4,8 km/h (1 Bft)
22/07/2019 18:44 29,3 C 37,2 C 20,6 C 18,3 C 17,8 C 43 % 0 lf 0 lf 200 cb 200 cb 82 cb 1021,2 hPa 0,0 mm 1,5 km/h (1 Bft) O-NO 290 2 min 0,000 mm 1,1 UV-I 420 W/m 15,4 C 29,3 C 6,4 km/h (2 Bft)
22/07/2019 18:42 29,3 C 36,7 C 20,6 C 18,3 C 17,8 C 43 % 0 lf 0 lf 200 cb 200 cb 82 cb 1021,3 hPa 0,0 mm 1,5 km/h (1 Bft) N-NO 348 2 min 0,000 mm 1,2 UV-I 432 W/m 15,4 C 29,3 C 4,8 km/h (1 Bft)
22/07/2019 18:40 29,3 C 37,2 C 20,6 C 18,3 C 17,8 C 43 % 0 lf 0 lf 200 cb 200 cb 82 cb 1021,3 hPa 0,0 mm 4,3 km/h (1 Bft) O-NO 302 2 min 0,000 mm 1,2 UV-I 439 W/m 15,4 C 29,3 C 9,7 km/h (2 Bft)
22/07/2019 18:38 29,2 C 37,2 C 20,6 C 18,3 C 17,8 C 43 % 0 lf 0 lf 200 cb 200 cb 82 cb 1021,3 hPa 0,0 mm 4,1 km/h (1 Bft) N 352 2 min 0,000 mm 1,2 UV-I 443 W/m 15,3 C 29,2 C 8,0 km/h (2 Bft)
22/07/2019 18:36 29,5 C 37,2 C 20,6 C 18,3 C 17,8 C 43 % 0 lf 0 lf 200 cb 200 cb 82 cb 1021,4 hPa 0,0 mm 3,7 km/h (1 Bft) O 261 2 min 0,000 mm 1,3 UV-I 446 W/m 15,6 C 29,5 C 9,7 km/h (2 Bft)
22/07/2019 18:34 29,4 C 37,2 C 20,6 C 18,3 C 17,8 C 44 % 0 lf 0 lf 200 cb 200 cb 82 cb 1021,3 hPa 0,0 mm 0,9 km/h (0 Bft) O-SO 240 2 min 0,000 mm 1,3 UV-I 455 W/m 15,8 C 29,4 C 3,2 km/h (1 Bft)
22/07/2019 18:32 29,2 C 37,2 C 20,6 C 18,3 C 17,8 C 43 % 0 lf 0 lf 200 cb 200 cb 82 cb 1021,4 hPa 0,0 mm 3,3 km/h (1 Bft) NO 317 2 min 0,000 mm 1,3 UV-I 457 W/m 15,3 C 29,2 C 12,9 km/h (3 Bft)
22/07/2019 18:30 29,3 C 37,2 C 20,6 C 18,3 C 17,8 C 43 % 0 lf 0 lf 200 cb 200 cb 82 cb 1021,4 hPa 0,0 mm 2,7 km/h (1 Bft) N-NO 342 2 min 0,000 mm 1,4 UV-I 461 W/m 15,4 C 29,3 C 8,0 km/h (2 Bft)
22/07/2019 18:28 29,1 C 37,2 C 20,6 C 18,3 C 17,8 C 44 % 0 lf 0 lf 200 cb 200 cb 82 cb 1021,4 hPa 0,0 mm 2,6 km/h (1 Bft) N-NO 346 2 min 0,000 mm 1,4 UV-I 461 W/m 15,6 C 29,1 C 8,0 km/h (2 Bft)
22/07/2019 18:26 29,0 C 36,7 C 20,6 C 18,3 C 17,8 C 43 % 0 lf 0 lf 200 cb 200 cb 82 cb 1021,4 hPa 0,0 mm 0,9 km/h (0 Bft) O-NO 300 2 min 0,000 mm 1,4 UV-I 455 W/m 15,1 C 29,0 C 4,8 km/h (1 Bft)
22/07/2019 18:24 29,1 C 36,7 C 20,6 C 18,3 C 17,8 C 43 % 0 lf 0 lf 200 cb 200 cb 82 cb 1021,4 hPa 0,0 mm 3,1 km/h (1 Bft) O-NO 302 2 min 0,000 mm 1,4 UV-I 452 W/m 15,2 C 29,1 C 4,8 km/h (1 Bft)
22/07/2019 18:22 29,1 C 36,7 C 20,6 C 18,3 C 17,8 C 43 % 0 lf 0 lf 200 cb 200 cb 82 cb 1021,4 hPa 0,0 mm 2,6 km/h (1 Bft) NO 326 2 min 0,000 mm 1,4 UV-I 443 W/m 15,2 C 29,1 C 6,4 km/h (2 Bft)
22/07/2019 18:20 29,2 C 36,7 C 20,6 C 18,3 C 17,8 C 42 % 0 lf 0 lf 200 cb 200 cb 82 cb 1021,5 hPa 0,0 mm 3,4 km/h (1 Bft) O 272 2 min 0,000 mm 1,5 UV-I 455 W/m 14,9 C 29,2 C 9,7 km/h (2 Bft)
22/07/2019 18:18 29,4 C 36,7 C 20,6 C 18,3 C 17,8 C 43 % 0 lf 0 lf 200 cb 200 cb 82 cb 1021,4 hPa 0,0 mm 5,6 km/h (1 Bft) O-SO 258 2 min 0,000 mm 1,5 UV-I 452 W/m 15,5 C 29,4 C 11,3 km/h (2 Bft)
22/07/2019 18:16 29,5 C 37,2 C 20,6 C 18,3 C 17,8 C 44 % 0 lf 0 lf 200 cb 200 cb 82 cb 1021,5 hPa 0,0 mm 2,6 km/h (1 Bft) NO 311 2 min 0,000 mm 1,5 UV-I 464 W/m 15,9 C 29,5 C 9,7 km/h (2 Bft)
22/07/2019 18:14 29,2 C 36,7 C 20,6 C 18,3 C 17,8 C 41 % 0 lf 0 lf 200 cb 200 cb 82 cb 1021,4 hPa 0,0 mm 4,8 km/h (1 Bft) O-SO 244 2 min 0,000 mm 1,6 UV-I 471 W/m 14,6 C 29,2 C 8,0 km/h (2 Bft)
22/07/2019 18:12 29,4 C 37,2 C 20,6 C 18,3 C 17,8 C 42 % 0 lf 0 lf 200 cb 200 cb 82 cb 1021,4 hPa 0,0 mm 3,9 km/h (1 Bft) NO 304 2 min 0,000 mm 1,6 UV-I 487 W/m 15,1 C 29,4 C 12,9 km/h (3 Bft)
22/07/2019 18:10 29,5 C 37,2 C 20,6 C 18,3 C 17,8 C 42 % 0 lf 0 lf 200 cb 200 cb 82 cb 1021,5 hPa 0,0 mm 2,9 km/h (1 Bft) NO 323 2 min 0,000 mm 1,7 UV-I 496 W/m 15,2 C 29,5 C 8,0 km/h (2 Bft)
22/07/2019 18:08 29,7 C 37,2 C 20,6 C 18,3 C 17,8 C 41 % 0 lf 0 lf 200 cb 200 cb 82 cb 1021,5 hPa 0,0 mm 0,9 km/h (0 Bft) NO 325 2 min 0,000 mm 1,7 UV-I 504 W/m 15,0 C 29,7 C 4,8 km/h (1 Bft)
22/07/2019 18:06 29,8 C 37,2 C 20,6 C 18,3 C 17,8 C 41 % 0 lf 0 lf 200 cb 200 cb 82 cb 1021,4 hPa 0,0 mm 0,0 km/h (0 Bft) O 281 2 min 0,000 mm 1,7 UV-I 519 W/m 15,1 C 29,8 C 0,0 km/h (0 Bft)
22/07/2019 18:04 29,6 C 37,2 C 20,6 C 18,3 C 17,8 C 41 % 0 lf 0 lf 200 cb 200 cb 82 cb 1021,5 hPa 0,0 mm 1,3 km/h (1 Bft) O 281 2 min 0,000 mm 1,8 UV-I 522 W/m 14,9 C 29,6 C 4,8 km/h (1 Bft)
22/07/2019 18:02 29,8 C 37,2 C 20,6 C 18,3 C 17,8 C 41 % 0 lf 0 lf 200 cb 200 cb 82 cb 1021,5 hPa 0,0 mm 0,7 km/h (0 Bft) O-NO 300 2 min 0,000 mm 1,8 UV-I 531 W/m 15,1 C 29,8 C 4,8 km/h (1 Bft)
22/07/2019 18:00 29,8 C 37,2 C 20,6 C 18,3 C 17,8 C 41 % 0 lf 0 lf 200 cb 200 cb 82 cb 1021,5 hPa 0,0 mm 0,7 km/h (0 Bft) O-NO 300 2 min 0,407 mm 1,8 UV-I 538 W/m 15,1 C 29,8 C 3,2 km/h (1 Bft)
22/07/2019 17:58 29,7 C 36,7 C 20,6 C 18,3 C 17,8 C 40 % 0 lf 0 lf 200 cb 200 cb 82 cb 1021,5 hPa 0,0 mm 0,3 km/h (0 Bft) O-NO 287 2 min 0,000 mm 1,9 UV-I 541 W/m 14,6 C 29,7 C 3,2 km/h (1 Bft)
22/07/2019 17:56 29,8 C 36,7 C 20,6 C 18,3 C 17,8 C 40 % 0 lf 0 lf 200 cb 200 cb 82 cb 1021,5 hPa 0,0 mm 0,5 km/h (0 Bft) O-NO 289 2 min 0,000 mm 1,9 UV-I 545 W/m 14,7 C 29,8 C 3,2 km/h (1 Bft)
22/07/2019 17:54 29,7 C 36,1 C 20,6 C 18,3 C 17,8 C 41 % 0 lf 0 lf 200 cb 200 cb 82 cb 1021,6 hPa 0,0 mm 1,2 km/h (1 Bft) S-SO 205 2 min 0,000 mm 1,9 UV-I 554 W/m 15,0 C 29,7 C 4,8 km/h (1 Bft)
22/07/2019 17:52 29,6 C 36,1 C 20,6 C 18,3 C 17,8 C 41 % 0 lf 0 lf 200 cb 200 cb 82 cb 1021,6 hPa 0,0 mm 2,1 km/h (1 Bft) O 277 2 min 0,000 mm 2,0 UV-I 555 W/m 14,9 C 29,6 C 9,7 km/h (2 Bft)
22/07/2019 17:50 29,6 C 36,1 C 20,6 C 18,3 C 17,8 C 42 % 0 lf 0 lf 200 cb 200 cb 82 cb 1021,6 hPa 0,0 mm 4,4 km/h (1 Bft) NO 315 2 min 0,000 mm 2,0 UV-I 559 W/m 15,3 C 29,6 C 12,9 km/h (3 Bft)
22/07/2019 17:48 29,6 C 36,1 C 20,6 C 18,3 C 17,8 C 42 % 0 lf 0 lf 200 cb 200 cb 82 cb 1021,6 hPa 0,0 mm 6,0 km/h (2 Bft) O 259 2 min 0,000 mm 2,1 UV-I 568 W/m 15,3 C 29,6 C 12,9 km/h (3 Bft)
22/07/2019 17:46 29,6 C 36,1 C 20,6 C 18,3 C 17,8 C 41 % 0 lf 0 lf 200 cb 200 cb 82 cb 1021,6 hPa 0,0 mm 6,1 km/h (2 Bft) NO 319 2 min 0,000 mm 2,1 UV-I 571 W/m 14,9 C 29,6 C 14,5 km/h (3 Bft)
22/07/2019 17:44 29,9 C 36,1 C 20,6 C 18,3 C 17,8 C 41 % 0 lf 0 lf 200 cb 200 cb 82 cb 1021,6 hPa 0,0 mm 5,6 km/h (1 Bft) O-NO 295 2 min 0,000 mm 2,1 UV-I 575 W/m 15,2 C 29,9 C 11,3 km/h (2 Bft)
22/07/2019 17:42 29,8 C 36,1 C 20,6 C 18,3 C 17,8 C 43 % 0 lf 0 lf 200 cb 200 cb 82 cb 1021,6 hPa 0,0 mm 1,5 km/h (1 Bft) O-NO 297 2 min 0,000 mm 2,2 UV-I 582 W/m 15,8 C 29,8 C 8,0 km/h (2 Bft)
22/07/2019 17:40 29,8 C 36,1 C 20,6 C 18,3 C 17,8 C 43 % 0 lf 0 lf 200 cb 200 cb 82 cb 1021,6 hPa 0,0 mm 3,0 km/h (1 Bft) NO 304 2 min 0,000 mm 2,2 UV-I 580 W/m 15,8 C 29,8 C 11,3 km/h (2 Bft)
22/07/2019 17:38 29,7 C 36,1 C 20,6 C 18,3 C 17,8 C 42 % 0 lf 0 lf 200 cb 200 cb 82 cb 1021,6 hPa 0,0 mm 1,0 km/h (0 Bft) O 277 2 min 0,000 mm 2,2 UV-I 584 W/m 15,4 C 29,7 C 4,8 km/h (1 Bft)
22/07/2019 17:36 29,4 C 35,6 C 20,6 C 18,3 C 17,8 C 43 % 0 lf 0 lf 200 cb 200 cb 82 cb 1021,7 hPa 0,0 mm 1,3 km/h (1 Bft) O-SO 254 2 min 0,000 mm 2,2 UV-I 591 W/m 15,5 C 29,4 C 3,2 km/h (1 Bft)
22/07/2019 17:34 29,3 C 35,6 C 20,6 C 18,3 C 17,8 C 43 % 0 lf 0 lf 200 cb 200 cb 82 cb 1021,7 hPa 0,0 mm 3,5 km/h (1 Bft) N-NO 333 2 min 0,000 mm 2,3 UV-I 594 W/m 15,4 C 29,3 C 9,7 km/h (2 Bft)
22/07/2019 17:32 29,3 C 35,6 C 20,6 C 18,3 C 17,8 C 43 % 0 lf 0 lf 200 cb 200 cb 82 cb 1021,7 hPa 0,0 mm 4,2 km/h (1 Bft) N 3 2 min 0,000 mm 2,3 UV-I 598 W/m 15,4 C 29,3 C 14,5 km/h (3 Bft)
22/07/2019 17:30 29,4 C 35,6 C 20,6 C 18,3 C 17,8 C 42 % 0 lf 0 lf 200 cb 200 cb 82 cb 1021,8 hPa 0,0 mm 5,1 km/h (1 Bft) O-NO 296 2 min 0,000 mm 2,3 UV-I 603 W/m 15,1 C 29,4 C 14,5 km/h (3 Bft)
22/07/2019 17:28 29,4 C 35,0 C 20,6 C 18,3 C 17,8 C 43 % 0 lf 0 lf 200 cb 200 cb 82 cb 1021,8 hPa 0,0 mm 4,6 km/h (1 Bft) N 360 2 min 0,000 mm 2,4 UV-I 608 W/m 15,5 C 29,4 C 11,3 km/h (2 Bft)
22/07/2019 17:26 29,2 C 35,0 C 20,0 C 18,3 C 17,8 C 44 % 0 lf 0 lf 200 cb 200 cb 82 cb 1021,8 hPa 0,0 mm 1,5 km/h (1 Bft) N-NO 327 2 min 0,000 mm 2,4 UV-I 610 W/m 15,7 C 29,2 C 9,7 km/h (2 Bft)
22/07/2019 17:24 29,1 C 35,0 C 20,0 C 18,3 C 17,8 C 43 % 0 lf 0 lf 200 cb 200 cb 82 cb 1021,9 hPa 0,0 mm 1,0 km/h (0 Bft) O-NO 301 2 min 0,000 mm 2,4 UV-I 612 W/m 15,2 C 29,1 C 6,4 km/h (2 Bft)
22/07/2019 17:22 28,8 C 35,0 C 20,0 C 18,3 C 17,8 C 43 % 0 lf 0 lf 200 cb 200 cb 82 cb 1021,9 hPa 0,0 mm 6,3 km/h (2 Bft) NO 318 2 min 0,000 mm 2,4 UV-I 615 W/m 15,0 C 28,8 C 12,9 km/h (3 Bft)
22/07/2019 17:20 28,7 C 35,0 C 20,0 C 18,3 C 17,8 C 45 % 0 lf 0 lf 200 cb 200 cb 82 cb 1021,9 hPa 0,0 mm 3,7 km/h (1 Bft) O 268 2 min 0,000 mm 2,4 UV-I 594 W/m 15,6 C 28,7 C 9,7 km/h (2 Bft)
22/07/2019 17:18 28,7 C 34,4 C 20,0 C 18,3 C 17,8 C 43 % 0 lf 0 lf 200 cb 200 cb 82 cb 1021,9 hPa 0,0 mm 4,7 km/h (1 Bft) O 279 2 min 0,000 mm 2,3 UV-I 524 W/m 14,9 C 28,7 C 11,3 km/h (2 Bft)
22/07/2019 17:16 28,8 C 35,0 C 20,0 C 18,3 C 17,8 C 43 % 0 lf 0 lf 200 cb 200 cb 82 cb 1021,9 hPa 0,0 mm 3,7 km/h (1 Bft) O 281 2 min 0,000 mm 2,2 UV-I 480 W/m 15,0 C 28,8 C 11,3 km/h (2 Bft)
22/07/2019 17:14 28,8 C 35,0 C 20,0 C 18,3 C 17,8 C 43 % 0 lf 0 lf 200 cb 200 cb 82 cb 1021,9 hPa 0,0 mm 3,4 km/h (1 Bft) N-NO 332 2 min 0,000 mm 2,3 UV-I 512 W/m 15,0 C 28,8 C 9,7 km/h (2 Bft)
22/07/2019 17:12 29,0 C 35,6 C 20,0 C 18,3 C 17,8 C 43 % 0 lf 0 lf 200 cb 200 cb 82 cb 1022,0 hPa 0,0 mm 6,7 km/h (2 Bft) NO 316 2 min 0,000 mm 2,3 UV-I 504 W/m 15,1 C 29,0 C 12,9 km/h (3 Bft)
22/07/2019 17:10 29,3 C 35,6 C 20,0 C 18,3 C 17,8 C 42 % 0 lf 0 lf 200 cb 200 cb 82 cb 1021,9 hPa 0,0 mm 5,1 km/h (1 Bft) O-NO 303 2 min 0,000 mm 2,5 UV-I 568 W/m 15,0 C 29,3 C 14,5 km/h (3 Bft)
22/07/2019 17:08 29,3 C 35,6 C 20,0 C 18,3 C 17,8 C 42 % 0 lf 0 lf 200 cb 200 cb 82 cb 1021,9 hPa 0,0 mm 3,9 km/h (1 Bft) O 259 2 min 0,000 mm 2,5 UV-I 577 W/m 15,0 C 29,3 C 9,7 km/h (2 Bft)
22/07/2019 17:06 29,2 C 36,1 C 20,0 C 18,3 C 17,8 C 43 % 0 lf 0 lf 200 cb 200 cb 82 cb 1022,0 hPa 0,0 mm 4,5 km/h (1 Bft) O 273 2 min 0,000 mm 2,4 UV-I 499 W/m 15,3 C 29,2 C 14,5 km/h (3 Bft)
22/07/2019 17:04 29,1 C 36,1 C 20,0 C 18,3 C 17,8 C 43 % 0 lf 0 lf 200 cb 200 cb 82 cb 1022,0 hPa 0,0 mm 4,5 km/h (1 Bft) O-NO 299 2 min 0,000 mm 2,5 UV-I 552 W/m 15,2 C 29,1 C 12,9 km/h (3 Bft)
22/07/2019 17:02 29,2 C 36,7 C 20,0 C 18,3 C 17,8 C 42 % 0 lf 0 lf 200 cb 200 cb 82 cb 1021,9 hPa 0,0 mm 3,3 km/h (1 Bft) NO 316 2 min 0,000 mm 2,7 UV-I 613 W/m 14,9 C 29,2 C 9,7 km/h (2 Bft)
22/07/2019 17:00 29,3 C 36,7 C 20,0 C 18,3 C 17,8 C 42 % 0 lf 0 lf 200 cb 200 cb 82 cb 1022,0 hPa 0,0 mm 5,4 km/h (1 Bft) O 271 2 min 0,508 mm 2,8 UV-I 629 W/m 15,0 C 29,3 C 12,9 km/h (3 Bft)
22/07/2019 16:58 29,4 C 37,2 C 20,0 C 18,3 C 17,8 C 42 % 0 lf 0 lf 200 cb 200 cb 82 cb 1021,9 hPa 0,0 mm 4,6 km/h (1 Bft) NO 304 2 min 0,000 mm 2,8 UV-I 649 W/m 15,1 C 29,4 C 14,5 km/h (3 Bft)
22/07/2019 16:56 29,6 C 37,8 C 20,0 C 18,3 C 17,8 C 42 % 0 lf 0 lf 200 cb 200 cb 82 cb 1022,0 hPa 0,0 mm 0,2 km/h (0 Bft) SO 216 2 min 0,000 mm 2,9 UV-I 663 W/m 15,3 C 29,6 C 1,6 km/h (1 Bft)
22/07/2019 16:54 29,7 C 37,2 C 20,0 C 18,3 C 17,8 C 42 % 0 lf 0 lf 200 cb 200 cb 82 cb 1022,0 hPa 0,0 mm 3,5 km/h (1 Bft) S-SO 202 2 min 0,000 mm 2,9 UV-I 670 W/m 15,4 C 29,7 C 9,7 km/h (2 Bft)
22/07/2019 16:52 29,7 C 37,2 C 20,0 C 18,3 C 17,8 C 42 % 0 lf 0 lf 200 cb 200 cb 82 cb 1022,0 hPa 0,0 mm 3,7 km/h (1 Bft) O-SO 250 2 min 0,000 mm 3,0 UV-I 682 W/m 15,4 C 29,7 C 9,7 km/h (2 Bft)
22/07/2019 16:50 29,7 C 36,7 C 20,0 C 18,3 C 17,8 C 41 % 0 lf 0 lf 200 cb 200 cb 82 cb 1022,0 hPa 0,0 mm 5,4 km/h (1 Bft) O 272 2 min 0,000 mm 3,0 UV-I 687 W/m 15,0 C 29,7 C 9,7 km/h (2 Bft)
22/07/2019 16:48 29,6 C 36,7 C 20,0 C 18,3 C 17,8 C 43 % 0 lf 0 lf 200 cb 200 cb 82 cb 1022,0 hPa 0,0 mm 2,3 km/h (1 Bft) SO 221 2 min 0,000 mm 3,1 UV-I 686 W/m 15,7 C 29,6 C 6,4 km/h (2 Bft)
22/07/2019 16:46 29,4 C 36,1 C 20,0 C 18,3 C 17,8 C 41 % 0 lf 0 lf 200 cb 200 cb 82 cb 1022,1 hPa 0,0 mm 5,2 km/h (1 Bft) O-NO 298 2 min 0,000 mm 3,1 UV-I 689 W/m 14,7 C 29,4 C 9,7 km/h (2 Bft)
22/07/2019 16:44 29,5 C 36,1 C 20,0 C 18,3 C 17,8 C 42 % 0 lf 0 lf 200 cb 200 cb 82 cb 1022,1 hPa 0,0 mm 3,7 km/h (1 Bft) NO 325 2 min 0,000 mm 3,1 UV-I 689 W/m 15,2 C 29,5 C 9,7 km/h (2 Bft)
22/07/2019 16:42 29,2 C 36,1 C 20,0 C 18,3 C 17,8 C 42 % 0 lf 0 lf 200 cb 200 cb 82 cb 1022,1 hPa 0,0 mm 7,0 km/h (2 Bft) O-NO 291 2 min 0,000 mm 3,1 UV-I 661 W/m 14,9 C 29,1 C 14,5 km/h (3 Bft)
22/07/2019 16:40 29,4 C 36,1 C 20,0 C 18,3 C 17,8 C 43 % 0 lf 0 lf 200 cb 200 cb 82 cb 1022,1 hPa 0,0 mm 3,6 km/h (1 Bft) O 265 2 min 0,000 mm 3,1 UV-I 670 W/m 15,5 C 29,4 C 12,9 km/h (3 Bft)
22/07/2019 16:38 29,2 C 36,7 C 20,0 C 18,3 C 17,8 C 43 % 0 lf 0 lf 200 cb 200 cb 82 cb 1022,0 hPa 0,0 mm 0,5 km/h (0 Bft) NO 323 2 min 0,000 mm 3,2 UV-I 696 W/m 15,3 C 29,2 C 4,8 km/h (1 Bft)
22/07/2019 16:36 29,3 C 36,7 C 20,0 C 18,3 C 17,8 C 43 % 0 lf 0 lf 200 cb 200 cb 82 cb 1022,1 hPa 0,0 mm 4,0 km/h (1 Bft) O-NO 283 2 min 0,000 mm 3,2 UV-I 698 W/m 15,4 C 29,3 C 11,3 km/h (2 Bft)
22/07/2019 16:34 29,4 C 36,7 C 20,0 C 18,3 C 17,8 C 42 % 0 lf 0 lf 200 cb 200 cb 82 cb 1022,1 hPa 0,0 mm 1,1 km/h (1 Bft) N-NO 334 2 min 0,000 mm 3,2 UV-I 693 W/m 15,1 C 29,4 C 4,8 km/h (1 Bft)
22/07/2019 16:32 29,5 C 36,7 C 20,0 C 18,3 C 17,8 C 43 % 0 lf 0 lf 200 cb 200 cb 82 cb 1022,1 hPa 0,0 mm 3,3 km/h (1 Bft) O-SO 253 2 min 0,000 mm 3,3 UV-I 694 W/m 15,6 C 29,5 C 9,7 km/h (2 Bft)
22/07/2019 16:30 29,3 C 36,1 C 20,0 C 18,3 C 17,8 C 43 % 0 lf 0 lf 200 cb 200 cb 82 cb 1022,2 hPa 0,0 mm 3,9 km/h (1 Bft) O 274 2 min 0,000 mm 3,3 UV-I 703 W/m 15,4 C 29,3 C 12,9 km/h (3 Bft)
22/07/2019 16:28 29,4 C 36,1 C 20,0 C 18,3 C 17,8 C 42 % 0 lf 0 lf 200 cb 200 cb 82 cb 1022,1 hPa 0,0 mm 4,8 km/h (1 Bft) NO 308 2 min 0,000 mm 3,4 UV-I 703 W/m 15,1 C 29,4 C 11,3 km/h (2 Bft)
22/07/2019 16:26 29,3 C 36,1 C 20,0 C 18,3 C 17,8 C 42 % 0 lf 0 lf 200 cb 200 cb 82 cb 1022,1 hPa 0,0 mm 3,9 km/h (1 Bft) O-NO 294 2 min 0,000 mm 3,4 UV-I 710 W/m 15,0 C 29,3 C 9,7 km/h (2 Bft)
22/07/2019 16:24 29,3 C 36,1 C 20,0 C 18,3 C 17,8 C 43 % 0 lf 0 lf 200 cb 200 cb 82 cb 1022,1 hPa 0,0 mm 3,6 km/h (1 Bft) O-SO 256 2 min 0,000 mm 3,4 UV-I 712 W/m 15,4 C 29,3 C 12,9 km/h (3 Bft)
22/07/2019 16:22 29,0 C 36,1 C 20,0 C 18,3 C 17,8 C 45 % 0 lf 0 lf 200 cb 200 cb 82 cb 1022,1 hPa 0,0 mm 2,1 km/h (1 Bft) NO 311 2 min 0,000 mm 3,5 UV-I 714 W/m 15,8 C 29,0 C 4,8 km/h (1 Bft)
22/07/2019 16:20 29,1 C 35,6 C 20,0 C 18,3 C 17,8 C 43 % 0 lf 0 lf 200 cb 200 cb 82 cb 1022,1 hPa 0,0 mm 1,1 km/h (1 Bft) NO 306 2 min 0,000 mm 3,5 UV-I 717 W/m 15,2 C 29,1 C 4,8 km/h (1 Bft)
22/07/2019 16:18 29,3 C 36,1 C 20,0 C 18,3 C 17,8 C 43 % 0 lf 0 lf 200 cb 200 cb 82 cb 1022,2 hPa 0,0 mm 4,1 km/h (1 Bft) O-SO 258 2 min 0,000 mm 3,5 UV-I 714 W/m 15,4 C 29,3 C 9,7 km/h (2 Bft)
22/07/2019 16:16 29,6 C 36,1 C 20,0 C 18,3 C 17,8 C 42 % 0 lf 0 lf 200 cb 200 cb 81 cb 1022,2 hPa 0,0 mm 4,0 km/h (1 Bft) O-NO 286 2 min 0,000 mm 3,5 UV-I 715 W/m 15,3 C 29,6 C 11,3 km/h (2 Bft)
22/07/2019 16:14 29,9 C 36,7 C 20,0 C 18,3 C 17,8 C 42 % 0 lf 0 lf 200 cb 200 cb 81 cb 1022,3 hPa 0,0 mm 2,6 km/h (1 Bft) O-NO 288 2 min 0,000 mm 3,6 UV-I 722 W/m 15,6 C 29,9 C 9,7 km/h (2 Bft)
22/07/2019 16:12 29,7 C 36,1 C 20,0 C 18,3 C 17,8 C 44 % 0 lf 0 lf 200 cb 200 cb 81 cb 1022,2 hPa 0,0 mm 3,5 km/h (1 Bft) O-NO 303 2 min 0,000 mm 3,6 UV-I 724 W/m 16,1 C 29,7 C 11,3 km/h (2 Bft)
22/07/2019 16:10 29,1 C 35,6 C 20,0 C 18,3 C 17,8 C 45 % 0 lf 0 lf 200 cb 200 cb 81 cb 1022,2 hPa 0,0 mm 3,8 km/h (1 Bft) O-SO 258 2 min 0,000 mm 3,6 UV-I 729 W/m 15,9 C 29,1 C 6,4 km/h (2 Bft)
22/07/2019 16:08 29,0 C 36,1 C 20,0 C 18,3 C 17,8 C 44 % 0 lf 0 lf 200 cb 200 cb 81 cb 1022,3 hPa 0,0 mm 3,2 km/h (1 Bft) NO 319 2 min 0,000 mm 3,7 UV-I 731 W/m 15,5 C 29,0 C 8,0 km/h (2 Bft)
22/07/2019 16:06 29,0 C 36,1 C 20,0 C 18,3 C 17,8 C 44 % 0 lf 0 lf 200 cb 200 cb 81 cb 1022,2 hPa 0,0 mm 5,7 km/h (1 Bft) SO 217 2 min 0,000 mm 3,7 UV-I 738 W/m 15,5 C 29,0 C 14,5 km/h (3 Bft)
22/07/2019 16:04 29,1 C 36,1 C 20,0 C 18,3 C 17,8 C 43 % 0 lf 0 lf 200 cb 200 cb 81 cb 1022,3 hPa 0,0 mm 3,7 km/h (1 Bft) O-NO 285 2 min 0,000 mm 3,7 UV-I 737 W/m 15,2 C 29,1 C 9,7 km/h (2 Bft)
22/07/2019 16:02 29,1 C 36,7 C 20,0 C 18,3 C 17,8 C 44 % 0 lf 0 lf 200 cb 200 cb 81 cb 1022,3 hPa 0,0 mm 8,2 km/h (2 Bft) O 276 2 min 0,000 mm 3,8 UV-I 740 W/m 15,6 C 28,9 C 14,5 km/h (3 Bft)
22/07/2019 16:00 29,0 C 36,1 C 20,0 C 18,3 C 17,8 C 45 % 0 lf 0 lf 200 cb 200 cb 81 cb 1022,3 hPa 0,0 mm 4,4 km/h (1 Bft) O-SO 256 2 min 0,533 mm 3,8 UV-I 744 W/m 15,8 C 29,0 C 11,3 km/h (2 Bft)
22/07/2019 15:58 28,9 C 36,1 C 20,0 C 18,3 C 17,8 C 43 % 0 lf 0 lf 200 cb 200 cb 81 cb 1022,4 hPa 0,0 mm 7,3 km/h (2 Bft) O-NO 294 2 min 0,000 mm 3,8 UV-I 749 W/m 15,0 C 28,8 C 11,3 km/h (2 Bft)
22/07/2019 15:56 28,9 C 36,7 C 20,0 C 18,3 C 17,8 C 43 % 0 lf 0 lf 200 cb 200 cb 81 cb 1022,4 hPa 0,0 mm 8,6 km/h (2 Bft) NO 321 2 min 0,000 mm 3,8 UV-I 754 W/m 15,0 C 28,6 C 16,1 km/h (3 Bft)
22/07/2019 15:54 28,8 C 37,2 C 20,0 C 18,3 C 17,8 C 45 % 0 lf 0 lf 200 cb 200 cb 81 cb 1022,3 hPa 0,0 mm 5,7 km/h (1 Bft) O 265 2 min 0,000 mm 3,9 UV-I 756 W/m 15,7 C 28,8 C 11,3 km/h (2 Bft)
22/07/2019 15:52 28,7 C 37,2 C 20,0 C 18,3 C 17,8 C 44 % 0 lf 0 lf 200 cb 200 cb 81 cb 1022,4 hPa 0,0 mm 4,5 km/h (1 Bft) SO 231 2 min 0,000 mm 3,9 UV-I 756 W/m 15,2 C 28,7 C 9,7 km/h (2 Bft)
22/07/2019 15:50 28,7 C 36,7 C 20,0 C 18,3 C 17,8 C 44 % 0 lf 0 lf 200 cb 200 cb 81 cb 1022,4 hPa 0,0 mm 5,3 km/h (1 Bft) SO 231 2 min 0,000 mm 4,0 UV-I 766 W/m 15,2 C 28,7 C 9,7 km/h (2 Bft)
22/07/2019 15:48 28,6 C 36,7 C 20,0 C 18,3 C 17,8 C 45 % 0 lf 0 lf 200 cb 200 cb 81 cb 1022,4 hPa 0,0 mm 7,7 km/h (2 Bft) SO 214 2 min 0,000 mm 4,0 UV-I 773 W/m 15,5 C 28,4 C 17,7 km/h (3 Bft)
22/07/2019 15:46 28,6 C 36,1 C 20,0 C 18,3 C 17,8 C 46 % 0 lf 0 lf 200 cb 200 cb 81 cb 1022,5 hPa 0,0 mm 6,5 km/h (2 Bft) S-SO 194 2 min 0,000 mm 4,0 UV-I 777 W/m 15,8 C 28,6 C 12,9 km/h (3 Bft)
22/07/2019 15:44 28,6 C 35,6 C 20,0 C 18,3 C 17,8 C 46 % 0 lf 0 lf 200 cb 200 cb 81 cb 1022,5 hPa 0,0 mm 10,2 km/h (2 Bft) O-SO 254 2 min 0,000 mm 4,0 UV-I 775 W/m 15,8 C 28,1 C 17,7 km/h (3 Bft)
22/07/2019 15:42 28,4 C 35,6 C 20,0 C 18,3 C 17,8 C 47 % 0 lf 0 lf 200 cb 200 cb 81 cb 1022,4 hPa 0,0 mm 4,5 km/h (1 Bft) O 274 2 min 0,000 mm 4,1 UV-I 773 W/m 16,0 C 28,4 C 20,9 km/h (4 Bft)
22/07/2019 15:40 28,4 C 36,1 C 20,0 C 18,3 C 17,8 C 46 % 0 lf 0 lf 200 cb 200 cb 81 cb 1022,4 hPa 0,0 mm 2,3 km/h (1 Bft) O 272 2 min 0,000 mm 4,1 UV-I 775 W/m 15,6 C 28,4 C 9,7 km/h (2 Bft)
22/07/2019 15:38 28,6 C 36,1 C 20,0 C 18,3 C 17,8 C 47 % 0 lf 0 lf 200 cb 200 cb 81 cb 1022,5 hPa 0,0 mm 0,1 km/h (0 Bft) NO 311 2 min 0,000 mm 4,1 UV-I 775 W/m 16,2 C 28,6 C 3,2 km/h (1 Bft)
22/07/2019 15:36 28,7 C 36,1 C 20,0 C 18,3 C 17,8 C 45 % 0 lf 0 lf 200 cb 200 cb 81 cb 1022,5 hPa 0,0 mm 1,4 km/h (1 Bft) NO 311 2 min 0,000 mm 4,1 UV-I 770 W/m 15,6 C 28,7 C 6,4 km/h (2 Bft)
22/07/2019 15:34 28,7 C 36,7 C 20,0 C 18,3 C 17,8 C 46 % 0 lf 0 lf 200 cb 200 cb 81 cb 1022,5 hPa 0,0 mm 3,7 km/h (1 Bft) O 268 2 min 0,000 mm 4,1 UV-I 779 W/m 15,9 C 28,7 C 8,0 km/h (2 Bft)
22/07/2019 15:32 28,6 C 36,1 C 20,0 C 18,3 C 17,8 C 46 % 0 lf 0 lf 200 cb 200 cb 81 cb 1022,5 hPa 0,0 mm 5,1 km/h (1 Bft) SO 219 2 min 0,000 mm 4,1 UV-I 777 W/m 15,8 C 28,6 C 11,3 km/h (2 Bft)
22/07/2019 15:30 28,8 C 36,1 C 20,0 C 18,3 C 17,8 C 45 % 0 lf 0 lf 200 cb 200 cb 81 cb 1022,5 hPa 0,0 mm 4,8 km/h (1 Bft) O-SO 242 2 min 0,000 mm 4,1 UV-I 772 W/m 15,7 C 28,8 C 12,9 km/h (3 Bft)
22/07/2019 15:28 28,7 C 35,6 C 20,0 C 18,3 C 17,8 C 46 % 0 lf 0 lf 200 cb 200 cb 81 cb 1022,6 hPa 0,0 mm 6,6 km/h (2 Bft) SO 224 2 min 0,000 mm 4,1 UV-I 777 W/m 15,9 C 28,7 C 12,9 km/h (3 Bft)
22/07/2019 15:26 28,4 C 35,0 C 20,0 C 18,3 C 17,8 C 45 % 0 lf 0 lf 200 cb 200 cb 81 cb 1022,5 hPa 0,0 mm 2,7 km/h (1 Bft) O 281 2 min 0,000 mm 4,1 UV-I 770 W/m 15,3 C 28,4 C 9,7 km/h (2 Bft)
22/07/2019 15:24 28,3 C 35,0 C 20,0 C 18,3 C 17,8 C 45 % 0 lf 0 lf 200 cb 200 cb 81 cb 1022,5 hPa 0,0 mm 2,7 km/h (1 Bft) O 281 2 min 0,000 mm 4,1 UV-I 770 W/m 15,2 C 28,3 C 8,0 km/h (2 Bft)
22/07/2019 15:22 28,1 C 34,4 C 20,0 C 18,3 C 17,8 C 44 % 0 lf 0 lf 200 cb 200 cb 81 cb 1022,6 hPa 0,0 mm 3,9 km/h (1 Bft) O-SO 239 2 min 0,000 mm 3,9 UV-I 740 W/m 14,7 C 28,1 C 11,3 km/h (2 Bft)
22/07/2019 15:20 27,9 C 34,4 C 20,0 C 18,3 C 17,8 C 45 % 0 lf 0 lf 200 cb 200 cb 81 cb 1022,6 hPa 0,0 mm 4,9 km/h (1 Bft) O 271 2 min 0,000 mm 3,9 UV-I 745 W/m 14,8 C 27,9 C 11,3 km/h (2 Bft)
22/07/2019 15:18 27,9 C 34,4 C 19,4 C 18,3 C 17,8 C 45 % 0 lf 0 lf 200 cb 200 cb 81 cb 1022,6 hPa 0,0 mm 8,6 km/h (2 Bft) O-SO 245 2 min 0,000 mm 3,8 UV-I 729 W/m 14,8 C 27,6 C 14,5 km/h (3 Bft)
22/07/2019 15:16 27,7 C 34,4 C 19,4 C 18,3 C 17,8 C 47 % 0 lf 0 lf 200 cb 200 cb 81 cb 1022,6 hPa 0,0 mm 4,4 km/h (1 Bft) O 276 2 min 0,000 mm 3,9 UV-I 735 W/m 15,3 C 27,7 C 14,5 km/h (3 Bft)
22/07/2019 15:14 27,8 C 34,4 C 19,4 C 18,3 C 17,8 C 45 % 0 lf 0 lf 200 cb 200 cb 81 cb 1022,6 hPa 0,0 mm 2,9 km/h (1 Bft) O 278 2 min 0,000 mm 3,9 UV-I 763 W/m 14,8 C 27,8 C 4,8 km/h (1 Bft)
22/07/2019 15:12 28,5 C 35,0 C 19,4 C 18,3 C 17,8 C 44 % 0 lf 0 lf 200 cb 200 cb 81 cb 1022,6 hPa 0,0 mm 6,2 km/h (2 Bft) O 281 2 min 0,000 mm 3,9 UV-I 763 W/m 15,0 C 28,5 C 11,3 km/h (2 Bft)
22/07/2019 15:10 28,6 C 35,0 C 19,4 C 18,3 C 17,8 C 46 % 0 lf 0 lf 200 cb 200 cb 81 cb 1022,7 hPa 0,0 mm 3,8 km/h (1 Bft) NO 318 2 min 0,000 mm 3,9 UV-I 773 W/m 15,8 C 28,6 C 12,9 km/h (3 Bft)
22/07/2019 15:08 28,2 C 34,4 C 19,4 C 18,3 C 17,8 C 49 % 0 lf 0 lf 200 cb 200 cb 81 cb 1022,6 hPa 0,0 mm 0,4 km/h (0 Bft) O 276 2 min 0,000 mm 3,9 UV-I 772 W/m 16,5 C 28,2 C 1,6 km/h (1 Bft)
22/07/2019 15:06 27,9 C 34,4 C 19,4 C 18,3 C 17,8 C 47 % 0 lf 0 lf 200 cb 200 cb 81 cb 1022,6 hPa 0,0 mm 2,0 km/h (1 Bft) O 275 2 min 0,000 mm 3,7 UV-I 749 W/m 15,5 C 27,9 C 4,8 km/h (1 Bft)
22/07/2019 15:04 28,1 C 34,4 C 19,4 C 18,3 C 17,8 C 47 % 0 lf 0 lf 200 cb 200 cb 81 cb 1022,7 hPa 0,0 mm 1,0 km/h (0 Bft) O 269 2 min 0,000 mm 3,7 UV-I 726 W/m 15,7 C 28,1 C 8,0 km/h (2 Bft)
22/07/2019 15:02 28,2 C 34,4 C 19,4 C 18,3 C 17,8 C 45 % 0 lf 0 lf 200 cb 200 cb 81 cb 1022,7 hPa 0,0 mm 5,7 km/h (1 Bft) NO 306 2 min 0,000 mm 3,7 UV-I 705 W/m 15,1 C 28,2 C 14,5 km/h (3 Bft)
22/07/2019 15:00 28,4 C 34,4 C 19,4 C 18,3 C 17,8 C 45 % 0 lf 0 lf 200 cb 200 cb 81 cb 1022,6 hPa 0,0 mm 7,7 km/h (2 Bft) O-NO 283 2 min 0,559 mm 3,7 UV-I 656 W/m 15,3 C 28,2 C 12,9 km/h (3 Bft)
22/07/2019 14:58 28,4 C 34,4 C 19,4 C 18,3 C 17,8 C 46 % 0 lf 0 lf 200 cb 200 cb 81 cb 1022,7 hPa 0,0 mm 3,5 km/h (1 Bft) O-NO 296 2 min 0,000 mm 3,6 UV-I 668 W/m 15,6 C 28,4 C 12,9 km/h (3 Bft)
22/07/2019 14:56 28,3 C 34,4 C 19,4 C 18,3 C 17,8 C 46 % 0 lf 0 lf 200 cb 200 cb 81 cb 1022,7 hPa 0,0 mm 2,4 km/h (1 Bft) O-NO 282 2 min 0,000 mm 3,8 UV-I 719 W/m 15,6 C 28,3 C 9,7 km/h (2 Bft)
22/07/2019 14:54 28,3 C 34,4 C 19,4 C 18,3 C 17,8 C 46 % 0 lf 0 lf 200 cb 200 cb 81 cb 1022,8 hPa 0,0 mm 5,7 km/h (1 Bft) O 266 2 min 0,000 mm 3,8 UV-I 735 W/m 15,6 C 28,3 C 11,3 km/h (2 Bft)
22/07/2019 14:52 28,2 C 34,4 C 19,4 C 18,3 C 17,8 C 47 % 0 lf 0 lf 200 cb 200 cb 81 cb 1022,8 hPa 0,0 mm 3,6 km/h (1 Bft) O-SO 244 2 min 0,000 mm 3,9 UV-I 715 W/m 15,8 C 28,2 C 11,3 km/h (2 Bft)
22/07/2019 14:50 28,1 C 34,4 C 19,4 C 18,3 C 17,8 C 48 % 0 lf 0 lf 200 cb 200 cb 81 cb 1022,8 hPa 0,0 mm 4,7 km/h (1 Bft) N-NO 327 2 min 0,000 mm 3,9 UV-I 694 W/m 16,0 C 28,1 C 12,9 km/h (3 Bft)
22/07/2019 14:48 27,8 C 34,4 C 19,4 C 18,3 C 17,8 C 48 % 0 lf 0 lf 200 cb 200 cb 81 cb 1022,8 hPa 0,0 mm 2,3 km/h (1 Bft) S-SO 209 2 min 0,000 mm 4,0 UV-I 691 W/m 15,8 C 27,8 C 8,0 km/h (2 Bft)
22/07/2019 14:46 27,4 C 34,4 C 19,4 C 18,3 C 17,8 C 48 % 0 lf 0 lf 200 cb 200 cb 81 cb 1022,8 hPa 0,0 mm 0,5 km/h (0 Bft) O-NO 282 2 min 0,000 mm 4,1 UV-I 680 W/m 15,4 C 27,4 C 1,6 km/h (1 Bft)
22/07/2019 14:44 27,4 C 34,4 C 19,4 C 18,3 C 17,8 C 48 % 0 lf 0 lf 200 cb 200 cb 81 cb 1022,9 hPa 0,0 mm 6,7 km/h (2 Bft) O 281 2 min 0,000 mm 4,2 UV-I 705 W/m 15,4 C 27,4 C 12,9 km/h (3 Bft)
22/07/2019 14:42 27,6 C 34,4 C 19,4 C 18,3 C 17,8 C 48 % 0 lf 0 lf 200 cb 200 cb 81 cb 1022,9 hPa 0,0 mm 7,0 km/h (2 Bft) O-SO 248 2 min 0,000 mm 4,6 UV-I 768 W/m 15,6 C 27,5 C 12,9 km/h (3 Bft)
22/07/2019 14:40 27,8 C 34,4 C 19,4 C 18,3 C 17,8 C 48 % 0 lf 0 lf 200 cb 200 cb 81 cb 1022,9 hPa 0,0 mm 5,0 km/h (1 Bft) O 261 2 min 0,000 mm 4,7 UV-I 833 W/m 15,8 C 27,8 C 9,7 km/h (2 Bft)
22/07/2019 14:38 27,9 C 34,4 C 19,4 C 18,3 C 17,8 C 48 % 0 lf 0 lf 200 cb 200 cb 81 cb 1022,9 hPa 0,0 mm 3,9 km/h (1 Bft) O-NO 292 2 min 0,000 mm 4,7 UV-I 835 W/m 15,9 C 27,9 C 11,3 km/h (2 Bft)
22/07/2019 14:36 28,2 C 35,0 C 19,4 C 18,3 C 17,8 C 46 % 0 lf 0 lf 200 cb 200 cb 81 cb 1022,9 hPa 0,0 mm 7,2 km/h (2 Bft) O-NO 288 2 min 0,000 mm 4,8 UV-I 853 W/m 15,5 C 28,1 C 12,9 km/h (3 Bft)
22/07/2019 14:34 28,3 C 35,0 C 19,4 C 18,3 C 17,8 C 47 % 0 lf 0 lf 200 cb 200 cb 81 cb 1022,9 hPa 0,0 mm 4,5 km/h (1 Bft) O 271 2 min 0,000 mm 4,8 UV-I 854 W/m 15,9 C 28,3 C 11,3 km/h (2 Bft)
22/07/2019 14:32 28,1 C 34,4 C 19,4 C 18,3 C 17,8 C 47 % 0 lf 0 lf 200 cb 200 cb 81 cb 1022,9 hPa 0,0 mm 3,7 km/h (1 Bft) N-NO 330 2 min 0,000 mm 4,9 UV-I 865 W/m 15,7 C 28,1 C 12,9 km/h (3 Bft)
22/07/2019 14:30 27,8 C 34,4 C 19,4 C 18,3 C 17,8 C 47 % 0 lf 0 lf 200 cb 200 cb 81 cb 1022,9 hPa 0,0 mm 5,7 km/h (1 Bft) O-NO 283 2 min 0,000 mm 4,9 UV-I 853 W/m 15,4 C 27,8 C 12,9 km/h (3 Bft)
22/07/2019 14:28 27,9 C 34,4 C 19,4 C 18,3 C 17,8 C 47 % 0 lf 0 lf 200 cb 200 cb 81 cb 1023,0 hPa 0,0 mm 5,4 km/h (1 Bft) O-NO 290 2 min 0,000 mm 4,8 UV-I 837 W/m 15,5 C 27,9 C 11,3 km/h (2 Bft)
22/07/2019 14:26 28,0 C 34,4 C 19,4 C 18,3 C 17,8 C 48 % 0 lf 0 lf 200 cb 200 cb 81 cb 1023,0 hPa 0,0 mm 7,4 km/h (2 Bft) O 259 2 min 0,000 mm 4,8 UV-I 842 W/m 15,9 C 27,8 C 14,5 km/h (3 Bft)
22/07/2019 14:24 27,9 C 34,4 C 19,4 C 18,3 C 17,8 C 49 % 0 lf 0 lf 200 cb 200 cb 81 cb 1023,0 hPa 0,0 mm 3,9 km/h (1 Bft) O-SO 254 2 min 0,000 mm 4,8 UV-I 842 W/m 16,2 C 27,9 C 8,0 km/h (2 Bft)
22/07/2019 14:22 27,7 C 33,9 C 19,4 C 18,3 C 17,8 C 49 % 0 lf 0 lf 200 cb 200 cb 81 cb 1023,0 hPa 0,0 mm 2,9 km/h (1 Bft) O 273 2 min 0,000 mm 4,8 UV-I 842 W/m 16,0 C 27,7 C 8,0 km/h (2 Bft)
22/07/2019 14:20 27,8 C 33,9 C 19,4 C 18,3 C 17,8 C 48 % 0 lf 0 lf 200 cb 200 cb 81 cb 1023,0 hPa 0,0 mm 5,5 km/h (1 Bft) SO 224 2 min 0,000 mm 4,8 UV-I 838 W/m 15,8 C 27,8 C 12,9 km/h (3 Bft)
22/07/2019 14:18 27,8 C 33,9 C 19,4 C 18,3 C 17,8 C 49 % 0 lf 0 lf 200 cb 200 cb 81 cb 1023,0 hPa 0,0 mm 3,8 km/h (1 Bft) SO 228 2 min 0,000 mm 4,9 UV-I 854 W/m 16,1 C 27,8 C 8,0 km/h (2 Bft)
22/07/2019 14:16 27,6 C 33,9 C 19,4 C 18,3 C 17,8 C 49 % 0 lf 0 lf 200 cb 200 cb 81 cb 1023,1 hPa 0,0 mm 6,5 km/h (2 Bft) O-NO 283 2 min 0,000 mm 4,9 UV-I 861 W/m 15,9 C 27,6 C 12,9 km/h (3 Bft)
22/07/2019 14:14 27,9 C 33,9 C 19,4 C 18,3 C 17,8 C 48 % 0 lf 0 lf 200 cb 200 cb 81 cb 1023,1 hPa 0,0 mm 11,5 km/h (2 Bft) O 262 2 min 0,000 mm 4,9 UV-I 858 W/m 15,9 C 27,2 C 17,7 km/h (3 Bft)
22/07/2019 14:12 28,2 C 34,4 C 19,4 C 18,3 C 17,8 C 48 % 0 lf 0 lf 200 cb 200 cb 81 cb 1023,0 hPa 0,0 mm 7,1 km/h (2 Bft) SO 219 2 min 0,000 mm 4,9 UV-I 856 W/m 16,1 C 28,1 C 12,9 km/h (3 Bft)
22/07/2019 14:10 28,0 C 34,4 C 19,4 C 18,3 C 17,8 C 49 % 0 lf 0 lf 200 cb 200 cb 81 cb 1023,1 hPa 0,0 mm 5,8 km/h (2 Bft) N 358 2 min 0,000 mm 4,9 UV-I 851 W/m 16,3 C 28,0 C 11,3 km/h (2 Bft)
22/07/2019 14:08 27,7 C 33,9 C 19,4 C 18,3 C 17,8 C 49 % 0 lf 0 lf 200 cb 200 cb 81 cb 1023,1 hPa 0,0 mm 3,9 km/h (1 Bft) SO 221 2 min 0,000 mm 4,9 UV-I 856 W/m 16,0 C 27,7 C 11,3 km/h (2 Bft)
22/07/2019 14:06 27,7 C 33,9 C 19,4 C 18,3 C 17,8 C 48 % 0 lf 0 lf 200 cb 200 cb 81 cb 1023,0 hPa 0,0 mm 2,3 km/h (1 Bft) NO 319 2 min 0,000 mm 4,9 UV-I 865 W/m 15,7 C 27,7 C 8,0 km/h (2 Bft)
22/07/2019 14:04 27,7 C 33,3 C 19,4 C 18,3 C 17,8 C 48 % 0 lf 0 lf 200 cb 200 cb 81 cb 1023,1 hPa 0,0 mm 2,5 km/h (1 Bft) N-NO 348 2 min 0,000 mm 4,9 UV-I 853 W/m 15,7 C 27,7 C 6,4 km/h (2 Bft)
22/07/2019 14:02 27,9 C 32,8 C 19,4 C 18,3 C 17,8 C 48 % 0 lf 0 lf 200 cb 200 cb 81 cb 1023,1 hPa 0,0 mm 4,2 km/h (1 Bft) O 281 2 min 0,000 mm 4,9 UV-I 847 W/m 15,9 C 27,9 C 11,3 km/h (2 Bft)
22/07/2019 14:00 27,6 C 32,8 C 19,4 C 18,3 C 17,8 C 49 % 0 lf 0 lf 200 cb 200 cb 81 cb 1023,1 hPa 0,0 mm 5,8 km/h (2 Bft) O-SO 246 2 min 0,559 mm 4,7 UV-I 816 W/m 15,9 C 27,6 C 12,9 km/h (3 Bft)
22/07/2019 13:58 27,3 C 32,2 C 19,4 C 18,3 C 17,8 C 49 % 0 lf 0 lf 200 cb 200 cb 81 cb 1023,1 hPa 0,0 mm 7,0 km/h (2 Bft) O 269 2 min 0,000 mm 4,8 UV-I 842 W/m 15,6 C 27,2 C 11,3 km/h (2 Bft)
22/07/2019 13:56 27,2 C 31,7 C 19,4 C 18,3 C 17,8 C 49 % 0 lf 0 lf 200 cb 200 cb 81 cb 1023,1 hPa 0,0 mm 5,4 km/h (1 Bft) NO 311 2 min 0,000 mm 4,8 UV-I 837 W/m 15,5 C 27,2 C 12,9 km/h (3 Bft)
22/07/2019 13:54 27,2 C 31,7 C 19,4 C 18,3 C 17,8 C 49 % 0 lf 0 lf 200 cb 200 cb 81 cb 1023,2 hPa 0,0 mm 7,2 km/h (2 Bft) O 271 2 min 0,000 mm 4,8 UV-I 835 W/m 15,5 C 27,1 C 14,5 km/h (3 Bft)
22/07/2019 13:52 27,2 C 31,7 C 19,4 C 18,3 C 17,8 C 50 % 0 lf 0 lf 200 cb 200 cb 81 cb 1023,1 hPa 0,0 mm 10,5 km/h (2 Bft) O 262 2 min 0,000 mm 4,9 UV-I 853 W/m 15,9 C 26,5 C 14,5 km/h (3 Bft)
22/07/2019 13:50 27,2 C 32,2 C 19,4 C 18,3 C 17,8 C 50 % 0 lf 0 lf 200 cb 200 cb 81 cb 1023,1 hPa 0,0 mm 5,9 km/h (2 Bft) O 268 2 min 0,000 mm 4,8 UV-I 846 W/m 15,9 C 27,2 C 12,9 km/h (3 Bft)
22/07/2019 13:48 27,4 C 32,2 C 19,4 C 18,3 C 17,8 C 49 % 0 lf 0 lf 200 cb 200 cb 81 cb 1023,1 hPa 0,0 mm 4,5 km/h (1 Bft) SO 214 2 min 0,000 mm 4,8 UV-I 817 W/m 15,7 C 27,4 C 8,0 km/h (2 Bft)
22/07/2019 13:46 27,4 C 31,7 C 19,4 C 18,3 C 17,8 C 49 % 0 lf 0 lf 200 cb 200 cb 81 cb 1023,1 hPa 0,0 mm 7,9 km/h (2 Bft) O-NO 296 2 min 0,000 mm 4,7 UV-I 814 W/m 15,7 C 27,1 C 16,1 km/h (3 Bft)
22/07/2019 13:44 27,3 C 31,7 C 19,4 C 18,3 C 17,8 C 50 % 0 lf 0 lf 200 cb 200 cb 81 cb 1023,1 hPa 0,0 mm 4,9 km/h (1 Bft) SO 223 2 min 0,000 mm 4,7 UV-I 824 W/m 15,9 C 27,3 C 11,3 km/h (2 Bft)
22/07/2019 13:42 27,1 C 31,1 C 19,4 C 18,3 C 17,8 C 50 % 0 lf 0 lf 200 cb 200 cb 81 cb 1023,1 hPa 0,0 mm 3,6 km/h (1 Bft) O 278 2 min 0,000 mm 4,7 UV-I 817 W/m 15,8 C 27,1 C 12,9 km/h (3 Bft)
22/07/2019 13:40 27,1 C 31,1 C 19,4 C 18,3 C 17,8 C 48 % 0 lf 0 lf 200 cb 200 cb 81 cb 1023,2 hPa 0,0 mm 8,9 km/h (2 Bft) O 261 2 min 0,000 mm 4,8 UV-I 833 W/m 15,1 C 26,7 C 14,5 km/h (3 Bft)
22/07/2019 13:38 27,4 C 31,7 C 19,4 C 18,3 C 17,8 C 50 % 0 lf 0 lf 200 cb 200 cb 81 cb 1023,3 hPa 0,0 mm 6,1 km/h (2 Bft) O 275 2 min 0,000 mm 4,7 UV-I 803 W/m 16,0 C 27,4 C 14,5 km/h (3 Bft)
22/07/2019 13:36 27,1 C 31,1 C 19,4 C 18,3 C 17,8 C 52 % 0 lf 0 lf 200 cb 200 cb 81 cb 1023,2 hPa 0,0 mm 5,0 km/h (1 Bft) O-NO 291 2 min 0,000 mm 4,7 UV-I 810 W/m 16,4 C 27,1 C 16,1 km/h (3 Bft)
22/07/2019 13:34 26,9 C 31,7 C 19,4 C 18,3 C 17,8 C 51 % 0 lf 0 lf 200 cb 200 cb 81 cb 1023,2 hPa 0,0 mm 4,7 km/h (1 Bft) SO 225 2 min 0,000 mm 4,6 UV-I 786 W/m 15,9 C 26,9 C 8,0 km/h (2 Bft)
22/07/2019 13:32 27,0 C 31,1 C 19,4 C 18,3 C 17,8 C 51 % 0 lf 0 lf 200 cb 200 cb 81 cb 1023,3 hPa 0,0 mm 5,7 km/h (1 Bft) O-SO 250 2 min 0,000 mm 4,7 UV-I 789 W/m 16,0 C 27,0 C 11,3 km/h (2 Bft)
22/07/2019 13:30 27,0 C 31,1 C 19,4 C 18,3 C 17,8 C 51 % 0 lf 0 lf 200 cb 200 cb 81 cb 1023,3 hPa 0,0 mm 8,9 km/h (2 Bft) SO 225 2 min 0,000 mm 4,7 UV-I 828 W/m 16,0 C 26,5 C 16,1 km/h (3 Bft)
22/07/2019 13:28 27,0 C 31,1 C 19,4 C 18,3 C 17,8 C 50 % 0 lf 0 lf 200 cb 200 cb 81 cb 1023,3 hPa 0,0 mm 8,1 km/h (2 Bft) S-SO 209 2 min 0,000 mm 4,7 UV-I 823 W/m 15,7 C 26,7 C 14,5 km/h (3 Bft)
22/07/2019 13:26 27,0 C 30,6 C 19,4 C 18,3 C 17,8 C 51 % 0 lf 0 lf 200 cb 200 cb 81 cb 1023,3 hPa 0,0 mm 6,2 km/h (2 Bft) S-SO 204 2 min 0,000 mm 4,7 UV-I 824 W/m 16,0 C 27,0 C 12,9 km/h (3 Bft)
22/07/2019 13:24 27,0 C 30,6 C 19,4 C 18,3 C 17,8 C 50 % 0 lf 0 lf 200 cb 200 cb 81 cb 1023,3 hPa 0,0 mm 6,7 km/h (2 Bft) O 269 2 min 0,000 mm 4,6 UV-I 775 W/m 15,7 C 26,9 C 12,9 km/h (3 Bft)
22/07/2019 13:22 27,0 C 30,0 C 19,4 C 18,3 C 17,8 C 50 % 0 lf 0 lf 200 cb 200 cb 81 cb 1023,4 hPa 0,0 mm 9,7 km/h (2 Bft) O 263 2 min 0,000 mm 4,4 UV-I 717 W/m 15,7 C 26,4 C 16,1 km/h (3 Bft)
22/07/2019 13:20 27,1 C 30,0 C 19,4 C 18,3 C 17,8 C 50 % 0 lf 0 lf 200 cb 200 cb 81 cb 1023,4 hPa 0,0 mm 10,9 km/h (2 Bft) SO 229 2 min 0,000 mm 4,4 UV-I 737 W/m 15,8 C 26,4 C 16,1 km/h (3 Bft)
22/07/2019 13:18 27,1 C 30,0 C 19,4 C 18,3 C 17,8 C 52 % 0 lf 0 lf 200 cb 200 cb 81 cb 1023,4 hPa 0,0 mm 4,1 km/h (1 Bft) S-SO 209 2 min 0,000 mm 4,5 UV-I 779 W/m 16,4 C 27,1 C 11,3 km/h (2 Bft)
22/07/2019 13:16 26,8 C 30,0 C 19,4 C 18,3 C 17,8 C 52 % 0 lf 0 lf 200 cb 200 cb 81 cb 1023,4 hPa 0,0 mm 4,3 km/h (1 Bft) O-SO 243 2 min 0,000 mm 4,6 UV-I 800 W/m 16,1 C 26,8 C 11,3 km/h (2 Bft)
22/07/2019 13:14 26,7 C 29,4 C 19,4 C 18,3 C 17,8 C 52 % 0 lf 0 lf 200 cb 200 cb 81 cb 1023,4 hPa 0,0 mm 6,9 km/h (2 Bft) NO 307 2 min 0,000 mm 4,6 UV-I 598 W/m 16,0 C 26,6 C 19,3 km/h (3 Bft)
22/07/2019 13:12 26,6 C 28,9 C 19,4 C 18,3 C 17,8 C 52 % 0 lf 0 lf 200 cb 200 cb 81 cb 1023,4 hPa 0,0 mm 6,4 km/h (2 Bft) O 271 2 min 0,000 mm 4,1 UV-I 687 W/m 15,9 C 26,6 C 17,7 km/h (3 Bft)
22/07/2019 13:10 26,9 C 29,4 C 19,4 C 18,3 C 17,8 C 51 % 0 lf 0 lf 200 cb 200 cb 81 cb 1023,5 hPa 0,0 mm 6,6 km/h (2 Bft) O-NO 287 2 min 0,000 mm 4,3 UV-I 717 W/m 15,9 C 26,9 C 14,5 km/h (3 Bft)
22/07/2019 13:08 27,1 C 29,4 C 19,4 C 18,3 C 17,8 C 52 % 0 lf 0 lf 200 cb 200 cb 81 cb 1023,4 hPa 0,0 mm 5,1 km/h (1 Bft) O 266 2 min 0,000 mm 4,7 UV-I 844 W/m 16,4 C 27,1 C 11,3 km/h (2 Bft)
22/07/2019 13:06 26,8 C 28,9 C 19,4 C 18,3 C 17,8 C 53 % 0 lf 0 lf 200 cb 200 cb 81 cb 1023,4 hPa 0,0 mm 3,1 km/h (1 Bft) O 268 2 min 0,000 mm 4,7 UV-I 835 W/m 16,4 C 26,8 C 11,3 km/h (2 Bft)
22/07/2019 13:04 26,6 C 28,9 C 19,4 C 18,3 C 17,8 C 54 % 0 lf 0 lf 200 cb 200 cb 81 cb 1023,4 hPa 0,0 mm 5,0 km/h (1 Bft) O-SO 248 2 min 0,000 mm 4,8 UV-I 863 W/m 16,5 C 26,6 C 14,5 km/h (3 Bft)
22/07/2019 13:02 26,1 C 28,3 C 19,4 C 18,3 C 17,8 C 55 % 0 lf 0 lf 200 cb 200 cb 81 cb 1023,4 hPa 0,0 mm 3,6 km/h (1 Bft) N-NO 329 2 min 0,000 mm 4,7 UV-I 858 W/m 16,3 C 26,1 C 8,0 km/h (2 Bft)
22/07/2019 13:00 25,9 C 28,3 C 19,4 C 18,3 C 17,8 C 53 % 0 lf 0 lf 200 cb 200 cb 81 cb 1023,5 hPa 0,0 mm 4,6 km/h (1 Bft) NO 318 2 min 0,482 mm 4,6 UV-I 835 W/m 15,6 C 25,9 C 9,7 km/h (2 Bft)
22/07/2019 12:58 26,1 C 27,8 C 19,4 C 18,3 C 17,8 C 53 % 0 lf 0 lf 200 cb 200 cb 81 cb 1023,5 hPa 0,0 mm 2,6 km/h (1 Bft) O 272 2 min 0,000 mm 4,6 UV-I 828 W/m 15,8 C 26,1 C 9,7 km/h (2 Bft)
22/07/2019 12:56 26,3 C 27,8 C 19,4 C 18,3 C 17,8 C 53 % 0 lf 0 lf 200 cb 200 cb 81 cb 1023,5 hPa 0,0 mm 9,0 km/h (2 Bft) O 273 2 min 0,000 mm 4,4 UV-I 789 W/m 15,9 C 25,8 C 14,5 km/h (3 Bft)
22/07/2019 12:54 26,1 C 27,2 C 19,4 C 18,3 C 17,8 C 54 % 0 lf 0 lf 200 cb 200 cb 81 cb 1023,5 hPa 0,0 mm 4,3 km/h (1 Bft) O-NO 288 2 min 0,000 mm 4,5 UV-I 805 W/m 16,0 C 26,1 C 11,3 km/h (2 Bft)
22/07/2019 12:52 26,1 C 27,2 C 19,4 C 18,3 C 17,8 C 54 % 0 lf 0 lf 200 cb 200 cb 81 cb 1023,5 hPa 0,0 mm 4,4 km/h (1 Bft) NO 313 2 min 0,000 mm 4,4 UV-I 807 W/m 16,0 C 26,1 C 12,9 km/h (3 Bft)
22/07/2019 12:50 25,9 C 26,7 C 19,4 C 18,3 C 17,8 C 55 % 0 lf 0 lf 200 cb 200 cb 81 cb 1023,5 hPa 0,0 mm 5,7 km/h (1 Bft) O 276 2 min 0,000 mm 4,3 UV-I 777 W/m 16,2 C 25,9 C 12,9 km/h (3 Bft)
22/07/2019 12:48 25,7 C 26,7 C 19,4 C 18,3 C 17,8 C 55 % 0 lf 0 lf 200 cb 200 cb 81 cb 1023,5 hPa 0,0 mm 4,1 km/h (1 Bft) O 265 2 min 0,000 mm 4,1 UV-I 731 W/m 16,0 C 25,7 C 9,7 km/h (2 Bft)
22/07/2019 12:46 25,6 C 26,7 C 19,4 C 18,3 C 17,8 C 55 % 0 lf 0 lf 200 cb 200 cb 81 cb 1023,5 hPa 0,0 mm 4,0 km/h (1 Bft) O-NO 298 2 min 0,000 mm 3,8 UV-I 601 W/m 15,9 C 25,6 C 12,9 km/h (3 Bft)
22/07/2019 12:44 25,6 C 26,7 C 19,4 C 18,3 C 17,8 C 56 % 0 lf 0 lf 200 cb 200 cb 81 cb 1023,6 hPa 0,0 mm 5,2 km/h (1 Bft) O-SO 250 2 min 0,000 mm 4,0 UV-I 673 W/m 16,2 C 25,6 C 11,3 km/h (2 Bft)
22/07/2019 12:42 25,4 C 26,1 C 19,4 C 18,3 C 17,8 C 56 % 0 lf 0 lf 200 cb 200 cb 81 cb 1023,6 hPa 0,0 mm 3,2 km/h (1 Bft) O 271 2 min 0,000 mm 3,8 UV-I 640 W/m 16,0 C 25,4 C 9,7 km/h (2 Bft)
22/07/2019 12:40 25,3 C 26,1 C 19,4 C 18,3 C 17,8 C 56 % 0 lf 0 lf 200 cb 200 cb 81 cb 1023,6 hPa 0,0 mm 3,1 km/h (1 Bft) O-SO 247 2 min 0,000 mm 3,6 UV-I 612 W/m 15,9 C 25,3 C 6,4 km/h (2 Bft)
22/07/2019 12:38 25,3 C 26,1 C 19,4 C 18,3 C 17,8 C 55 % 0 lf 0 lf 200 cb 200 cb 81 cb 1023,6 hPa 0,0 mm 4,5 km/h (1 Bft) O-SO 249 2 min 0,000 mm 3,5 UV-I 594 W/m 15,6 C 25,3 C 12,9 km/h (3 Bft)
22/07/2019 12:36 25,5 C 26,1 C 19,4 C 18,3 C 17,8 C 55 % 0 lf 0 lf 200 cb 200 cb 81 cb 1023,6 hPa 0,0 mm 8,4 km/h (2 Bft) S 185 2 min 0,000 mm 3,3 UV-I 527 W/m 15,8 C 25,0 C 12,9 km/h (3 Bft)
22/07/2019 12:34 25,7 C 26,1 C 19,4 C 18,3 C 17,8 C 55 % 0 lf 0 lf 200 cb 200 cb 81 cb 1023,6 hPa 0,0 mm 6,3 km/h (2 Bft) O-SO 241 2 min 0,000 mm 3,5 UV-I 584 W/m 16,0 C 25,7 C 14,5 km/h (3 Bft)
22/07/2019 12:32 25,8 C 26,1 C 19,4 C 18,3 C 17,8 C 55 % 0 lf 0 lf 200 cb 200 cb 81 cb 1023,6 hPa 0,0 mm 9,2 km/h (2 Bft) O-SO 242 2 min 0,000 mm 3,7 UV-I 654 W/m 16,1 C 25,2 C 17,7 km/h (3 Bft)
22/07/2019 12:30 25,7 C 26,1 C 19,4 C 18,3 C 17,8 C 56 % 0 lf 0 lf 200 cb 200 cb 81 cb 1023,6 hPa 0,0 mm 8,1 km/h (2 Bft) O-SO 248 2 min 0,000 mm 3,8 UV-I 682 W/m 16,2 C 25,3 C 19,3 km/h (3 Bft)
22/07/2019 12:28 25,4 C 25,6 C 19,4 C 18,3 C 17,8 C 57 % 0 lf 0 lf 200 cb 200 cb 81 cb 1023,6 hPa 0,0 mm 7,0 km/h (2 Bft) NO 304 2 min 0,000 mm 3,9 UV-I 650 W/m 16,2 C 25,3 C 14,5 km/h (3 Bft)
22/07/2019 12:26 25,1 C 25,6 C 19,4 C 18,3 C 17,8 C 57 % 0 lf 0 lf 200 cb 200 cb 81 cb 1023,6 hPa 0,0 mm 3,6 km/h (1 Bft) NO 320 2 min 0,000 mm 4,0 UV-I 752 W/m 16,0 C 25,1 C 12,9 km/h (3 Bft)
22/07/2019 12:24 24,9 C 25,6 C 19,4 C 18,3 C 17,8 C 56 % 0 lf 0 lf 200 cb 200 cb 81 cb 1023,6 hPa 0,0 mm 0,7 km/h (0 Bft) O-SO 249 2 min 0,000 mm 3,9 UV-I 731 W/m 15,5 C 24,9 C 4,8 km/h (1 Bft)
22/07/2019 12:22 24,9 C 25,0 C 19,4 C 18,3 C 17,8 C 56 % 0 lf 0 lf 200 cb 200 cb 81 cb 1023,6 hPa 0,0 mm 2,5 km/h (1 Bft) O 272 2 min 0,000 mm 3,6 UV-I 679 W/m 15,5 C 24,9 C 8,0 km/h (2 Bft)
22/07/2019 12:20 25,1 C 25,0 C 19,4 C 18,3 C 17,8 C 56 % 0 lf 0 lf 200 cb 200 cb 81 cb 1023,6 hPa 0,0 mm 9,9 km/h (2 Bft) O-SO 240 2 min 0,000 mm 3,5 UV-I 608 W/m 15,7 C 24,3 C 16,1 km/h (3 Bft)
22/07/2019 12:18 25,1 C 25,0 C 19,4 C 18,3 C 17,8 C 56 % 0 lf 0 lf 200 cb 200 cb 81 cb 1023,6 hPa 0,0 mm 10,1 km/h (2 Bft) S 185 2 min 0,000 mm 3,5 UV-I 610 W/m 15,7 C 24,3 C 20,9 km/h (4 Bft)
22/07/2019 12:16 25,2 C 25,0 C 19,4 C 18,3 C 17,8 C 56 % 0 lf 0 lf 200 cb 200 cb 81 cb 1023,6 hPa 0,0 mm 2,7 km/h (1 Bft) O 277 2 min 0,000 mm 3,6 UV-I 642 W/m 15,8 C 25,2 C 11,3 km/h (2 Bft)
22/07/2019 12:14 25,3 C 25,0 C 19,4 C 18,3 C 17,8 C 56 % 0 lf 0 lf 200 cb 200 cb 81 cb 1023,6 hPa 0,0 mm 7,6 km/h (2 Bft) O 273 2 min 0,000 mm 3,6 UV-I 638 W/m 15,9 C 25,0 C 14,5 km/h (3 Bft)
22/07/2019 12:12 25,4 C 25,0 C 19,4 C 18,3 C 17,8 C 56 % 0 lf 0 lf 200 cb 200 cb 81 cb 1023,6 hPa 0,0 mm 5,9 km/h (2 Bft) O 261 2 min 0,000 mm 3,5 UV-I 598 W/m 16,0 C 25,4 C 12,9 km/h (3 Bft)
22/07/2019 12:10 25,3 C 25,0 C 19,4 C 18,3 C 17,8 C 56 % 0 lf 0 lf 200 cb 200 cb 81 cb 1023,7 hPa 0,0 mm 7,7 km/h (2 Bft) SO 227 2 min 0,000 mm 3,8 UV-I 642 W/m 15,9 C 25,0 C 12,9 km/h (3 Bft)
22/07/2019 12:08 25,1 C 24,4 C 19,4 C 18,3 C 17,8 C 57 % 0 lf 0 lf 200 cb 200 cb 81 cb 1023,6 hPa 0,0 mm 2,7 km/h (1 Bft) O-SO 242 2 min 0,000 mm 3,9 UV-I 759 W/m 16,0 C 25,1 C 8,0 km/h (2 Bft)
22/07/2019 12:06 24,8 C 24,4 C 19,4 C 18,3 C 17,8 C 57 % 0 lf 0 lf 200 cb 200 cb 81 cb 1023,7 hPa 0,0 mm 6,7 km/h (2 Bft) O 259 2 min 0,000 mm 4,0 UV-I 805 W/m 15,7 C 24,7 C 12,9 km/h (3 Bft)
22/07/2019 12:04 24,8 C 24,4 C 19,4 C 18,3 C 17,8 C 57 % 0 lf 0 lf 200 cb 200 cb 81 cb 1023,7 hPa 0,0 mm 6,8 km/h (2 Bft) O-NO 291 2 min 0,000 mm 4,0 UV-I 798 W/m 15,7 C 24,7 C 14,5 km/h (3 Bft)
22/07/2019 12:02 24,8 C 24,4 C 19,4 C 18,3 C 17,8 C 58 % 0 lf 0 lf 200 cb 200 cb 81 cb 1023,6 hPa 0,0 mm 9,3 km/h (2 Bft) SO 236 2 min 0,000 mm 3,9 UV-I 763 W/m 16,0 C 24,1 C 17,7 km/h (3 Bft)
22/07/2019 12:00 24,7 C 24,4 C 19,4 C 18,3 C 17,8 C 58 % 0 lf 0 lf 200 cb 200 cb 81 cb 1023,7 hPa 0,0 mm 9,0 km/h (2 Bft) O 261 2 min 0,432 mm 3,9 UV-I 751 W/m 15,9 C 24,0 C 14,5 km/h (3 Bft)
_ Min-Heure 06:12 05:44 12:00 12:00 12:00 17:56 12:00 12:00 12:00 12:00 12:00 11:28 - 18:06 - - - - - - 05:30 06:12 18:06
Minimum _ 15,8 C 14,4 C 19,4 C 18,3 C 17,8 C 40 % 0 lf 0 lf 200 cb 200 cb 81 cb 1019,0 hPa - 0,0 km/h (0 Bft) - - - - - - 14,5 C 15,8 C 0,0 km/h (0 Bft)
_ Max-Heure 11:26 16:56 21:36 00:38 11:10 06:02 05:48 06:12 12:00 12:00 11:10 12:00 12:00 14:14 - - 12:00 14:00 13:52 14:06 09:28 11:26 12:18
Maximum _ 30,2 C 37,8 C 21,1 C 18,9 C 18,3 C 92 % 15 lf 15 lf 200 cb 200 cb 84 cb 1023,7 hPa 0,0 mm 11,5 km/h
O (2 Bft)
- - 2 min 0,559 mm 4,9 UV-I 865 W/m 18,5 C 30,2 C 20,9 km/h
O-NO (4 Bft)
Moyenne _ 23,3 C 24,3 C 20,3 C 18,6 C 17,8 C 65 % 2 lf 2 lf 200 cb 200 cb 82 cb 1021,5 hPa #0,0 mm 2,4 km/h (1 Bft) O - #3:10 h #0,762 mm 1,7 UV-I 257 W/m 15,7 C 23,2 C 5,4 km/h (1 Bft)